     2              OBSERVATION DATA    GPS                 RINEX VERSION / TYPE
ASHTORIN 17 - APR - 99 08:38                                PGM / RUN BY / DATE
                                                            COMMENT
Original Marker Name: SIO2                                  COMMENT
Campaign Name: rose canyon fault                            COMMENT
4-Character Station Name: SIO2                              COMMENT
6-Character Antenna Code: DMRCHT                            COMMENT
Vertical Measurement Point: BPA                             COMMENT
Vertical Offset to Rinex Ref. Point: 0.0000                 COMMENT
Radial Measurement Point: RRP                               COMMENT
Radial Offset to Rinex Ref. Point: 0.0000                   COMMENT
Antenna Height from Field Measurement: 0.0000 m             COMMENT
Additional Antenna Identification Info.:                    COMMENT
Turborogue and Ashtech Choke Ring                           COMMENT
Original XYZ: 0.0000 0.0000 0.0000                          COMMENT
New XYZ position is based on association with SCEC monument COMMENT
E1C8P4W3+0401. Position of that monument is believed to be  COMMENT
valid to within 1 m horizontally; vertical accuracy         COMMENT
should be no worse than 3-times this value.                 COMMENT
                                                            COMMENT
Revised Rinex header created by UCSD GPS archive for        COMMENT
GSAC on 03-Sep-1999 (1999:246) 21:48:53 GMT                 COMMENT
For assistance contact dagnew@ucsd.edu or hjohnson@ucsd.edu COMMENT
                                                            COMMENT
SIO LIBRARY WALL - NORTH                                    MARKER NAME
                                                            MARKER NUMBER
SJB SCRIPPS INSTITUTION OF OCEANOGRAPHY                     OBSERVER / AGENCY
755 ASHTECH Z12-XII3 1F501D0                                REC # / TYPE / VERS
409 DORNE-MARGOL. TYPE T                                    ANT # / TYPE
 -2455539.0000 -4767224.0000  3441629.0000                  APPROX POSITION XYZ
        0.0000        0.0000        0.0000                  ANTENNA: DELTA H/E/N
     1     1     0                                          WAVELENGTH FACT L1/2
     7    L1    L2    C1    P1    P2    D1    D2            # / TYPES OF OBSERV
    30                                                      INTERVAL
  1999     4    12     0     0   30.000000                  TIME OF FIRST OBS
  1999     4    12    18     9    0.000000                  TIME OF LAST OBS
                                                            END OF HEADER
 99  4 12  0  0 30.0000000  0  7  6 22 17 23  5 10 30                0.000000000
 -18911914.291 9 -14342740.82749  20367717.146    20367717.0834   20367725.0664
        -0.000          -0.000
  -3914162.193 9  -3033641.58045  24291252.846    24291252.0374   24291263.5374
        -0.000          -0.000
 -19598862.422 9 -15232658.47048  21880832.881    21880832.2754   21880841.8854
        -0.000          -0.000
 -11661469.861 9  -9061867.93047  22959179.548    22959178.9014   22959190.8874
        -0.000          -0.000
  -3570671.169 8  -2759512.44545  24136342.449    24136342.2274   24136359.4434
        -0.000          -0.000
  -6973580.356 8   1931807.536 1         0.000           0.000           0.000
        -0.000          -0.000
 -16865324.716 9 -12851148.78248  21901761.623    21901762.2154   21901772.3984
        -0.000          -0.000
 99  4 12  0  1  0.0000000  0  7  6 22 17 23  5 10 30                0.000000073
 -18934925.394 9 -14360671.53449  20363338.203    20363338.1354   20363346.1094
        -0.000          -0.000
  -3982591.655 8  -3086963.12745  24278230.920    24278230.0424   24278241.9714
        -0.000          -0.000
 -19643197.903 9 -15267205.54848  21872396.038    21872395.5264   21872404.9754
        -0.000          -0.000
 -11753509.924 9  -9133587.24847  22941664.909    22941664.1764   22941675.9744
        -0.000          -0.000
  -3464094.476 8  -2676465.98445  24156623.481    24156623.5274   24156640.4104
        -0.000          -0.000
  -6879489.121 8   3902438.34242         0.000           0.0004          0.0004
        -0.000          -0.000
 -16781689.611 9 -12785978.63648  21917677.160    21917677.7174   21917687.6544
        -0.000          -0.000
 99  4 12  0  1 30.0000000  0  7  6 22 17 23  5 10 30                0.000000067
 -18957549.869 9 -14378300.96949  20359032.841    20359032.8054   20359040.7404
        -0.000          -0.000
  -4050637.377 9  -3139985.67545  24265281.842    24265281.1254   24265293.2794
        -0.000          -0.000
 -19687316.970 9 -15301583.98548  21864000.585    21863999.9884   21864009.3744
        -0.000          -0.000
 -11845269.695 9  -9205088.15747  22924203.398    22924202.8054   22924214.4994
        -0.000          -0.000
  -3357483.894 8  -2593393.10445  24176911.147    24176911.2124   24176927.9684
        -0.000          -0.000
  -6785160.782 8   3975936.81452         0.000           0.0004          0.0005
        -0.000          -0.000
 -16697689.202 9 -12720523.83748  21933662.262    21933662.7614   21933672.3504
        -0.000          -0.000
 99  4 12  0  2  0.0000000  0  7  6 22 17 23  5 10 30                0.000000051
 -18979789.104 9 -14395630.21649  20354800.805    20354800.7854   20354808.6464
        -0.000          -0.000
  -4118312.868 9  -3192719.73445  24252403.370    24252402.9014   24252415.2154
        -0.000          -0.000
 -19731221.431 9 -15335795.18248  21855645.727    21855645.1824   21855654.5364
        -0.000          -0.000
 -11936761.089 9  -9276379.95147  22906792.980    22906792.4184   22906804.1204
        -0.000          -0.000
  -3250863.833 8  -2510312.83945  24197200.381    24197200.4374   24197217.3714
        -0.000          -0.000
  -6690599.645 8   4049616.77152         0.000           0.0004          0.0005
        -0.000          -0.000
 -16613346.993 9 -12654802.71448  21949712.275    21949712.7994   21949722.1114
        -0.000          -0.000
 99  4 12  0  2 30.0000000  0  7  6 22 17 23  5 10 30                0.000000023
 -19001645.433 9 -14412661.09349  20350641.664    20350641.5944   20350649.4464
        -0.000          -0.000
  -4185603.175 8  -3245153.68346  24239598.145    24239597.8954   24239610.3004
        -0.000          -0.000
 -19774921.777 9 -15369847.33048  21847329.729    21847329.2294   21847338.4284
        -0.000          -0.000
 -12027973.720 9  -9347454.51847  22889435.409    22889434.9954   22889446.8074
        -0.000          -0.000
  -3144260.348 8  -2427245.49845  24217486.729    24217486.6324   24217503.5974
        -0.000          -0.000
  -6595812.314 8   3920732.08042         0.000           0.0004          0.0004
        -0.000          -0.000
 -16528667.280 9 -12588818.60748  21965826.676    21965827.0744   21965836.1624
        -0.000          -0.000
 99  4 12  0  3  0.0000000  0  7  6 22 17 23  5 10 30                0.000000013
 -19023072.656 9 -14429357.63049  20346564.101    20346564.0774   20346572.0164
        -0.000          -0.000
  -4252443.162 8  -3297236.70646  24226878.635    24226878.5914   24226891.0544
        -0.000          -0.000
 -19818371.034 9 -15403703.84048  21839061.567    21839060.9734   21839070.1514
        -0.000          -0.000
 -12118864.359 9  -9418278.17547  22872139.082    22872138.6594   22872150.7884
        -0.000          -0.000
  -3037648.231 8  -2344171.40945  24237774.734    24237774.6374   24237791.6294
        -0.000          -0.000
  -6500753.768 8   3994709.18152         0.000           0.0004          0.0005
        -0.000          -0.000
 -16443591.809 9 -12522526.12848  21982016.079    21982016.4764   21982025.5224
        -0.000          -0.000
 99  4 12  0  3 30.0000000  0  7  6 22 17 23  5 10 30               -0.000000001
 -19044109.725 9 -14445750.14649  20342560.911    20342560.9084   20342568.8824
        -0.000          -0.000
  -4318852.299 9  -3348983.95646  24214241.072    24214241.0604   24214254.0254
        -0.000          -0.000
 -19861622.198 9 -15437405.98748  21830831.111    21830830.5204   21830839.7734
        -0.000          -0.000
 -12209488.831 9  -9488894.43947  22854893.298    22854892.8784   22854905.4174
        -0.000          -0.000
  -2931076.000 8  -2261128.44345  24258055.271    24258055.1284   24258072.1454
        -0.000          -0.000
  -6405467.150 8   4068864.08952         0.000           0.0004          0.0005
        -0.000          -0.000
 -16358176.758 9 -12455969.00648  21998270.074    21998270.4454   21998279.5494
        -0.000          -0.000
 99  4 12  0  4  0.0000000  0  7  6 22 17 23  5 10 30               -0.000000009
 -19064780.440 9 -14461857.17249  20338627.423    20338627.3814   20338635.3644
        -0.000          -0.000
  -4384823.400 9  -3400389.91646  24201686.852    24201686.8614   24201700.2064
        -0.000          -0.000
 -19904709.595 9 -15470980.52448  21822631.935    21822631.3764   21822640.4664
        -0.000          -0.000
 -12299846.863 9  -9559303.10247  22837698.308    22837697.9224   22837710.8984
        -0.000          -0.000
  -2824543.900 9  -2178116.70345  24278328.276    24278328.0024   24278344.6534
        -0.000          -0.000
  -6309963.264 8   3938007.09242         0.000           0.0004          0.0004
        -0.000          -0.000
 -16272438.602 9 -12389160.13348  22014585.364    22014585.7704   22014595.1234
        -0.000          -0.000
 99  4 12  0  4 30.0000000  0  7  6 22 17 23  5 10 30               -0.000000001
 -19085090.725 9 -14477683.35049  20334762.394    20334762.3974   20334770.4054
        -0.000          -0.000
  -4450344.485 9  -3451445.23146  24189218.699    24189218.4834   24189232.1804
        -0.000          -0.000
 -19947651.508 9 -15504441.68448  21814460.444    21814459.8544   21814468.7474
        -0.000          -0.000
 -12389924.277 9  -9629493.11247  22820556.828    22820556.5184   22820569.7384
        -0.000          -0.000
  -2718048.610 9  -2095133.65745  24298594.388    24298594.1114   24298610.1744
        -0.000          -0.000
  -6214246.262 8   4012589.76852         0.000           0.0004          0.0005
        -0.000          -0.000
 -16186386.105 9 -12322106.32548  22030960.549    22030960.9334   22030970.5234
        -0.000          -0.000
 99  4 12  0  5  0.0000000  0  7  6 22 17 23  5 10 30               -0.000000001
 -19105068.174 9 -14493250.18049  20330960.744    20330960.7494   20330968.8404
        -0.000          -0.000
  -4515458.035 8  -3502182.96746  24176827.732    24176827.6604   24176841.4164
        -0.000          -0.000
 -19990476.073 9 -15537811.40548  21806311.258    21806310.6754   21806319.4974
        -0.000          -0.000
 -12479759.209 9  -9699494.15247  22803461.568    22803461.3534   22803474.6334
        -0.000          -0.000
  -2611603.359 9  -2012189.60245  24318850.738    24318850.6294   24318866.1644
        -0.000          -0.000
  -6118355.658 8   4087307.66552         0.000           0.0004          0.0005
        -0.000          -0.000
 -16100065.040 9 -12254843.23948  22047386.985    22047387.3214   22047396.9744
        -0.000          -0.000
 99  4 12  0  5 30.0000000  0  7  6 22 17 23  5 10 30                0.000000019
 -19124674.630 9 -14508527.92049  20327229.768    20327229.7724   20327237.8464
        -0.000          -0.000
  -4580128.217 8  -3552575.18445  24164521.213    24164521.1014   24164534.9944
        -0.000          -0.000
 -20033143.861 9 -15571058.96448  21798191.901    21798191.2364   21798200.1264
        -0.000          -0.000
 -12569297.609 9  -9769264.14047  22786422.720    22786422.4984   22786435.8934
        -0.000          -0.000
  -2505166.193 9  -1929251.87245  24339105.458    24339105.2474   24339120.7054
        -0.000          -0.000
  -6022253.486 8   3955044.82842         0.000           0.0004          0.0004
        -0.000          -0.000
 -16013456.805 9 -12187356.37948  22063868.181    22063868.4714   22063878.0914
        -0.000          -0.000
 99  4 12  0  6  0.0000000  0  7  6 22 17 23  5 10 30                0.000000040
 -19143928.742 9 -14523531.11049  20323565.937    20323565.8784   20323573.8534
        -0.000          -0.000
  -4644390.500 8  -3602649.60945  24152292.592    24152292.1664   24152306.3564
        -0.000          -0.000
 -20075668.183 9 -15604194.73248  21790099.728    21790099.0494   21790108.0124
        -0.000          -0.000
 -12658561.522 9  -9838820.24747  22769436.286    22769436.0574   22769449.3244
        -0.000          -0.000
  -2398759.609 9  -1846337.99845  24359354.482    24359354.0894   24359369.2794
        -0.000          -0.000
  -5925966.067 8   4030048.28352         0.000           0.0004          0.0005
        -0.000          -0.000
 -15926580.113 9 -12119660.32248  22080400.357    22080400.6874   22080410.3024
        -0.000          -0.000
 99  4 12  0  6 30.0000000  0  7  6 22 17 23  5 10 30                0.000000066
 -19162799.914 9 -14538235.90649  20319974.862    20319974.8144   20319982.7394
        -0.000          -0.000
  -4708238.421 9  -3652401.16745  24140143.076    24140142.4664   24140156.3074
        -0.000          -0.000
 -20118003.418 9 -15637183.14948  21782043.484    21782042.8264   21782051.9614
        -0.000          -0.000
 -12747536.105 9  -9908150.90647  22752505.099    22752504.7694   22752517.7764
        -0.000          -0.000
  -2292366.258 8  -1763434.41445  24379600.929    24379600.3134   24379615.6564
        -0.000          -0.000
  -5829468.169 7   4105211.82852         0.000           0.0004          0.0005
        -0.000          -0.000
 -15839408.743 9 -12051734.66348  22096988.407    22096988.8134   22096998.4884
        -0.000          -0.000
 99  4 12  0  7  0.0000000  0  7  6 22 17 23  5 10 30                0.000000069
 -19181325.187 9 -14552671.15649  20316449.640    20316449.5654   20316457.4884
        -0.000          -0.000
  -4771717.571 9  -3701865.37645  24128064.208    24128063.2084   24128076.5864
        -0.000          -0.000
 -20160168.073 9 -15670038.65148  21774019.770    21774019.0814   21774028.4314
        -0.000          -0.000
 -12836269.477 9  -9977293.60347  22735619.454    22735619.1694   22735632.1004
        -0.000          -0.000
  -2186028.718 8  -1680574.33545  24399836.707    24399835.9754   24399851.5324
        -0.000          -0.000
  -5732797.720 7   3971825.43142         0.000           0.0004          0.0004
        -0.000          -0.000
 -15751983.600 9 -11983611.26648  22113624.750    22113625.2364   22113634.9664
        -0.000          -0.000
 99  4 12  0  7 30.0000000  0  8  6 22 26 17 23  5 10 30             0.000000069
 -19199463.876 9 -14566805.18149  20312997.946    20312997.8544   20313005.7614
        -0.000          -0.000
  -4834792.044 9  -3751014.24545  24116061.961    24116060.9574   24116073.9404
        -0.000          -0.000
  -1292082.643 8   1017234.215 1         0.000           0.000           0.000
        -0.000          -0.000
 -20202130.014 9 -15702736.19648  21766034.431    21766033.8694   21766043.3684
        -0.000          -0.000
 -12924734.443 9 -10046227.14847  22718784.782    22718784.6034   22718797.4204
        -0.000          -0.000
  -2079722.301 8  -1597738.51545  24420066.054    24420065.6294   24420081.4174
        -0.000          -0.000
  -5635909.121 7   4047328.54352         0.000           0.0004          0.0005
        -0.000          -0.000
 -15664263.876 9 -11915258.32748  22130317.255    22130317.7494   22130327.4804
        -0.000          -0.000
 99  4 12  0  8  0.0000000  0  8  6 22 26 17 23  5 10 30             0.000000071
 -19217213.149 9 -14580635.76949  20309620.353    20309620.2824   20309628.1634
        -0.000          -0.000
  -4897457.702 9  -3799844.55146  24104137.371    24104136.2844   24104149.1244
        -0.000          -0.000
  -1360859.294 8  -1019840.03542         0.000           0.0004          0.0004
        -0.000          -0.000
 -20243891.832 9 -15735277.80748  21758087.361    21758086.7904   21758096.3514
        -0.000          -0.000
 -13012942.419 9 -10114960.44947  22701999.178    22701999.0434   22702011.6694
        -0.000          -0.000
  -1973445.104 8  -1514925.47345  24440289.654    24440289.6694   24440305.4854
        -0.000          -0.000
  -5538793.434 7   4123010.10952         0.000           0.0004          0.0005
        -0.000          -0.000
 -15576242.680 9 -11846670.46548  22147067.524    22147067.8334   22147077.4634
        -0.000          -0.000
 99  4 12  0  8 30.0000000  0  8  6 22 26 17 23  5 10 30             0.000000065
 -19234602.433 9 -14594185.84649  20306311.317    20306311.2334   20306319.0964
        -0.000          -0.000
  -4959727.428 9  -3848366.33646  24092287.685    24092286.6684   24092299.4954
        -0.000          -0.000
  -1429304.255 8  -1073173.06352         0.000           0.0004          0.0005
        -0.000          -0.000
 -20285471.442 9 -15767677.43148  21750174.870    21750174.3784   21750183.9864
        -0.000          -0.000
 -13100894.993 9 -10183494.72547  22685262.445    22685262.2304   22685274.4734
        -0.000          -0.000
  -1867227.259 8  -1432158.65745  24460502.642    24460502.6054   24460518.4044
        -0.000          -0.000
  -5441475.308 7   3989576.42642         0.000           0.0004          0.0004
        -0.000          -0.000
 -15487947.766 9 -11777869.33048  22163869.672    22163869.9024   22163879.5184
        -0.000          -0.000
 99  4 12  0  9  0.0000000  0  8  6 22 26 17 23  5 10 30             0.000000050
 -19251615.451 9 -14607442.73049  20303073.868    20303073.8044   20303081.5634
        -0.000          -0.000
  -5021580.797 9  -3896563.66046  24080516.800    24080516.0364   24080528.9894
        -0.000          -0.000
  -1497403.339 8  -1126236.97743         0.000           0.0004   22759406.8624
        -0.000          -0.000
 -20326879.903 9 -15799943.68448  21742295.211    21742294.5934   21742304.1814
        -0.000          -0.000
 -13188582.253 9 -10251822.25347  22668576.151    22668575.9214   22668587.8124
        -0.000          -0.000
  -1761074.315 8  -1349442.42045  24480703.042    24480702.7424   24480718.9684
        -0.000          -0.000
  -5343961.805 7   4065510.00752         0.000           0.0004          0.0005
        -0.000          -0.000
 -15399377.225 9 -11708853.41047  22180724.088    22180724.3244   22180734.0014
        -0.000          -0.000
 99  4 12  0  9 30.0000000  0  8  6 22 26 17 23  5 10 30             0.000000042
 -19268172.049 9 -14620343.96549  20299923.288    20299923.1964   20299930.8574
        -0.000          -0.000
  -5082933.061 9  -3944370.52946  24068841.358    24068840.8384   24068853.8684
        -0.000          -0.000
  -1565103.104 8  -1178989.94245  22746509.310    22746508.3304   22746520.1604
        -0.000          -0.000
 -20368061.481 9 -15832033.15648  21734458.368    21734457.7594   21734467.4554
        -0.000          -0.000
 -13275918.815 9 -10319876.51647  22651956.526    22651956.2184   22651967.8944
        -0.000          -0.000
  -1654917.531 8  -1266723.21445  24500903.994    24500903.5084   24500920.2934
        -0.000          -0.000
  -5246193.247 7   4141622.35452         0.000           0.0004          0.0005
        -0.000          -0.000
 -15310462.716 9 -11639569.46247  22197643.854    22197644.0614   22197653.9524
        -0.000          -0.000
 99  4 12  0 10  0.0000000  0  8  6 22 26 17 23  5 10 30             0.000000063
 -19284364.651 9 -14632961.56249  20296841.872    20296841.8094   20296849.4494
        -0.000          -0.000
  -5143871.876 9  -3991855.22046  24057244.860    24057244.3564   24057257.4154
        -0.000          -0.000
  -1632513.021 8  -1231516.91945  22733681.343    22733681.2904   22733691.8074
        -0.000          -0.000
 -20409096.798 9 -15864008.66848  21726649.087    21726648.7244   21726658.5554
        -0.000          -0.000
 -13362978.534 9 -10387715.07947  22635389.397    22635389.0074   22635400.7424
        -0.000          -0.000
  -1548841.902 8  -1184067.26245  24521089.527    24521088.6934   24521106.0684
        -0.000          -0.000
  -5148267.247 7   4006156.09742         0.000           0.0004          0.0004
        -0.000          -0.000
 -15221307.604 9 -11570098.03247  22214609.183    22214609.5164   22214619.6734
        -0.000          -0.000
 99  4 12  0 10 30.0000000  0  8  6 22 26 17 23  5 10 30             0.000000067
 -19300181.895 9 -14645286.68049  20293831.934    20293831.8834   20293839.5604
        -0.000          -0.000
  -5204398.609 9  -4039018.83646  24045726.831    24045726.3704   24045739.1394
        -0.000          -0.000
  -1699652.426 8  -1283833.18045  22720905.069    22720905.8044   22720915.8554
        -0.000          -0.000
 -20449971.310 9 -15895858.87748  21718870.884    21718870.5294   21718880.3544
        -0.000          -0.000
 -13449761.495 9 -10455337.98047  22618874.949    22618874.5704   22618886.3164
        -0.000          -0.000
  -1442837.002 8  -1101466.41745  24541262.250    24541260.9594   24541278.5334
        -0.000          -0.000
  -5050183.986 7   4082588.05652         0.000           0.0004          0.0005
        -0.000          -0.000
 -15131905.919 9 -11500434.48247  22231621.800    22231622.1184   22231632.4324
        -0.000          -0.000
 99  4 12  0 11  0.0000000  0  8  6 22 26 17 23  5 10 30             0.000000062
 -19315599.481 9 -14657300.38749  20290897.959    20290897.9344   20290905.7684
        -0.000          -0.000
  -5264501.427 9  -4085852.13346  24034289.182    24034288.9994   24034301.5534
        -0.000          -0.000
  -1766510.954 8  -1335930.63045  22708182.150    22708182.6434   22708192.9024
        -0.000          -0.000
 -20490674.260 9 -15927575.39348  21711125.612    21711125.0814   21711134.8844
        -0.000          -0.000
 -13536269.403 9 -10522746.56847  22602412.773    22602412.4764   22602424.2684
        -0.000          -0.000
  -1336875.221 8  -1018899.17645  24561426.631    24561425.2684   24561443.0174
        -0.000          -0.000
  -4951931.185 7   4159153.99752         0.000           0.0004          0.0005
        -0.000          -0.000
 -15042238.982 9 -11430564.23747  22248685.128    22248685.3354   22248695.7054
        -0.000          -0.000
 99  4 12  0 11 30.0000000  0  8  6 22 26 17 23  5 10 30             0.000000071
 -19330594.944 9 -14668985.15049  20288044.386    20288044.3594   20288052.3064
        -0.000          -0.000
  -5324158.269 9  -4132337.86446  24022936.249    24022936.0894   24022948.6944
        -0.000          -0.000
  -1833050.674 8  -1387779.64745  22695519.616    22695519.8594   22695530.8734
        -0.000          -0.000
 -20531165.877 9 -15959127.22848  21703420.369    21703419.7654   21703429.4834
        -0.000          -0.000
 -13622466.192 9 -10589912.72147  22586009.976    22586009.6714   22586021.3854
        -0.000          -0.000
  -1230916.196 8   -936334.06445  24581590.331    24581589.0594   24581607.1714
        -0.000          -0.000
  -4853475.933 7   4022512.51042         0.000           0.0004          0.0004
        -0.000          -0.000
 -14952277.806 9 -11360464.70947  22265804.230    22265804.4344   22265814.8864
        -0.000          -0.000
 99  4 12  0 12  0.0000000  0  8  6 22 26 17 23  5 10 30             0.000000055
 -19345234.797 9 -14680392.81249  20285258.471    20285258.4084   20285266.4704
        -0.000          -0.000
  -5383440.638 9  -4178531.83446  24011654.939    24011654.6784   24011667.1394
        -0.000          -0.000
  -1899315.790 8  -1439414.66345  22682909.614    22682909.8384   22682921.1054
        -0.000          -0.000
 -20571510.705 9 -15990564.69548  21695742.956    21695742.3404   21695752.0204
        -0.000          -0.000
 -13708423.506 9 -10656892.27647  22569652.896    22569652.5454   22569664.1494
        -0.000          -0.000
  -1125023.672 8   -853820.78945  24601741.306    24601740.2484   24601758.5694
        -0.000          -0.000
  -4754880.890 7   4099339.14952         0.000           0.0004          0.0005
        -0.000          -0.000
 -14862077.932 9 -11290179.18147  22282968.735    22282968.9214   22282979.4514
        -0.000          -0.000
 99  4 12  0 12 30.0000000  0  8  6 22 26 17 23  5 10 30             0.000000056
 -19359442.337 9 -14691463.60849  20282554.764    20282554.7204   20282562.8364
        -0.000          -0.000
  -5442268.167 9  -4224371.37645  24000460.408    24000460.0474   24000472.1414
        -0.000          -0.000
  -1965215.060 8  -1490764.60345  22670369.123    22670369.2304   22670380.9844
        -0.000          -0.000
 -20611649.626 9 -16021841.71348  21688104.713    21688104.1184   21688113.7144
        -0.000          -0.000
 -13794059.467 9 -10723621.44747  22553357.025    22553356.6264   22553367.9654
        -0.000          -0.000
  -1019143.843 8   -771317.40045  24621890.047    24621889.1794   24621907.3814
        -0.000          -0.000
  -4656101.495 7   4176308.67352         0.000           0.0004          0.0005
        -0.000          -0.000
 -14771565.081 9 -11219649.80347  22300192.787    22300193.0174   22300203.5764
        -0.000          -0.000
 99  4 12  0 13  0.0000000  0  8  6 22 26 17 23  5 10 30             0.000000059
 -19373237.299 9 -14702212.91049  20279929.694    20279929.6674   20279937.7104
        -0.000          -0.000
  -5500645.236 9  -4269859.89545  23989351.541    23989351.2084   23989363.2964
        -0.000          -0.000
  -2030756.377 9  -1541835.61545  22657896.888    22657897.0044   22657908.8224
        -0.000          -0.000
 -20651604.396 9 -16052975.21548  21680501.657    21680501.0214   21680510.3614
        -0.000          -0.000
 -13879375.084 9 -10790100.98947  22537121.938    22537121.5264   22537132.6164
        -0.000          -0.000
   -913319.912 8   -688857.56645  24642028.064    24642027.3784   24642045.6344
        -0.000          -0.000
  -4557167.412 7   4038805.07842         0.000           0.0004          0.0004
        -0.000          -0.000
 -14680764.359 9 -11148896.10247  22317471.849    22317472.0754   22317482.3064
        -0.000          -0.000
 99  4 12  0 13 30.0000000  0  8  6 22 26 17 23  5 10 30             0.000000063
 -19386615.409 9 -14712637.38049  20277384.010    20277383.9494   20277391.8514
        -0.000          -0.000
  -5558560.897 9  -4314988.85846  23978330.923    23978330.4274   23978342.2494
        -0.000          -0.000
  -2095954.867 9  -1592639.47545  22645489.990    22645490.1344   22645501.7624
        -0.000          -0.000
 -20691372.052 9 -16083962.92048  21672934.142    21672933.4514   21672942.5954
        -0.000          -0.000
 -13964354.543 9 -10856318.59047  22520950.530    22520950.2214   22520961.3314
        -0.000          -0.000
   -807570.544 8   -606455.84045  24662151.695    24662150.9284   24662169.4974
        -0.000          -0.000
  -4458069.987 7   4116025.36752         0.000           0.0004          0.0005
        -0.000          -0.000
 -14589679.281 9 -11077920.82547  22334804.950    22334805.2264   22334814.9934
        -0.000          -0.000
 99  4 12  0 14  0.0000000  0  8  6 22 26 17 23  5 10 30             0.000000032
 -19399547.940 9 -14722714.65249  20274923.048    20274922.9734   20274930.8344
        -0.000          -0.000
  -5615974.654 9  -4359726.76046  23967406.180    23967405.3794   23967416.6784
        -0.000          -0.000
  -2160801.243 9  -1643168.92346  22633150.080    22633150.1564   22633161.6544
        -0.000          -0.000
 -20730924.922 9 -16114783.28448  21665407.349    21665406.7014   21665415.9084
        -0.000          -0.000
 -14048972.686 9 -10922254.65347  22504848.107    22504847.7584   22504858.9604
        -0.000          -0.000
   -701881.731 8   -524101.30345  24682263.765    24682262.9954   24682281.4934
        -0.000          -0.000
  -4358778.720 8   4193398.25752         0.000           0.0004          0.0005
        -0.000          -0.000
 -14498296.185 9 -11006713.31747  22352194.548    22352194.8974   22352204.6464
        -0.000          -0.000
 99  4 12  0 14 30.0000000  0  8  6 22 26 17 23  5 10 30             0.000000042
 -19412107.992 9 -14732501.69249  20272532.897    20272532.8384   20272540.7684
        -0.000          -0.000
  -5672954.251 9  -4404126.35746  23956563.898    23956562.9164   23956573.6384
        -0.000          -0.000
  -2225367.334 9  -1693479.96546  22620863.429    22620863.5924   22620874.8904
        -0.000          -0.000
 -20770320.052 9 -16145480.73948  21657910.659    21657910.0914   21657919.2794
        -0.000          -0.000
 -14133289.020 9 -10987955.54947  22488803.330    22488802.9064   22488814.0594
        -0.000          -0.000
   -596334.636 8   -441857.19845  24702348.963    24702348.2394   24702366.4634
        -0.000          -0.000
  -4259354.793 8   4055073.68542         0.000           0.0004          0.0004
        -0.000          -0.000
 -14406692.897 9 -10935334.22347  22369626.169    22369626.5704   22369636.2684
        -0.000          -0.000
 99  4 12  0 15  0.0000000  0  8  6 22 26 17 23  5 10 30             0.000000049
 -19424287.066 9 -14741991.87449  20270215.172    20270215.1524   20270223.1604
        -0.000          -0.000
  -5729486.857 9  -4448177.63846  23945806.255    23945805.3144   23945815.6604
        -0.000          -0.000
  -2289644.029 9  -1743565.58346  22608631.848    22608632.0804   22608643.3684
        -0.000          -0.000
 -20809546.915 9 -16176047.06648  21650446.165    21650445.5484   21650454.6014
        -0.000          -0.000
 -14217298.909 9 -11053417.66847  22472816.791    22472816.3034   22472827.3984
        -0.000          -0.000
   -490902.715 8   -359702.81845  24722412.414    24722411.8504   24722429.8554
        -0.000          -0.000
  -4159760.441 8   4132680.30052         0.000           0.0004          0.0005
        -0.000          -0.000
 -14314852.890 9 -10863770.66147  22387103.185    22387103.4714   22387112.9214
        -0.000          -0.000
 99  4 12  0 15 30.0000000  0  8  6 22 26 17 23  5 10 30             0.000000064
 -19436070.324 9 -14751173.61749  20267972.886    20267972.9044   20267980.8704
        -0.000          -0.000
  -5785568.076 9  -4491877.20746  23935134.675    23935133.6024   23935143.7594
        -0.000          -0.000
  -2353601.606 9  -1793402.52146  22596460.886    22596461.1364   22596472.6834
        -0.000          -0.000
 -20848611.032 9 -16206486.58348  21643012.609    21643011.9654   21643020.9434
        -0.000          -0.000
 -14300994.260 9 -11118634.69547  22456889.780    22456889.3404   22456900.5394
        -0.000          -0.000
   -385556.914 8   -277615.56745  24742459.520    24742458.9014   24742476.5154
        -0.000          -0.000
  -4059983.331 8   4210430.51452         0.000           0.0004          0.0005
        -0.000          -0.000
 -14222768.212 9 -10792016.45947  22404626.545    22404626.7994   22404636.1304
        -0.000          -0.000
 99  4 12  0 16  0.0000000  0  8  6 22 26 17 23  5 10 30             0.000000079
 -19447472.227 9 -14760058.20349  20265803.268    20265803.2764   20265811.0964
        -0.000          -0.000
  -5841215.800 9  -4535238.97746  23924545.361    23924544.3224   23924554.2834
        -0.000          -0.000
  -2417228.522 9  -1842981.79946  22584352.879    22584353.1084   22584364.9394
        -0.000          -0.000
 -20887526.537 9 -16236810.30948  21635607.151    21635606.5414   21635615.5964
        -0.000          -0.000
 -14384394.208 9 -11183621.52247  22441019.053    22441018.6674   22441029.9534
        -0.000          -0.000
   -280295.308 8   -195593.97245  24762490.553    24762490.2244   24762507.5654
        -0.000          -0.000
  -3960051.947 7   4071222.79142         0.000           0.0004          0.0004
        -0.000          -0.000
 -14130452.629 9 -10720082.35947  22422193.962    22422194.0484   22422203.1934
        -0.000          -0.000
 99  4 12  0 16 30.0000000  0  8  6 22 26 17 23  5 10 30             0.000000083
 -19458498.426 9 -14768650.02849  20263705.203    20263705.1794   20263712.8264
        -0.000          -0.000
  -5896456.394 9  -4578283.53546  23914033.491    23914032.4804   23914042.1814
        -0.000          -0.000
  -2480507.992 9  -1892290.38446  22572311.026    22572311.3944   22572323.1524
        -0.000          -0.000
 -20926309.889 9 -16267031.04948  21628226.845    21628226.3014   21628235.4144
        -0.000          -0.000
 -14467513.125 9 -11248389.36347  22425201.964    22425201.5464   22425212.9584
        -0.000          -0.000
   -175124.945 8   -113643.46745  24782504.241    24782503.8404   24782520.7504
        -0.000          -0.000
  -3859991.175 7   4149161.64242         0.000           0.0004          0.0004
        -0.000          -0.000
 -14037915.465 9 -10647975.60647  22439803.202    22439803.3774   22439812.3774
        -0.000          -0.000
 99  4 12  0 17  0.0000000  0  8  6 22 26 17 23  5 10 30             0.000000100
 -19469088.028 9 -14776901.64849  20261690.080    20261690.0444   20261697.7134
        -0.000          -0.000
  -5951239.904 9  -4620971.87946  23903608.288    23903607.2474   23903617.0934
        -0.000          -0.000
  -2543379.420 9  -1941280.98246  22560347.102    22560347.4264   22560358.8114
        -0.000          -0.000
 -20964915.936 9 -16297113.62948  21620880.350    21620879.7074   21620888.9434
        -0.000          -0.000
 -14550313.464 9 -11312908.96547  22409445.552    22409445.0144   22409456.5504
        -0.000          -0.000
    -69994.675 8    -31724.19445  24802510.243    24802509.7994   24802526.7634
        -0.000          -0.000
  -3759764.512 7   4227159.16252         0.000           0.0004          0.0005
        -0.000          -0.000
 -13945119.329 9 -10575667.05447  22457461.796    22457461.9424   22457470.8684
        -0.000          -0.000
 99  4 12  0 17 30.0000000  0  8  6 22 26 17 23  5 10 30             0.000000093
 -19479274.686 9 -14784839.29849  20259751.510    20259751.4664   20259759.2394
        -0.000          -0.000
  -6005605.482 9  -4663334.57246  23893262.555    23893261.7004   23893271.7674
        -0.000          -0.000
  -2605879.169 9  -1989981.94646  22548453.706    22548454.0914   22548465.3644
        -0.000          -0.000
 -21003357.883 9 -16327068.34048  21613564.667    21613564.1514   21613573.6254
        -0.000          -0.000
 -14632847.630 9 -11377221.15847  22393739.583    22393739.1074   22393750.8624
        -0.000          -0.000
     35049.404 8     50127.92545  24822499.843    24822499.3404   24822516.5684
        -0.000          -0.000
  -3659422.771 7   4087161.52242         0.000           0.0004          0.0004
        -0.000          -0.000
 -13852122.578 9 -10503202.15247  22475158.578    22475158.6724   22475167.6624
        -0.000          -0.000
 99  4 12  0 18  0.0000000  0  8  6 22 26 17 23  5 10 30             0.000000085
 -19489008.301 9 -14792423.93149  20257899.173    20257899.1784   20257906.9364
        -0.000          -0.000
  -6059500.416 9  -4705330.54346  23883006.534    23883005.7004   23883016.0754
        -0.000          -0.000
  -2667967.348 8  -2038362.17746  22536638.134    22536638.7014   22536650.1024
        -0.000          -0.000
 -21041573.172 9 -16356846.42548  21606292.357    21606291.9054   21606301.3154
        -0.000          -0.000
 -14715075.706 9 -11441294.82647  22378091.745    22378091.3604   22378103.3324
        -0.000          -0.000
    140051.334 8    131947.22945  24842481.113    24842480.6394   24842498.2514
        -0.000          -0.000
  -3558918.288 8   4165457.82242         0.000           0.0004          0.0004
        -0.000          -0.000
 -13758888.712 9 -10430552.49547  22492900.351    22492900.4694   22492909.7994
        -0.000          -0.000
 99  4 12  0 18 30.0000000  0  8  6 22 26 17 23  5 10 30             0.000000066
 -19498306.275 9 -14799669.08049  20256129.951    20256129.9234   20256137.4474
        -0.000          -0.000
  -6112943.275 9  -4746974.21946  23872836.570    23872835.7304   23872846.2694
        -0.000          -0.000
  -2729658.808 9  -2086433.30646  22524898.367    22524899.0264   22524910.5234
        -0.000          -0.000
 -21079586.444 9 -16386467.10948  21599058.665    21599058.1534   21599067.5154
        -0.000          -0.000
 -14797010.610 9 -11505140.05747  22362499.960    22362499.5344   22362511.6014
        -0.000          -0.000
    244972.658 8    213703.66045  24862446.742    24862446.0084   24862463.7524
        -0.000          -0.000
  -3458269.716 8   4243799.49552         0.000           0.0004          0.0005
        -0.000          -0.000
 -13665448.276 9 -10357741.85047  22510681.415    22510681.4804   22510691.3774
        -0.000          -0.000
 99  4 12  0 19  0.0000000  0  8  6 22 26 17 23  5 10 30            -0.000000098
 -19507161.949 9 -14806569.59549  20254444.870    20254444.8304   20254452.2084
        -0.000          -0.000
  -6165909.189 9  -4788246.28146  23862757.512    23862756.5674   23862767.2334
        -0.000          -0.000
  -2790958.917 9  -2134199.49646  22513233.690    22513234.1324   22513245.5494
        -0.000          -0.000
 -21117395.922 9 -16415928.99948  21591863.705    21591863.1944   21591872.5484
        -0.000          -0.000
 -14878635.607 9 -11568743.81747  22346967.267    22346966.7774   22346978.7164
        -0.000          -0.000
    349826.651 8    295407.67345  24882399.655    24882399.5624   24882416.7514
        -0.000          -0.000
  -3357471.931 8    122720.741 1         0.000           0.000           0.000
        -0.000          -0.000
 -13571792.294 9 -10284763.23947  22528503.187    22528503.3524   22528513.9564
        -0.000          -0.000
 99  4 12  0 19 30.0000000  0  8  6 22 26 17 23  5 10 30             0.000000024
 -19515579.243 9 -14813128.52149  20252843.076    20252842.9794   20252850.4024
        -0.000          -0.000
  -6218395.204 9  -4829144.39846  23852769.851    23852768.9414   23852779.4774
        -0.000          -0.000
  -2851875.700 9  -2181666.95846  22501641.677    22501642.1374   22501653.3364
        -0.000          -0.000
 -21155018.598 9 -16445245.31948  21584704.326    21584703.8304   21584713.1234
        -0.000          -0.000
 -14959933.796 9 -11632092.90947  22331496.539    22331496.1074   22331507.9644
        -0.000          -0.000
    454611.996 8    377058.15145  24902340.102    24902339.8174   24902356.7654
        -0.000          -0.000
  -3256532.865 7   4181744.88242         0.000           0.0004          0.0004
        -0.000          -0.000
 -13477919.867 9 -10211615.98347  22546366.280    22546366.5254   22546377.5974
        -0.000          -0.000
 99  4 12  0 20  0.0000000  0  8  6 22 26 17 23  5 10 30             0.000000017
 -19523554.460 9 -14819342.98049  20251325.349    20251325.3194   20251332.8674
        -0.000          -0.000
  -6270401.670 9  -4869668.85346  23842873.384    23842872.4234   23842882.8644
        -0.000          -0.000
  -2912397.694 9  -2228826.82846  22490124.709    22490125.1614   22490136.1604
        -0.000          -0.000
 -21192480.613 9 -16474436.44648  21577575.458    21577574.9764   21577584.1824
        -0.000          -0.000
 -15040871.318 9 -11695160.96147  22316094.472    22316094.0904   22316105.8924
        -0.000          -0.000
    559315.713 8    458645.03745  24922265.381    24922264.9644   24922282.0704
        -0.000          -0.000
  -3155447.083 8   4260525.04352         0.000           0.0004          0.0005
        -0.000          -0.000
 -13383819.253 9 -10138290.94347  22564272.981    22564273.2984   22564284.5994
        -0.000          -0.000
 99  4 12  0 20 30.0000000  0  8  6 22 26 17 23  5 10 30             0.000000027
 -19531087.060 9 -14825212.52549  20249891.992    20249891.9414   20249899.5134
        -0.000          -0.000
  -6321927.297 9  -4909818.60846  23833068.301    23833067.3324   23833077.5994
        -0.000          -0.000
  -2972521.712 9  -2275676.57246  22478683.185    22478683.6124   22478694.7524
        -0.000          -0.000
 -21229766.089 9 -16503490.00848  21570480.348    21570479.8284   21570488.9904
        -0.000          -0.000
 -15121426.790 9 -11757931.31447  22300765.003    22300764.7824   22300776.4734
        -0.000          -0.000
    663931.709 8    540163.54445  24942173.952    24942173.2424   24942190.2794
        -0.000          -0.000
  -3054210.236 8   4339422.88252         0.000           0.0004          0.0005
        -0.000          -0.000
 -13289480.610 9 -10064780.44847  22582224.960    22582225.3114   22582236.8104
        -0.000          -0.000
 99  4 12  0 21  0.0000000  0  8  6 22 26 17 23  5 10 30             0.000000029
 -19538221.747 9 -14830772.00249  20248534.348    20248534.3114   20248541.8084
        -0.000          -0.000
  -6373012.253 9  -4949624.99046  23823347.020    23823346.2204   23823356.1054
        -0.000          -0.000
  -3032297.524 9  -2322255.03246  22467308.073    22467308.5564   22467319.6754
        -0.000          -0.000
 -21266911.570 9 -16532434.49448  21563411.847    21563411.2714   21563420.4924
        -0.000          -0.000
 -15201643.540 9 -11820437.72347  22285500.280    22285499.9594   22285511.5514
        -0.000          -0.000
    768425.554 8    621586.86545  24962058.915    24962058.3664   24962075.4124
        -0.000          -0.000
  -2952863.598 7   4199208.58342         0.000           0.0004          0.0004
        -0.000          -0.000
 -13194945.623 9  -9991116.92747  22600214.265    22600214.7474   22600226.4164
        -0.000          -0.000
 99  4 12  0 21 30.0000000  0  8  6 22 26 17 23  5 10 30             0.000000024
 -19544953.405 9 -14836017.44149  20247253.398    20247253.3584   20247260.7764
        -0.000          -0.000
  -6423655.664 9  -4989087.34946  23813710.176    23813709.1324   23813718.4594
        -0.000          -0.000
  -3091716.570 9  -2368555.44146  22456001.127    22456001.4844   22456012.4794
        -0.000          -0.000
 -21303908.133 9 -16561262.93848  21556371.623    21556371.0854   21556380.3374
        -0.000          -0.000
 -15281525.921 9 -11882683.58247  22270299.167    22270298.7244   22270310.1844
        -0.000          -0.000
    872779.746 8    702901.38545  24981917.387    24981916.7874   24981933.9484
        -0.000          -0.000
  -2851396.464 7   4278275.48452         0.000           0.0004          0.0005
        -0.000          -0.000
 -13100213.643 9  -9917299.91447  22618241.018    22618241.6174   22618253.4974
        -0.000          -0.000
 99  4 12  0 22  0.0000000  0  8  6 22 26 17 23  5 10 30             0.000000021
 -19551272.899 9 -14840941.70849  20246050.890    20246050.8514   20246058.2344
        -0.000          -0.000
  -6473845.581 9  -5028196.28246  23804159.374    23804158.2554   23804167.3484
        -0.000          -0.000
  -3150766.041 9  -2414567.85746  22444764.414    22444764.6534   22444775.6514
        -0.000          -0.000
 -21340725.218 9 -16589951.52448  21549365.422    21549364.9454   21549374.2704
        -0.000          -0.000
 -15361071.121 9 -11944666.70147  22255162.016    22255161.6534   22255172.8984
        -0.000          -0.000
    977013.539 8    784122.07645  25001753.211    25001752.4964   25001769.6174
        -0.000          -0.000
  -2749792.149 7   4357449.35452         0.000           0.0004          0.0005
        -0.000          -0.000
 -13005268.091 9  -9843316.48847  22636308.858    22636309.3384   22636321.0714
        -0.000          -0.000
 99  4 12  0 22 30.0000000  0  8  6 22 26 17 23  5 10 30             0.000000017
 -19557172.829 9 -14845539.05749  20244928.116    20244928.0484   20244935.4554
        -0.000          -0.000
  -6523569.351 9  -5066942.00346  23794696.953    23794695.8754   23794705.1524
        -0.000          -0.000
  -3209442.593 9  -2460289.70846  22433598.445    22433598.6944   22433609.7234
        -0.000          -0.000
 -21377352.478 9 -16618492.19848  21542395.281    21542394.8714   21542404.3014
        -0.000          -0.000
 -15440296.921 9 -12006400.94747  22240085.656    22240085.3794   22240096.4284
        -0.000          -0.000
   1081144.917 8    865262.97145  25021568.968    25021568.2594   25021585.8124
        -0.000          -0.000
  -2648063.347 7   4215269.72442         0.000           0.0004          0.0004
        -0.000          -0.000
 -12910108.052 9  -9769165.91647  22654417.832    22654418.1424   22654429.4444
        -0.000          -0.000
 99  4 12  0 23  0.0000000  0  8  6 22 26 17 23  5 10 30             0.000000015
 -19562642.857 9 -14849801.41649  20243887.122    20243887.0694   20243894.5594
        -0.000          -0.000
  -6572812.590 9  -5105313.27846  23785326.052    23785325.0624   23785334.6234
        -0.000          -0.000
  -3267742.638 9  -2505718.19546  22422504.155    22422504.4844   22422515.5364
        -0.000          -0.000
 -21413820.865 9 -16646909.07348  21535455.418    21535455.0054   21535464.5224
        -0.000          -0.000
 -15519209.387 9 -12067891.04847  22225069.126    22225068.7854   22225079.7784
        -0.000          -0.000
   1185171.562 8    946322.25045  25041364.613    25041363.9054   25041382.0464
        -0.000          -0.000
  -2546216.93617   4294517.26052         0.000           0.0005          0.0005
        -0.000          -0.000
 -12814731.107 9  -9694846.31947  22672567.861    22672568.1274   22672579.0274
        -0.000          -0.000
 99  4 12  0 23 30.0000000  0  8  6 22 26 17 23  5 10 30             0.000000010
 -19567683.481 9 -14853729.16849  20242927.884    20242927.8634   20242935.3604
        -0.000          -0.000
  -6621572.946 9  -5143308.27146  23776046.916    23776046.0864   23776056.0684
        -0.000          -0.000
  -3325667.468 9  -2550854.29646  22411481.374    22411481.6844   22411492.6904
        -0.000          -0.000
 -21450137.837 9 -16675207.96448  21528544.477    21528544.0294   21528553.6374
        -0.000          -0.000
 -15597818.387 9 -12129144.67847  22210110.313    22210110.0114   22210120.8434
        -0.000          -0.000
   1289079.839 8   1027289.30445  25061137.806    25061137.0664   25061155.5974
        -0.000          -0.000
  -2444268.194 7   4373842.45052         0.000           0.0004          0.0005
        -0.000          -0.000
 -12719147.121 9  -9620365.41047  22690757.047    22690757.2554   22690768.2654
        -0.000          -0.000
 99  4 12  0 24  0.0000000  0  7  6 22 26 17 23  5 30               -0.000000013
 -19572270.558 9 -14857303.50149  20242055.028    20242054.9974   20242062.4244
        -0.000          -0.000
  -6669816.043 9  -5180900.20246  23766866.456    23766865.5724   23766875.9434
        -0.000          -0.000
  -3383178.590 9  -2595668.07646  22400537.427    22400537.5914   22400548.5584
        -0.000          -0.000
 -21486272.189 9 -16703364.56448  21521668.358    21521667.8994   21521677.3754
        -0.000          -0.000
 -15676082.581 9 -12190129.61948  22195217.172    22195216.7814   22195227.5534
        -0.000          -0.000
   1392899.696 8   1108187.44145  25080894.160    25080893.5194   25080912.5324
        -0.000          -0.000
 -12623339.727 9  -9545710.40547  22708988.520    22708988.7944   22709000.0384
        -0.000          -0.000
 99  4 12  0 24 30.0000000  0  7  6 22 26 17 23  5 30                0.000000013
 -19576434.394 9 -14860548.04249  20241262.772    20241262.7154   20241270.0384
        -0.000          -0.000
  -6717575.716 9  -5218115.45846  23757777.864    23757776.9844   23757787.6714
        -0.000          -0.000
  -3440301.916 9  -2640179.62446  22389667.219    22389667.4264   22389678.2004
        -0.000          -0.000
 -21522271.827 9 -16731416.18848  21514817.811    21514817.3924   21514826.6804
        -0.000          -0.000
 -15754036.715 9 -12250872.96448  22180382.830    22180382.4114   22180393.3054
        -0.000          -0.000
   1496566.184 8   1188966.08345  25100621.345    25100620.7624   25100640.1664
        -0.000          -0.000
 -12527358.945 9  -9470920.30547  22727253.004    22727253.2704   22727264.8234
        -0.000          -0.000
 99  4 12  0 25  0.0000000  0  7  6 22 26 17 23  5 30                0.000000049
 -19580171.819 9 -14863460.31849  20240551.583    20240551.4784   20240558.8254
        -0.000          -0.000
  -6764848.846 9  -5254951.57246  23748781.525    23748780.7824   23748791.9194
        -0.000          -0.000
  -3497017.013 9  -2684373.07546  22378874.684    22378874.8784   22378885.5204
        -0.000          -0.000
 -21558112.499 9 -16759343.94048  21507997.664    21507997.2034   21508006.3514
        -0.000          -0.000
 -15831654.317 9 -12311354.09047  22165612.331    22165611.9574   22165622.9824
        -0.000          -0.000
   1600078.110 8   1269624.28945  25120319.213    25120318.6844   25120338.4954
        -0.000          -0.000
 -12431206.674 9  -9395996.58347  22745550.129    22745550.4634   22745562.0524
        -0.000          -0.000
 99  4 12  0 25 30.0000000  0  7  6 22 26 17 23  5 30                0.000000072
 -19583512.102 9 -14866063.13249  20239915.813    20239915.7184   20239923.2184
        -0.000          -0.000
  -6811674.650 9  -5291439.13746  23739870.549    23739869.9404   23739881.3824
        -0.000          -0.000
  -3553339.505 9  -2728260.62246  22368156.690    22368156.8774   22368167.4864
        -0.000          -0.000
 -21593787.250 9 -16787142.41648  21501208.943    21501208.4234   21501217.5944
        -0.000          -0.000
 -15908945.854 9 -12371581.13748  22150904.005    22150903.6794   22150914.8094
        -0.000          -0.000
   1703418.325 8   1350148.69945  25139984.408    25139983.6314   25140004.0864
        -0.000          -0.000
 -12334916.908 9  -9320965.71347  22763873.839    22763874.1274   22763885.3864
        -0.000          -0.000
 99  4 12  0 26  0.0000000  0  7  6 22 26 17 23  5 30                0.000000064
 -19586463.992 9 -14868363.29549  20239353.951    20239353.8974   20239361.5004
        -0.000          -0.000
  -6858081.866 9  -5327600.50946  23731039.627    23731038.9434   23731050.4814
        -0.000          -0.000
  -3609278.479 9  -2771849.34246  22357511.819    22357512.0364   22357522.4764
        -0.000          -0.000
 -21629311.746 9 -16814823.80248  21494448.740    21494448.2534   21494457.3124
        -0.000          -0.000
 -15985900.250 9 -12431545.46948  22136259.942    22136259.6964   22136270.7724
        -0.000          -0.000
   1806573.565 8   1430528.96345  25159614.349    25159613.6114   25159634.5074
        -0.000          -0.000
 -12238500.346 9  -9245836.03547  22782221.439    22782221.6964   22782232.7464
        -0.000          -0.000
 99  4 12  0 26 30.0000000  0  7  6 22 26 17 23  5 30                0.000000047
 -19588952.599 9 -14870302.46649  20238880.350    20238880.3054   20238887.9404
        -0.000          -0.000
  -6904023.838 9  -5363399.39046  23722297.459    23722296.6654   23722308.0564
        -0.000          -0.000
  -3664779.251 9  -2815096.58146  22346950.576    22346950.5784   22346960.8514
        -0.000          -0.000
 -21664630.612 9 -16842344.93748  21487727.990    21487727.3954   21487736.2544
        -0.000          -0.000
 -16062459.597 9 -12491201.99248  22121691.268    22121691.0124   22121701.8794
        -0.000          -0.000
   1909621.265 8   1510825.46145  25179224.269    25179223.3074   25179244.2344
        -0.000          -0.000
 -12141882.973 9  -9170549.89647  22800607.181    22800607.4284   22800618.4004
        -0.000          -0.000
 99  4 12  0 27  0.0000000  0  7  6 22 26 17 23  5 30                0.000000013
 -19590977.832 9 -14871880.58049  20238494.885    20238494.8824   20238502.5814
        -0.000          -0.000
  -6949503.811 9  -5398838.25446  23713643.082    23713642.3184   23713653.4694
        -0.000          -0.000
  -3719849.167 9  -2858008.08346  22336470.916    22336470.9734   22336481.3984
        -0.000          -0.000
 -21699747.867 9 -16869708.98348  21481045.513    21481044.8624   21481053.7754
        -0.000          -0.000
 -16138622.645 9 -12550549.70348  22107197.976    22107197.6364   22107208.2724
        -0.000          -0.000
   2012585.999 8   1591057.31045  25198818.132    25198817.2414   25198838.2084
        -0.000          -0.000
 -12045063.958 9  -9095106.62547  22819031.107    22819031.4534   22819042.4414
        -0.000          -0.000
 99  4 12  0 27 30.0000000  0  7  6 22 26 17 23  5 30               -0.000000029
 -19592526.814 9 -14873087.58249  20238200.081    20238200.0864   20238207.8214
        -0.000          -0.000
  -6994503.324 9  -5433902.73646  23705079.902    23705079.2164   23705090.2364
        -0.000          -0.000
  -3774488.547 9  -2900584.10146  22326073.162    22326073.2324   22326083.9384
        -0.000          -0.000
 -21734674.078 9 -16896924.17448  21474399.232    21474398.5934   21474407.6054
        -0.000          -0.000
 -16214392.948 9 -12609591.37048  22092779.536    22092779.0784   22092789.4174
        -0.000          -0.000
   2115483.461 8   1671236.72445  25218399.053    25218398.2464   25218419.1194
        -0.000          -0.000
 -11948025.977 9  -9019492.72747  22837496.573    22837497.0904   22837508.1354
        -0.000          -0.000
 99  4 12  0 28  0.0000000  0  7  6 22 26 17 23  5 30               -0.000000063
 -19593585.257 9 -14873912.34249  20237998.663    20237998.6754   20238006.4954
        -0.000          -0.000
  -7038996.177 9  -5468572.39946  23696612.867    23696612.1484   23696623.3954
        -0.000          -0.000
  -3828691.103 9  -2942819.74047  22315758.596    22315758.7324   22315769.4134
        -0.000          -0.000
 -21769423.192 9 -16924001.36348  21467786.568    21467785.9614   21467794.9384
        -0.000          -0.000
 -16289783.692 9 -12668337.28248  22078433.039    22078432.5504   22078442.9584
        -0.000          -0.000
   2218321.153 8   1751369.57345  25237968.558    25237967.9784   25237988.5934
        -0.000          -0.000
 -11850766.090 9  -8943705.92247  22856004.344    22856004.9984   22856016.0674
        -0.000          -0.000
 99  4 12  0 28 30.0000000  0  7  6 22 26 17 23  5 30               -0.000000087
 -19594171.891 9 -14874369.46049  20237887.171    20237887.1624   20237894.9304
        -0.000          -0.000
  -7082979.504 9  -5502845.03646  23688242.315    23688241.9124   23688253.6084
        -0.000          -0.000
  -3882466.265 9  -2984722.34547  22305525.489    22305525.6364   22305536.2064
        -0.000          -0.000
 -21804002.060 9 -16950945.89648  21461206.282    21461205.7574   21461214.6424
        -0.000          -0.000
 -16364833.128 9 -12726817.23648  22064151.367    22064150.9464   22064161.5324
        -0.000          -0.000
   2321080.359 8   1831441.25045  25257522.878    25257522.6314   25257543.0324
        -0.000          -0.000
 -11753308.674 9  -8867765.22147  22874549.838    22874550.5784   22874561.4554
        -0.000          -0.000
 99  4 12  0 29  0.0000000  0  7  6 22 26 17 23  5 30               -0.000000088
 -19594305.203 9 -14874473.32749  20237861.959    20237861.9004   20237869.5634
        -0.000          -0.000
  -7126435.124 8  -5536706.47446  23679972.545    23679972.1974   23679984.2634
        -0.000          -0.000
  -3935812.402 9  -3026290.62147  22295374.038    22295374.1144   22295384.6744
        -0.000          -0.000
 -21838411.260 9 -16977758.21648  21454658.323    21454657.8404   21454666.8004
        -0.000          -0.000
 -16439543.471 9 -12785032.98148  22049934.496    22049934.0884   22049944.5634
        -0.000          -0.000
   2423741.629 8   1911436.65745  25277058.500    25277058.6154   25277078.7194
        -0.000          -0.000
 -11655686.875 9  -8791696.43247  22893126.992    22893127.6374   22893138.1084
        -0.000          -0.000
 99  4 12  0 29 30.0000000  0  7  6 22 26 17 23  5 30               -0.000000078
 -19594006.760 9 -14874240.76049  20237918.737    20237918.6804   20237926.2944
        -0.000          -0.000
  -7169378.230 9  -5570168.59946  23671800.658    23671800.3544   23671812.2534
        -0.000          -0.000
  -3988750.621 9  -3067541.10147  22285300.043    22285300.1384   22285310.7734
        -0.000          -0.000
 -21872673.558 9 -17004456.07948  21448138.208    21448137.7834   21448146.8964
        -0.000          -0.000
 -16513947.691 9 -12843010.18448  22035776.029    22035775.4804   22035785.8204
        -0.000          -0.000
   2526254.120 8   1991316.05645  25296566.408    25296566.6104   25296586.8824
        -0.000          -0.000
 -11557939.000 9  -8715529.36947  22911728.020    22911728.6004   22911738.8554
        -0.000          -0.000
 99  4 12  0 30  0.0000000  0  7  6 22 26 17 23  5 30               -0.000000060
 -19593271.936 9 -14873668.14549  20238058.507    20238058.4344   20238065.9644
        -0.000          -0.000
  -7211819.419 9  -5603239.62246  23663724.388    23663724.1144   23663735.5334
        -0.000          -0.000
  -4041265.805 9  -3108461.90247  22275306.447    22275306.6464   22275317.3534
        -0.000          -0.000
 -21906780.767 9 -17031033.07848  21441647.803    21441647.4264   21441656.4004
        -0.000          -0.000
 -16588043.681 9 -12900747.21048  22021675.948    22021675.3924   22021685.6984
        -0.000          -0.000
   2628594.919 8   2071061.77545  25316041.819    25316041.9684   25316062.1344
        -0.000          -0.000
 -11460071.169 9  -8639268.81847  22930351.716    22930352.3274   22930362.5684
        -0.000          -0.000
 99  4 12  0 30 30.0000000  0  7  6 22 26 17 23  5 30               -0.000000041
 -19592102.282 9 -14872756.71149  20238281.078    20238281.0004   20238288.4764
        -0.000          -0.000
  -7253769.538 9  -5635927.97546  23655741.936    23655741.4904   23655752.2084
        -0.000          -0.000
  -4093352.933 9  -3149049.13247  22265394.698    22265394.8284   22265405.3294
        -0.000          -0.000
 -21940724.747 9 -17057482.87148  21435188.585    21435188.0884   21435196.9194
        -0.000          -0.000
 -16661823.949 9 -12958238.22648  22007635.829    22007635.4014   22007645.5524
        -0.000          -0.000
   2730743.361 8   2150657.50145  25335480.526    25335480.6104   25335500.8764
        -0.000          -0.000
 -11362088.417 9  -8562918.74847  22948997.396    22948997.9094   22949008.3114
        -0.000          -0.000
 99  4 12  0 31  0.0000000  0  7  6 22 26 17 23  5 30               -0.000000020
 -19590490.489 9 -14871500.77449  20238587.763    20238587.6874   20238595.1594
        -0.000          -0.000
  -7295231.521 9  -5668235.97546  23647852.342    23647851.7534   23647861.9694
        -0.000          -0.000
  -4145003.317 9  -3189296.05947  22255565.920    22255566.0534   22255576.3714
        -0.000          -0.000
 -21974518.225 9 -17083815.39748  21428757.701    21428757.2904   21428766.1464
        -0.000          -0.000
 -16735286.587 9 -13015481.73448  21993656.214    21993655.8994   21993665.9204
        -0.000          -0.000
   2832697.189 8   2230101.60745  25354882.437    25354882.2294   25354902.4524
        -0.000          -0.000
 -11263983.300 9  -8486473.31847  22967666.450    22967666.8144   22967677.7094
        -0.000          -0.000
 99  4 12  0 31 30.0000000  0  7  6 22 26 17 23  5 30               -0.000000006
 -19588426.269 9 -14869892.28549  20238980.476    20238980.4064   20238988.0674
        -0.000          -0.000
  -7336228.628 9  -5700181.68646  23640050.945    23640050.2354   23640060.2484
        -0.000          -0.000
  -4196211.240 9  -3229198.21347  22245821.147    22245821.3094   22245831.7344
        -0.000          -0.000
 -22008162.067 9 -17110031.32648  21422355.472    21422355.0424   21422363.9734
        -0.000          -0.000
 -16808436.409 9 -13072481.48048  21979736.264    21979735.8464   21979746.0164
        -0.000          -0.000
   2934439.940 8   2309381.28744  25374244.012    25374243.6364   25374264.3184
        -0.000          -0.000
 -11165733.238 9  -8409914.95647  22986363.014    22986363.3524   22986374.5214
        -0.000          -0.000
 99  4 12  0 32  0.0000000  0  7  6 22 26 17 23  5 30               -0.000000001
 -19585908.147 9 -14867930.11849  20239459.531    20239459.5244   20239467.3174
        -0.000          -0.000
  -7376765.548 9  -5731768.82146  23632336.903    23632336.1944   23632346.2644
        -0.000          -0.000
  -4246968.740 9  -3268749.40247  22236162.200    22236162.4354   22236172.7554
        -0.000          -0.000
 -22041640.712 9 -17136118.53448  21415984.597    21415984.1234   21415993.1614
        -0.000          -0.000
 -16881249.211 9 -13129218.61448  21965880.224    21965879.8184   21965890.2884
        -0.000          -0.000
   3035994.194 7   2388514.08954  25393569.439    25393568.7204          0.0005
        -0.000          -0.000
 -11067330.614 9  -8333237.70247  23005088.334    23005088.8084   23005100.1144
        -0.000          -0.000
 99  4 12  0 32 30.0000000  0  7  6 22 26 17 23  5 30                0.000000013
 -19582915.965 9 -14865598.55549  20240028.863    20240028.8704   20240036.6704
        -0.000          -0.000
  -7416802.863 9  -5762966.66846  23624718.134    23624717.3584   23624727.3874
        -0.000          -0.000
  -4297259.011 9  -3307936.52447  22226592.324    22226592.5104   22226602.6424
        -0.000          -0.000
 -22074935.597 9 -17162062.55648  21409648.662    21409648.2094   21409657.2614
        -0.000          -0.000
 -16953678.881 9 -13185657.20948  21952097.209    21952096.8504   21952107.3174
        -0.000          -0.000
   3137408.82816   2467538.06453         0.000           0.0005          0.0005
        -0.000          -0.000
 -10968757.764 9  -8256427.83247  23023846.215    23023846.6624   23023857.9484
        -0.000          -0.000
 99  4 12  0 33  0.0000000  0  6  6 22 26 17 23 30                   0.000000015
 -19579480.533 9 -14862921.58149  20240682.547    20240682.5574   20240690.3714
        -0.000          -0.000
  -7456370.082 9  -5793798.17346  23617188.877    23617188.1914   23617198.2384
        -0.000          -0.000
  -4347110.501 9  -3346781.71347  22217105.835    22217105.9984   22217116.0114
        -0.000          -0.000
 -22108084.620 9 -17187892.91648  21403340.651    21403340.1964   21403349.2014
        -0.000          -0.000
 -17025743.238 9 -13241811.13248  21938383.930    21938383.3944   21938393.6944
        -0.000          -0.000
 -10870047.234 9  -8179510.69647  23042630.345    23042630.6794   23042641.8754
        -0.000          -0.000
 99  4 12  0 33 30.0000000  0  6  6 22 26 17 23 30                   0.000000017
 -19575562.863 9 -14859868.85349  20241428.032    20241428.0514   20241435.8954
        -0.000          -0.000
  -7495425.449 9  -5824230.86846  23609757.201    23609756.4854   23609766.6164
        -0.000          -0.000
  -4396496.392 9  -3385264.09647  22207707.938    22207708.0744   22207718.0194
        -0.000          -0.000
 -22141041.568 9 -17213573.60548  21397069.305    21397068.7974   21397077.6554
        -0.000          -0.000
 -17097382.442 9 -13297633.77648  21924751.396    21924750.8414   21924760.9274
        -0.000          -0.000
 -10771184.296 9  -8102474.75947  23061443.346    23061443.6954   23061454.7144
        -0.000          -0.000
 99  4 12  0 34  0.0000000  0  6  6 22 26 17 23 30                   0.000000015
 -19571187.405 9 -14856459.41349  20242260.688    20242260.7044   20242268.5094
        -0.000          -0.000
  -7533967.424 9  -5854263.51346  23602423.011    23602422.2724   23602432.5714
        -0.000          -0.000
  -4445430.480 9  -3423394.45447  22198395.955    22198396.1404   22198406.1104
        -0.000          -0.000
 -22173838.108 9 -17239129.29848  21390828.506    21390827.9484   21390836.6484
        -0.000          -0.000
 -17168603.865 9 -13353130.88848  21911198.419    21911197.8334   21911207.7024
        -0.000          -0.000
 -10672201.853 9  -8025345.71547  23080279.119    23080279.4854   23080290.5654
        -0.000          -0.000
 99  4 12  0 34 30.0000000  0  6  6 22 26 17 23 30                   0.000000018
 -19566359.948 9 -14852697.75749  20243179.406    20243179.4084   20243187.1154
        -0.000          -0.000
  -7571992.161 9  -5883893.13246  23595187.149    23595186.4124   23595196.8354
        -0.000          -0.000
  -4493914.383 9  -3461174.01847  22189169.615    22189169.7984   22189179.6984
        -0.000          -0.000
 -22206486.600 9 -17264569.62848  21384615.749    21384615.1894   21384623.8544
        -0.000          -0.000
 -17239415.817 9 -13408308.92748  21897723.130    21897722.6224   21897732.4514
        -0.000          -0.000
 -10573093.200 9  -7948118.33447  23099139.059    23099139.3194   23099150.6334
        -0.000          -0.000
 99  4 12  0 35  0.0000000  0  6  6 22 26 17 23 30                   0.000000022
 -19561085.460 9 -14848587.77249  20244183.213    20244183.1834   20244190.8504
        -0.000          -0.000
  -7609512.532 9  -5913129.74646  23588047.505    23588046.5654   23588056.9924
        -0.000          -0.000
  -4541949.344 9  -3498603.76347  22180028.823    22180028.9864   22180038.7684
        -0.000          -0.000
 -22238981.500 9 -17289890.28148  21378432.132    21378431.5704   21378440.2844
        -0.000          -0.000
 -17309838.048 9 -13463183.29148  21884322.022    21884321.5704   21884331.4584
        -0.000          -0.000
 -10473856.672 9  -7870791.30547  23118023.345    23118023.5164   23118035.0144
        -0.000          -0.000
 99  4 12  0 35 30.0000000  0  6  6 22 26 17 23 30                   0.000000034
 -19555353.808 9 -14844121.55149  20245273.925    20245273.8394   20245281.5054
        -0.000          -0.000
  -7646519.838 9  -5941966.53546  23581005.261    23581004.3004   23581014.3994
        -0.000          -0.000
  -4589521.865 9  -3535673.13847  22170976.014    22170976.1534   22170985.8764
        -0.000          -0.000
 -22271298.885 9 -17315072.62248  21372282.184    21372281.7074   21372290.5564
        -0.000          -0.000
 -17379866.104 9 -13517750.49048  21870995.910    21870995.4064   21871005.5114
        -0.000          -0.000
 -10374464.376 9  -7793342.91346  23136937.306    23136937.4814   23136948.8774
        -0.000          -0.000
 99  4 12  0 36  0.0000000  0  7  6 22 21 26 17 23 30                0.000000051
 -19549187.205 9 -14839316.41649  20246447.304    20246447.2564   20246454.9824
        -0.000          -0.000
  -7683041.980 9  -5970425.30846  23574055.253    23574054.2334   23574064.2924
        -0.000          -0.000
  -1045864.650 8   -795402.70252         0.000           0.0004          0.0005
        -0.000          -0.000
  -4636641.491 9  -3572389.62447  22162009.316    22162009.5004   22162019.3624
        -0.000          -0.000
 -22303451.357 9 -17340126.45748  21366163.695    21366163.2034   21366172.1834
        -0.000          -0.000
 -17449532.745 9 -13572036.07848  21857738.432    21857738.0634   21857748.3554
        -0.000          -0.000
 -10274912.266 9  -7715769.99046  23155881.656    23155881.8274   23155893.2424
        -0.000          -0.000
 99  4 12  0 36 30.0000000  0  7  6 22 21 26 17 23 30                0.000000052
 -19542600.357 9 -14834183.81149  20247700.765    20247700.7084   20247708.4014
        -0.000          -0.000
  -7719109.428 9  -5998529.73846  23567192.067    23567190.8234   23567200.8924
        -0.000          -0.000
  -1141612.681 8   -617319.45742         0.000           0.0004          0.0004
        -0.000          -0.000
  -4683328.498 9  -3608769.01647  22153125.025    22153125.1514   22153135.1044
        -0.000          -0.000
 -22335437.554 9 -17365050.73148  21360076.902    21360076.3874   21360085.3414
        -0.000          -0.000
 -17518871.053 9 -13626065.81848  21844543.722    21844543.3774   21844553.5504
        -0.000          -0.000
 -10175222.662 9  -7638089.94046  23174852.054    23174852.2934   23174863.8354
        -0.000          -0.000
 99  4 12  0 37  0.0000000  0  7  6 22 21 26 17 23 30                0.000000039
 -19535572.552 9 -14828707.58849  20249038.168    20249038.1034   20249045.7174
        -0.000          -0.000
  -7754713.008 9  -6026272.74046  23560416.892    23560415.7844   23560425.9064
        -0.000          -0.000
  -1237255.034 8   -691845.99952         0.000           0.0004          0.0005
        -0.000          -0.000
  -4729563.450 9  -3644796.16447  22144326.681    22144326.8324   22144336.7904
        -0.000          -0.000
 -22367246.247 9 -17389836.67448  21354024.006    21354023.3974   21354032.2524
        -0.000          -0.000
 -17587889.097 9 -13679845.99248  21831410.119    21831409.6804   21831419.6244
        -0.000          -0.000
 -10075408.353 9  -7560312.72446  23193846.099    23193846.4344   23193858.0664
        -0.000          -0.000
 99  4 12  0 37 30.0000000  0  7  6 22 21 26 17 23 30                0.000000028
 -19528080.207 9 -14822869.39549  20250463.931    20250463.8564   20250471.5104
        -0.000          -0.000
  -7789823.596 9  -6053631.61446  23553735.292    23553734.2604   23553744.6514
        -0.000          -0.000
  -1332780.580 8   -766281.01444         0.000           0.0004   25230868.5494
        -0.000          -0.000
  -4775325.241 9  -3680454.61347  22135618.442    22135618.5704   22135628.4924
        -0.000          -0.000
 -22398872.966 9 -17414480.82448  21348005.588    21348004.9744   21348013.7464
        -0.000          -0.000
 -17656570.397 9 -13733363.79648  21818340.425    21818339.9684   21818349.7624
        -0.000          -0.000
  -9975475.251 9  -7482442.92346  23212862.800    23212863.1494   23212874.9174
        -0.000          -0.000
 99  4 12  0 38  0.0000000  0  7  6 22 21 26 17 23 30                0.000000021
 -19520107.199 9 -14816656.65849  20251981.087    20251981.0154   20251988.7654
        -0.000          -0.000
  -7824421.312 9  -6080590.81246  23547151.084    23547150.0494   23547161.0244
        -0.000          -0.000
  -1428186.938 8   -840623.17245  25212695.706    25212693.3064   25212713.4244
        -0.000          -0.000
  -4820601.805 9  -3715734.95047  22127002.425    22127002.6154   22127012.4624
        -0.000          -0.000
 -22430320.488 9 -17438985.33948  21342021.295    21342020.7464   21342029.3164
        -0.000          -0.000
 -17724898.081 9 -13786606.04748  21805337.963    21805337.5594   21805347.2974
        -0.000          -0.000
  -9875443.957 9  -7404496.61346  23231898.253    23231898.5714   23231910.6234
        -0.000          -0.000
 99  4 12  0 38 30.0000000  0  7  6 22 21 26 17 23 30                0.000000024
 -19511642.574 9 -14810060.84349  20253591.775    20253591.7204   20253599.5114
        -0.000          -0.000
  -7858491.122 9  -6107138.67746  23540667.163    23540666.4264   23540677.7954
        -0.000          -0.000
  -1523470.573 8   -914869.74445  25194563.318    25194559.8194   25194581.1014
        -0.000          -0.000
  -4865380.690 9  -3750627.49047  22118481.148    22118481.3054   22118491.2894
        -0.000          -0.000
 -22461602.493 9 -17463360.89448  21336068.543    21336067.9484   21336076.4714
        -0.000          -0.000
 -17792857.916 9 -13839561.65948  21792405.457    21792405.1024   21792414.8924
        -0.000          -0.000
  -9775333.674 9  -7326488.77546  23250948.963    23250949.2034   23250961.2684
        -0.000          -0.000
 99  4 12  0 39  0.0000000  0  7  6 22 21 26 17 23 30                0.000000013
 -19502698.959 9 -14803091.79249  20255293.708    20255293.6324   20255301.4234
        -0.000          -0.000
  -7892058.356 9  -6133294.93146  23534279.332    23534278.6684   23534290.0934
        -0.000          -0.000
  -1618654.300 8   -989038.44845  25176450.065    25176449.7884   25176467.6594
        -0.000          -0.000
  -4909683.946 9  -3785149.43947  22110050.301    22110050.5414   22110060.6994
        -0.000          -0.000
 -22492754.872 9 -17487635.43848  21330140.372    21330139.7724   21330148.3994
        -0.000          -0.000
 -17860452.632 9 -13892232.75348  21779542.508    21779542.1474   21779552.0614
        -0.000          -0.000
  -9675176.885 9  -7248444.69146  23270008.587    23270008.7684   23270020.5694
        -0.000          -0.000
 99  4 12  0 39 30.0000000  0  7  6 22 21 26 17 23 30                0.000000001
 -19493256.444 9 -14795733.97449  20257090.564    20257090.4684   20257098.2674
        -0.000          -0.000
  -7925102.360 9  -6159043.45846  23527991.232    23527990.5414   23528001.8404
        -0.000          -0.000
  -1713726.686 8  -1063120.38745  25158358.001    25158357.3124   25158375.9804
        -0.000          -0.000
  -4953482.638 9  -3819278.20547  22101715.582    22101715.8804   22101726.0904
        -0.000          -0.000
 -22523750.488 9 -17511787.83548  21324241.988    21324241.4954   21324250.1194
        -0.000          -0.000
 -17927633.463 9 -13944581.35148  21766758.240    21766757.9474   21766767.9174
        -0.000          -0.000
  -9574940.162 9  -7170338.30846  23289083.434    23289083.4224   23289095.0624
        -0.000          -0.000
 99  4 12  0 40  0.0000000  0  7  6 22 21 26 17 23 30               -0.000000013
 -19483305.796 9 -14787980.21449  20258983.975    20258983.8784   20258991.8174
        -0.000          -0.000
  -7957632.726 9  -6184391.76246  23521800.867    23521800.2174   23521811.3304
        -0.000          -0.000
  -1808676.407 8  -1137106.74445  25140289.434    25140288.6514   25140307.4114
        -0.000          -0.000
  -4996761.205 9  -3853001.67547  22093479.924    22093480.2524   22093490.2914
        -0.000          -0.000
 -22554577.634 9 -17535808.94548  21318375.911    21318375.3664   21318383.8694
        -0.000          -0.000
 -17994388.453 9 -13996598.13248  21754055.168    21754054.9114   21754064.6944
        -0.000          -0.000
  -9474604.349 9  -7092154.74346  23308176.501    23308176.5454   23308188.4324
        -0.000          -0.000
 99  4 12  0 40 30.0000000  0  7  6 22 21 26 17 23 30               -0.000000034
 -19472850.307 9 -14779833.07449  20260973.503    20260973.4404   20260981.5114
        -0.000          -0.000
  -7989658.789 9  -6209347.10846  23515706.487    23515705.9164   23515716.7334
        -0.000          -0.000
  -1903515.073 9  -1211006.55045  25122242.545    25122241.5034   25122260.2044
        -0.000          -0.000
  -5039529.412 9  -3886327.47947  22085341.389    22085341.6764   22085351.5584
        -0.000          -0.000
 -22585238.056 9 -17559700.14348  21312541.493    21312540.8854   21312549.2964
        -0.000          -0.000
 -18060739.788 9 -14048300.37448  21741429.101    21741428.7424   21741438.3444
        -0.000          -0.000
  -9374169.819 9  -7013894.21746  23327288.424    23327288.5354   23327300.5464
        -0.000          -0.000
 99  4 12  0 41  0.0000000  0  7  6 22 21 26 17 23 30               -0.000000045
 -19461898.562 9 -14771299.24749  20263057.540    20263057.4674   20263065.6374
        -0.000          -0.000
  -8021163.004 9  -6233895.81646  23509711.049    23509710.5674   23509721.7154
        -0.000          -0.000
  -1998230.727 9  -1284810.45945  25104219.183    25104218.0534   25104236.2754
        -0.000          -0.000
  -5081782.033 9  -3919251.52247  22077300.780    22077301.0834   22077310.9094
        -0.000          -0.000
 -22615711.924 9 -17583445.97848  21306742.348    21306741.8104   21306750.2694
        -0.000          -0.000
 -18126688.538 9 -14099688.90948  21728879.387    21728879.0204   21728888.6014
        -0.000          -0.000
  -9273614.913 9  -6935539.91746  23346423.074    23346423.3384   23346435.6884
        -0.000          -0.000
 99  4 12  0 41 30.0000000  0  7  6 22 21 26 17 23 30               -0.000000025
 -19450468.378 9 -14762392.61249  20265232.619    20265232.5614   20265240.7444
        -0.000          -0.000
  -8052126.361 9  -6258023.04346  23503818.573    23503818.1664   23503829.6234
        -0.000          -0.000
  -2092824.071 9  -1358519.11745  25086218.825    25086217.2944   25086235.4564
        -0.000          -0.000
  -5123525.652 9  -3951778.93947  22069357.151    22069357.5024   22069367.2974
        -0.000          -0.000
 -22646009.200 9 -17607054.20348  21300976.945    21300976.4314   21300984.8674
        -0.000          -0.000
 -18192244.538 9 -14150771.39848  21716404.373    21716403.9774   21716413.6034
        -0.000          -0.000
  -9172930.055 9  -6857084.34946  23365582.484    23365582.9734   23365595.6354
        -0.000          -0.000
 99  4 12  0 42  0.0000000  0  7  6 22 21 26 17 23 30               -0.000000010
 -19438612.405 9 -14753154.19649  20267488.798    20267488.7194   20267496.7714
        -0.000          -0.000
  -8082597.497 9  -6281766.74246  23498019.595    23498019.3114   23498031.0044
        -0.000          -0.000
  -2187339.232 8  -1432166.83945  25068232.627    25068231.3474   25068249.3644
        -0.000          -0.000
  -5164824.179 9  -3983959.51647  22061498.407    22061498.7124   22061508.4934
        -0.000          -0.000
 -22676193.689 9 -17630574.54048  21295232.952    21295232.4184   21295241.0054
        -0.000          -0.000
 -18257471.222 9 -14201597.26848  21703991.871    21703991.4804   21704001.3484
        -0.000          -0.000
  -9072181.806 9  -6778579.37846  23384754.121    23384754.7314   23384767.4884
        -0.000          -0.000
 99  4 12  0 42 30.0000000  0  7  6 22 21 26 17 23 30                0.000000021
 -19426338.021 9 -14743589.73249  20269824.674    20269824.5434   20269832.4234
        -0.000          -0.000
  -8112546.853 9  -6305103.84746  23492320.229    23492319.9764   23492331.4134
        -0.000          -0.000
  -2281753.746 8  -1505736.12145  25050265.067    25050263.9964   25050282.4224
        -0.000          -0.000
  -5205665.322 9  -4015783.69247  22053726.598    22053726.8634   22053736.5804
        -0.000          -0.000
 -22706252.646 9 -17653997.07348  21289512.761    21289512.2874   21289520.9984
        -0.000          -0.000
 -18322353.405 9 -14252154.71248  21691644.769    21691644.4974   21691654.6234
        -0.000          -0.000
  -8971360.453 9  -6700017.45046  23403939.936    23403940.5784   23403953.1014
        -0.000          -0.000
 99  4 12  0 43  0.0000000  0  7  6 22 21 26 17 23 30                0.000000063
 -19413666.762 9 -14733716.02149  20272235.773    20272235.6744   20272243.5994
        -0.000          -0.000
  -8141993.587 9  -6328049.33446  23486716.917    23486716.4744   23486727.4344
        -0.000          -0.000
  -2376073.997 8  -1579232.02945  25032315.465    25032314.4114   25032333.1904
        -0.000          -0.000
  -5246050.167 9  -4047252.32447  22046041.509    22046041.7434   22046051.5594
        -0.000          -0.000
 -22736201.580 9 -17677333.86548  21283813.688    21283813.2324   21283821.7874
        -0.000          -0.000
 -18386890.606 9 -14302443.34148  21679363.694    21679363.4794   21679373.4004
        -0.000          -0.000
  -8870480.359 9  -6621409.72646  23423137.222    23423137.6884   23423150.0794
        -0.000          -0.000
 99  4 12  0 43 30.0000000  0  7  6 22 21 26 17 23 30                0.000000094
 -19400578.037 9 -14723517.01649  20274726.296    20274726.2394   20274734.3124
        -0.000          -0.000
  -8170961.723 9  -6350621.85946  23481204.498    23481204.1604   23481214.7624
        -0.000          -0.000
  -2470290.512 8  -1652647.04645  25014385.767    25014384.8444   25014403.8684
        -0.000          -0.000
  -5285969.340 9  -4078358.11247  22038445.113    22038445.3224   22038455.0744
        -0.000          -0.000
 -22766040.885 9 -17700585.23148  21278135.532    21278135.0634   21278143.4854
        -0.000          -0.000
 -18451080.475 9 -14352461.31948  21667148.925    21667148.6454   21667158.3304
        -0.000          -0.000
  -8769556.667 9  -6542768.08546  23442342.766    23442343.0634   23442355.4364
        -0.000          -0.000
 99  4 12  0 44  0.0000000  0  7  6 22 21 26 17 23 30                0.000000119
 -19387035.637 9 -14712964.49249  20277303.351    20277303.3054   20277311.3984
        -0.000          -0.000
  -8199449.213 9  -6372819.84346  23475783.849    23475783.3634   23475793.6874
        -0.000          -0.000
  -2564369.194 8  -1725954.70545  24996481.810    24996481.5374   24996500.8184
        -0.000          -0.000
  -5325375.174 9  -4109063.88547  22030946.507    22030946.6734   22030956.3014
        -0.000          -0.000
 -22795723.943 9 -17723714.85148  21272487.102    21272486.5844   21272495.0004
        -0.000          -0.000
 -18514900.100 9 -14402190.78948  21655004.515    21655004.1434   21655013.7274
        -0.000          -0.000
  -8668577.363 9  -6464083.09546  23461558.626    23461558.9214   23461571.3804
        -0.000          -0.000
 99  4 12  0 44 30.0000000  0  7  6 22 21 26 17 23 30                0.000000120
 -19373068.903 9 -14702081.32349  20279961.213    20279961.1154   20279969.2234
        -0.000          -0.000
  -8227491.525 9  -6394670.95746  23470447.948    23470447.2674   23470457.3144
        -0.000          -0.000
  -2658343.700 8  -1799181.22545  24978598.412    24978598.4264   24978617.6974
        -0.000          -0.000
  -5364289.997 9  -4139387.04147  22023541.197    22023541.3804   22023550.9644
        -0.000          -0.000
 -22825272.969 9 -17746740.01448  21266864.153    21266863.6374   21266872.0094
        -0.000          -0.000
 -18578375.861 9 -14451652.32748  21642925.448    21642925.0854   21642934.5984
        -0.000          -0.000
  -8567570.416 9  -6385376.55546  23480779.658    23480779.9244   23480792.7074
        -0.000          -0.000
 99  4 12  0 45  0.0000000  0  7  6 22 21 26 17 23 30                0.000000093
 -19358624.403 9 -14690825.86849  20282709.877    20282709.8424   20282717.8744
        -0.000          -0.000
  -8255070.211 9  -6416160.79446  23465199.994    23465199.3204   23465209.2304
        -0.000          -0.000
  -2752192.806 8  -1872309.97745  24960739.992    24960739.4504   24960758.7094
        -0.000          -0.000
  -5402699.197 9  -4169316.19547  22016232.064    22016232.2694   22016241.8974
        -0.000          -0.000
 -22854668.696 9 -17769645.72848  21261270.401    21261269.8094   21261278.1774
        -0.000          -0.000
 -18641485.926 9 -14500828.90048  21630916.073    21630915.6684   21630925.2104
        -0.000          -0.000
  -8466517.013 9  -6306633.84746  23500009.716    23500009.8824   23500022.8784
        -0.000          -0.000
 99  4 12  0 45 30.0000000  0  7  6 22 21 26 17 23 30                0.000000042
 -19343625.766 9 -14679138.62149  20285564.075    20285564.0564   20285572.0084
        -0.000          -0.000
  -8282108.180 9  -6437229.29846  23460054.937    23460054.2324   23460064.0744
        -0.000          -0.000
  -2845862.406 8  -1945298.89745  24942915.498    24942914.8594   24942933.9974
        -0.000          -0.000
  -5440550.531 9  -4198810.66047  22009029.302    22009029.3964   22009038.9094
        -0.000          -0.000
 -22883836.917 9 -17792374.16848  21255719.695    21255719.1824   21255727.6354
        -0.000          -0.000
 -18704163.804 9 -14549668.70748  21618988.972    21618988.4764   21618998.1154
        -0.000          -0.000
  -8365356.751 9  -6227807.86146  23519260.048    23519260.1844   23519273.2754
        -0.000          -0.000
 99  4 12  0 46  0.0000000  0  7  6 22 21 26 17 23 30                0.000000039
 -19328098.873 9 -14667039.73849  20288518.834    20288518.8104   20288526.6254
        -0.000          -0.000
  -8308604.627 9  -6457875.83246  23455012.851    23455012.0144   23455021.8554
        -0.000          -0.000
  -2939386.556 8  -2018174.45445  24925118.010    24925117.4224   24925136.8114
        -0.000          -0.000
  -5477872.257 9  -4227892.44647  22001927.096    22001927.2434   22001936.6004
        -0.000          -0.000
 -22912799.356 9 -17814942.25948  21250208.228    21250207.7384   21250216.1964
        -0.000          -0.000
 -18766415.143 9 -14598176.14348  21607142.713    21607142.3074   21607152.0044
        -0.000          -0.000
  -8264102.372 9  -6148908.55146  23538528.061    23538528.2864   23538541.5804
        -0.000          -0.000
 99  4 12  0 46 30.0000000  0  7  6 22 21 26 17 23 30                0.000000038
 -19312029.525 9 -14654518.17949  20291576.852    20291576.8434   20291584.4924
        -0.000          -0.000
  -8334535.479 9  -6478081.62046  23450077.888    23450077.2004   23450087.3914
        -0.000          -0.000
  -3032752.610 8  -2090926.81745  24907350.367    24907349.9814   24907369.1444
        -0.000          -0.000
  -5514672.083 9  -4256567.55647  21994924.218    21994924.3714   21994933.7754
        -0.000          -0.000
 -22941558.600 9 -17837352.02748  21244735.404    21244734.9264   21244743.4644
        -0.000          -0.000
 -18828227.010 9 -14646341.14748  21595379.984    21595379.7304   21595389.4464
        -0.000          -0.000
  -8162738.476 9  -6069923.90646  23557816.930    23557817.2824   23557830.4794
        -0.000          -0.000
 99  4 12  0 47  0.0000000  0  7  6 22 21 26 17 23 30                0.000000020
 -19295450.476 9 -14641599.44349  20294731.838    20294731.7804   20294739.3334
        -0.000          -0.000
  -8359932.265 9  -6497871.28646  23445244.973    23445244.3354   23445254.8014
        -0.000          -0.000
  -3125988.644 8  -2163577.84445  24889607.986    24889607.3644   24889626.3494
        -0.000          -0.000
  -5550979.953 9  -4284859.31947  21988014.950    21988015.0844   21988024.5804
        -0.000          -0.000
 -22970144.449 9 -17859626.67748  21239295.697    21239295.2814   21239303.6574
        -0.000          -0.000
 -18889625.618 9 -14694184.12148  21583696.167    21583695.9384   21583705.4784
        -0.000          -0.000
  -8061301.702 9  -5990882.44646  23577119.691    23577120.1694   23577133.3694
        -0.000          -0.000
 99  4 12  0 47 30.0000000  0  7  6 22 21 26 17 23 30               -0.000000002
 -19278371.516 9 -14628291.17449  20297981.745    20297981.7204   20297989.3894
        -0.000          -0.000
  -8384792.604 9  -6517242.93846  23440514.205    23440513.5504   23440524.3524
        -0.000          -0.000
  -3219078.100 8  -2236114.65545  24871893.223    24871892.6584   24871911.3294
        -0.000          -0.000
  -5586770.128 9  -4312747.70148  21981204.309    21981204.4594   21981213.8174
        -0.000          -0.000
 -22998542.617 9 -17881755.07848  21233891.872    21233891.3034   21233899.5734
        -0.000          -0.000
 -18950603.160 9 -14741698.99148  21572092.560    21572092.2714   21572101.6214
        -0.000          -0.000
  -7959797.300 9  -5911788.29646  23596435.611    23596436.0364   23596449.1704
        -0.000          -0.000
 99  4 12  0 48  0.0000000  0  7  6 22 21 26 17 23 30               -0.000000011
 -19260789.209 9 -14614590.69349  20301327.456    20301327.4734   20301335.2574
        -0.000          -0.000
  -8409114.188 9  -6536194.78546  23435886.215    23435885.5634   23435896.4824
        -0.000          -0.000
  -3311994.359 8  -2308516.53545  24854211.530    24854211.1784   24854229.3814
        -0.000          -0.000
  -5622021.743 9  -4340216.43148  21974496.254    21974496.4024   21974505.5324
        -0.000          -0.000
 -23026754.913 9 -17903738.64248  21228523.252    21228522.6894   21228530.8884
        -0.000          -0.000
 -19011146.920 9 -14788875.85648  21560571.319    21560571.0774   21560580.3854
        -0.000          -0.000
  -7858215.419 9  -5832633.75946  23615766.210    23615766.6744   23615779.7044
        -0.000          -0.000
 99  4 12  0 48 30.0000000  0  7  6 22 21 26 17 23 30               -0.000000016
 -19242713.883 9 -14600506.04149  20304767.078    20304767.0924   20304774.8904
        -0.000          -0.000
  -8432915.494 9  -6554741.23746  23431357.587    23431356.6294   23431367.4904
        -0.000          -0.000
  -3404744.908 8  -2380789.22145  24836561.536    24836561.1564   24836579.0834
        -0.000          -0.000
  -5656742.475 9  -4367271.45748  21967889.118    21967889.2674   21967898.3414
        -0.000          -0.000
 -23054801.954 9 -17925593.42948  21223186.025    21223185.4354   21223193.6854
        -0.000          -0.000
 -19071277.843 9 -14835731.03748  21549128.700    21549128.4194   21549137.7534
        -0.000          -0.000
  -7756577.608 9  -5753435.67246  23635107.791    23635108.1244   23635120.8524
        -0.000          -0.000
 99  4 12  0 49  0.0000000  0  7  6 22 21 26 17 23 30               -0.000000015
 -19224154.273 9 -14586044.01149  20308298.934    20308298.9674   20308306.5974
        -0.000          -0.000
  -8456202.326 9  -6572886.77746  23426926.467    23426925.4064   23426936.3994
        -0.000          -0.000
  -3497348.001 8  -2452947.04445  24818939.655    24818939.1864   24818956.9124
        -0.000          -0.000
  -5690913.797 9  -4393898.39047  21961386.340    21961386.5094   21961395.5644
        -0.000          -0.000
 -23082691.824 9 -17947325.75448  21217878.571    21217878.0094   21217886.3584
        -0.000          -0.000
 -19130995.337 9 -14882264.05548  21537764.521    21537764.3174   21537773.7374
        -0.000          -0.000
  -7654898.418 9  -5674205.32646  23654457.548    23654457.5494   23654469.9534
        -0.000          -0.000
 99  4 12  0 49 30.0000000  0  7  6 22 21 26 17 23 30               -0.000000005
 -19205109.097 9 -14571203.61849  20311923.268    20311923.2784   20311930.7194
        -0.000          -0.000
  -8478972.872 9  -6590630.03046  23422593.801    23422592.6064   23422603.4414
        -0.000          -0.000
  -3589814.811 9  -2524998.65045  24801343.807    24801343.2084   24801360.7214
        -0.000          -0.000
  -5724535.090 9  -4420096.72647  21954988.270    21954988.4684   21954997.6854
        -0.000          -0.000
 -23110435.715 9 -17968944.33748  21212598.899    21212598.4444   21212606.8854
        -0.000          -0.000
 -19190315.355 9 -14928487.34948  21526476.176    21526476.0114   21526485.3914
        -0.000          -0.000
  -7553179.608 9  -5594944.12246  23673814.342    23673814.2984   23673826.8084
        -0.000          -0.000
 99  4 12  0 50  0.0000000  0  7  6 22 21 26 17 23 30                0.000000008
 -19185576.809 9 -14555983.65249  20315640.327    20315640.3054   20315647.5244
        -0.000          -0.000
  -8501230.141 9  -6607973.33246  23418358.699    23418357.4094   23418368.0784
        -0.000          -0.000
  -3682160.047 8  -2596955.50745  24783771.215    24783770.2044   24783787.7514
        -0.000          -0.000
  -5757611.759 9  -4445870.68647  21948693.958    21948694.1554   21948703.3494
        -0.000          -0.000
 -23138045.736 9 -17990458.59448  21207344.833    21207344.3614   21207352.9254
        -0.000          -0.000
 -19249241.568 9 -14974403.79148  21515262.867    21515262.6244   21515272.0194
        -0.000          -0.000
  -7451414.926 9  -5515647.18146  23693179.930    23693179.8634   23693192.3314
        -0.000          -0.000
 99  4 12  0 50 30.0000000  0  7  6 22 21 26 17 23 30                0.000000023
 -19165570.978 9 -14540394.70049  20319447.351    20319447.3094   20319454.5384
        -0.000          -0.000
  -8522987.658 9  -6624927.20846  23414218.194    23414217.0854   23414227.7324
        -0.000          -0.000
  -3774399.392 9  -2668829.84145  24766218.427    24766217.3554   24766235.0934
        -0.000          -0.000
  -5790146.005 9  -4471221.97547  21942502.797    21942503.0014   21942512.1664
        -0.000          -0.000
 -23165524.345 9 -18011870.45548  21202115.608    21202115.1914   21202123.9314
        -0.000          -0.000
 -19307797.591 9 -15020031.76148  21504120.025    21504119.7584   21504129.1964
        -0.000          -0.000
  -7349620.005 9  -5436326.66646  23712551.450    23712551.2114   23712563.4304
        -0.000          -0.000
 99  4 12  0 51  0.0000000  0  7  6 22 21 26 17 23 30                0.000000041
 -19145104.415 9 -14524446.73249  20323341.970    20323341.9334   20323349.3754
        -0.000          -0.000
  -8544249.610 9  -6641494.92146  23410171.851    23410170.7864   23410181.6014
        -0.000          -0.000
  -3866530.464 8  -2740619.89245  24748685.368    24748684.8344   24748702.9674
        -0.000          -0.000
  -5822142.541 9  -4496154.29147  21936413.975    21936414.1774   21936423.3444
        -0.000          -0.000
 -23192869.731 9 -18033178.51048  21196911.722    21196911.3844   21196920.1564
        -0.000          -0.000
 -19366000.141 9 -15065384.31848  21493044.490    21493044.1854   21493053.6484
        -0.000          -0.000
  -7247811.440 9  -5356995.52446  23731925.267    23731925.0304   23731937.1624
        -0.000          -0.000
 99  4 12  0 51 30.0000000  0  7  6 22 21 26 17 23 30                0.000000054
 -19124188.459 9 -14508148.58649  20327322.143    20327322.1184   20327329.6404
        -0.000          -0.000
  -8565028.331 9  -6657686.09946  23406217.672    23406216.5944   23406227.3974
        -0.000          -0.000
  -3958550.615 8  -2812323.49545  24731173.871    24731173.6754   24731191.5734
        -0.000          -0.000
  -5853631.285 9  -4520690.91647  21930421.815    21930422.0254   21930431.1874
        -0.000          -0.000
 -23220090.974 9 -18054389.82548  21191731.730    21191731.4094   21191739.9574
        -0.000          -0.000
 -19423865.530 9 -15110474.14448  21482033.072    21482032.7784   21482042.2034
        -0.000          -0.000
  -7145996.955 9  -5277659.76546  23751299.930    23751299.7274   23751311.9994
        -0.000          -0.000
 99  4 12  0 52  0.0000000  0  7  6 22 21 26 17 23 30                0.000000066
 -19102818.810 9 -14491496.92249  20331388.546    20331388.5334   20331396.1874
        -0.000          -0.000
  -8585318.346 9  -6673496.48146  23402356.324    23402355.3374   23402366.2074
        -0.000          -0.000
  -4050441.246 8  -2883926.13245  24713687.549    24713687.3004   24713704.7004
        -0.000          -0.000
  -5884603.493 9  -4544825.03747  21924528.032    21924528.2054   21924537.3004
        -0.000          -0.000
 -23247173.032 9 -18075492.68848  21186578.284    21186577.8974   21186586.3114
        -0.000          -0.000
 -19481377.269 9 -15155288.40648  21471089.085    21471088.6754   21471098.0074
        -0.000          -0.000
  -7044178.090 9  -5198320.62146  23770675.134    23770675.0454   23770687.6614
        -0.000          -0.000
 99  4 12  0 52 30.0000000  0  7  6 22 21 26 17 23 30                0.000000081
 -19080982.315 9 -14474481.47549  20335543.812    20335543.8164   20335551.6004
        -0.000          -0.000
  -8605095.158 9  -6688906.93946  23398592.690    23398591.6734   23398602.8264
        -0.000          -0.000
  -4142183.167 9  -2955412.93645  24696229.627    24696229.2674   24696246.2604
        -0.000          -0.000
  -5915050.473 9  -4568549.86747  21918734.107    21918734.3264   21918743.3654
        -0.000          -0.000
 -23274094.886 9 -18096470.71648  21181455.225    21181454.8344   21181463.2134
        -0.000          -0.000
 -19538519.631 9 -15199814.83248  21460215.076    21460214.7134   21460223.9644
        -0.000          -0.000
  -6942352.851 9  -5118976.50946  23790051.478    23790051.5504   23790064.5904
        -0.000          -0.000
 99  4 12  0 53  0.0000000  0  7  6 22 21 26 17 23 30                0.000000089
 -19058690.819 9 -14457111.48549  20339785.692    20339785.6794   20339793.5404
        -0.000          -0.000
  -8624363.951 9  -6703921.55546  23394925.773    23394924.9204   23394936.0934
        -0.000          -0.000
  -4233782.178 8  -3026788.40445  24678798.678    24678797.9764   24678815.2134
        -0.000          -0.000
  -5944989.263 9  -4591878.71347  21913036.841    21913037.0504   21913046.1344
        -0.000          -0.000
 -23300872.170 9 -18117336.09848  21176359.625    21176359.2024   21176367.6364
        -0.000          -0.000
 -19595292.834 9 -15244053.60448  21449411.399    21449410.9924   21449420.1974
        -0.000          -0.000
  -6840539.702 9  -5039641.81046  23809425.608    23809425.9474   23809439.2134
        -0.000          -0.000
 99  4 12  0 53 30.0000000  0  7  6 22 21 26 17 23 30                0.000000084
 -19035939.534 9 -14439383.22649  20344115.091    20344115.0524   20344122.9124
        -0.000          -0.000
  -8643124.439 9  -6718540.09046  23391355.940    23391355.0414   23391366.0324
        -0.000          -0.000
  -4325234.802 8  -3098049.81145  24661395.065    24661394.5734   24661411.9114
        -0.000          -0.000
  -5974414.306 9  -4614807.24147  21907437.432    21907437.6374   21907446.5974
        -0.000          -0.000
 -23327495.181 9 -18138081.26248  21171293.268    21171292.8894   21171301.4344
        -0.000          -0.000
 -19651669.581 9 -15287983.46848  21438682.914    21438682.6784   21438691.9454
        -0.000          -0.000
  -6738731.700 9  -4960311.10046  23828799.029    23828799.4064   23828812.9374
        -0.000          -0.000
 99  4 12  0 54  0.0000000  0  7  6 22 21 26 17 23 30                0.000000087
 -19012695.628 9 -14421271.09849  20348538.182    20348538.1604   20348546.1044
        -0.000          -0.000
  -8661337.360 9  -6732731.92746  23387890.294    23387889.3114   23387900.0444
        -0.000          -0.000
  -4416501.983 8  -3169166.69545  24644027.246    24644026.6264   24644043.7024
        -0.000          -0.000
  -6003284.271 9  -4637303.26347  21901943.586    21901943.8304   21901952.8024
        -0.000          -0.000
 -23353921.643 9 -18158673.27648  21166264.429    21166264.0804   21166272.6914
        -0.000          -0.000
 -19707604.931 9 -15331569.36448  21428038.846    21428038.5584   21428047.8834
        -0.000          -0.000
  -6636897.986 9  -4880960.40046  23848177.480    23848177.9294   23848191.3704
        -0.000          -0.000
 99  4 12  0 54 30.0000000  0  7  6 22 21 26 17 23 30                0.000000073
 -18988998.149 9 -14402805.52849  20353047.695    20353047.7184   20353055.5884
        -0.000          -0.000
  -8679037.711 9  -6746524.39646  23384521.987    23384521.0434   23384531.4304
        -0.000          -0.000
  -4507628.383 9  -3240173.94345  24626686.613    24626685.6914   24626702.4944
        -0.000          -0.000
  -6031640.471 9  -4659398.92947  21896547.451    21896547.6864   21896556.7964
        -0.000          -0.000
 -23380200.815 9 -18179150.51648  21161263.814    21161263.3324   21161271.9744
        -0.000          -0.000
 -19763137.685 9 -15374841.55748  21417471.286    21417470.9644   21417480.2854
        -0.000          -0.000
  -6535075.672 9  -4801618.56046  23867553.804    23867554.2654   23867567.5894
        -0.000          -0.000
 99  4 12  0 55  0.0000000  0  7  6 22 21 26 17 23 30                0.000000055
 -18964809.408 9 -14383957.16449  20357650.741    20357650.7514   20357658.5184
        -0.000          -0.000
  -8696213.377 9  -6759907.99746  23381253.557    23381252.5954   23381262.6334
        -0.000          -0.000
  -4598581.299 8  -3311046.00545  24609378.158    24609377.4734   24609394.1324
        -0.000          -0.000
  -6059446.851 9  -4681066.16947  21891256.061    21891256.3294   21891265.4644
        -0.000          -0.000
 -23406307.382 9 -18199493.25648  21156295.937    21156295.4014   21156304.0584
        -0.000          -0.000
 -19818238.748 9 -15417777.37148  21406985.829    21406985.4734   21406994.6504
        -0.000          -0.000
  -6433237.303 9  -4722264.20346  23886933.372    23886933.8094   23886946.8814
        -0.000          -0.000
 99  4 12  0 55 30.0000000  0  7  6 22 21 26 17 23 30                0.000000048
 -18940098.620 9 -14364702.01449  20362353.063    20362353.0364   20362360.8154
        -0.000          -0.000
  -8712841.452 9  -6772864.91246  23378089.414    23378088.3474   23378098.1244
        -0.000          -0.000
  -4689346.230 8  -3381771.60145  24592105.939    24592105.4214   24592121.7424
        -0.000          -0.000
  -6086677.922 9  -4702285.12248  21886074.158    21886074.3964   21886083.5644
        -0.000          -0.000
 -23432220.407 9 -18219685.19248  21151364.879    21151364.3154   21151372.9754
        -0.000          -0.000
 -19872887.797 9 -15460360.96948  21396586.386    21396586.0324   21396595.0874
        -0.000          -0.000
  -6331352.707 9  -4642873.82746  23906321.570    23906321.9084   23906334.8054
        -0.000          -0.000
 99  4 12  0 56  0.0000000  0  7  6 22 21 26 17 23 30                0.000000051
 -18914867.233 9 -14345041.20349  20367154.421    20367154.3834   20367162.1914
        -0.000          -0.000
  -8728929.116 9  -6785400.71746  23375028.241    23375027.1154   23375036.6074
        -0.000          -0.000
  -4779942.374 8  -3452365.66145  24574865.393    24574865.0464   24574881.1624
        -0.000          -0.000
  -6113340.660 9  -4723061.21947  21881000.313    21881000.5694   21881009.6594
        -0.000          -0.000
 -23457968.534 9 -18239748.63948  21146465.252    21146464.6374   21146473.2814
        -0.000          -0.000
 -19927116.604 9 -15502617.10848  21386267.002    21386266.6364   21386275.6054
        -0.000          -0.000
  -6229432.566 9  -4563455.76846  23925716.476    23925716.8404   23925729.5704
        -0.000          -0.000
 99  4 12  0 56 30.0000000  0  7  6 22 21 26 17 23 30                0.000000048
 -18889144.551 9 -14324997.55149  20372049.195    20372049.1744   20372057.0134
        -0.000          -0.000
  -8744509.932 9  -6797541.58246  23372063.452    23372062.3384   23372071.6204
        -0.000          -0.000
  -4870406.871 9  -3522857.14245  24557650.264    24557649.9034   24557665.6374
        -0.000          -0.000
  -6139457.344 9  -4743411.81447  21876030.355    21876030.6394   21876039.7114
        -0.000          -0.000
 -23483589.712 9 -18259713.15048  21141589.534    21141588.9934   21141597.5874
        -0.000          -0.000
 -19980960.232 9 -15544573.09648  21376020.922    21376020.5294   21376029.3494
        -0.000          -0.000
  -6127512.550 9  -4484037.79846  23945111.435    23945111.7244   23945124.4324
        -0.000          -0.000
 99  4 12  0 57  0.0000000  0  7  6 22 21 26 17 23 30                0.000000051
 -18862912.959 9 -14304557.35649  20377040.925    20377040.9084   20377048.6914
        -0.000          -0.000
  -8759567.227 9  -6809274.55246  23369197.958    23369197.0614   23369206.2254
        -0.000          -0.000
  -4960709.808 8  -3593222.78645  24540465.732    24540465.5694   24540480.7424
        -0.000          -0.000
  -6165005.163 9  -4763319.15447  21871168.869    21871169.0654   21871178.0544
        -0.000          -0.000
 -23509064.437 9 -18279563.55048  21136741.560    21136741.1394   21136749.7804
        -0.000          -0.000
 -20034393.439 9 -15586209.28448  21365852.865    21365852.4884   21365861.2474
        -0.000          -0.000
  -6025577.206 9  -4404607.86946  23964508.936    23964509.3464   23964522.4564
        -0.000          -0.000
 99  4 12  0 57 30.0000000  0  7  6 22 21 26 17 23 30                0.000000065
 -18836172.533 9 -14283720.65949  20382129.490    20382129.4364   20382137.2954
        -0.000          -0.000
  -8774085.331 9  -6820587.30146  23366434.926    23366434.1154   23366443.3934
        -0.000          -0.000
  -5050844.953 8  -3663457.65845  24523313.650    24523313.4634   24523328.1924
        -0.000          -0.000
  -6189980.805 9  -4782780.61547  21866416.109    21866416.2854   21866425.3444
        -0.000          -0.000
 -23534382.113 9 -18299291.57948  21131923.670    21131923.3644   21131931.9474
        -0.000          -0.000
 -20087407.491 9 -15627518.86648  21355764.610    21355764.2424   21355772.9034
        -0.000          -0.000
  -5923621.235 9  -4325161.90246  23983910.376    23983910.9834   23983924.3154
        -0.000          -0.000
 99  4 12  0 58  0.0000000  0  7  6 22 21 26 17 23 30                0.000000070
 -18808959.350 9 -14262515.59949  20387307.850    20387307.8504   20387315.8454
        -0.000          -0.000
  -8788106.566 9  -6831512.92546  23363766.304    23363765.6224   23363775.0524
        -0.000          -0.000
  -5140838.173 8  -3733581.93345  24506188.753    24506188.2494   24506202.6354
        -0.000          -0.000
  -6214408.970 9  -4801815.49147  21861767.560    21861767.7934   21861776.7314
        -0.000          -0.000
 -23559565.833 9 -18318915.21948  21127131.564    21127131.1614   21127139.5894
        -0.000          -0.000
 -20140033.927 9 -15668526.38748  21345750.089    21345749.6654   21345758.4204
        -0.000          -0.000
  -5821693.358 9  -4245737.81146  24003307.055    24003307.6554   24003321.0064
        -0.000          -0.000
 99  4 12  0 58 30.0000000  0  7  6 22 21 26 17 23 30                0.000000057
 -18781292.955 9 -14240957.36949  20392572.620    20392572.6264   20392580.5884
        -0.000          -0.000
  -8801649.922 9  -6842066.15346  23361188.814    23361188.0564   23361197.7874
        -0.000          -0.000
  -5230692.196 9  -3803597.74545  24489089.862    24489089.2974   24489104.0754
        -0.000          -0.000
  -6238296.117 9  -4820428.77647  21857221.972    21857222.2104   21857231.0094
        -0.000          -0.000
 -23584621.766 9 -18338439.28248  21122363.569    21122363.1434   21122371.5784
        -0.000          -0.000
 -20192279.169 9 -15709236.87848  21335808.075    21335807.6884   21335816.5434
        -0.000          -0.000
  -5719814.121 9  -4166351.63546  24022694.832    24022695.1324   24022708.3914
        -0.000          -0.000
 99  4 12  0 59  0.0000000  0  7  6 22 21 26 17 23 30                0.000000047
 -18753134.376 9 -14219015.62549  20397931.040    20397931.0564   20397938.9614
        -0.000          -0.000
  -8814686.323 9  -6852224.36646  23358707.865    23358707.1844   23358716.9464
        -0.000          -0.000
  -5320368.774 9  -3873475.32946  24472025.038    24472024.4204   24472039.2734
        -0.000          -0.000
  -6261609.572 9  -4838595.03047  21852785.524    21852785.7314   21852794.4494
        -0.000          -0.000
 -23609515.291 9 -18357836.79348  21117626.359    21117625.9424   21117634.5094
        -0.000          -0.000
 -20244119.878 9 -15749632.15348  21325943.065    21325942.6574   21325951.4534
        -0.000          -0.000
  -5617955.700 9  -4086981.68146  24042078.451    24042078.6644   24042091.7714
        -0.000          -0.000
 99  4 12  0 59 30.0000000  0  7  6 22 21 26 17 23 30                0.000000045
 -18724480.468 9 -14196687.90949  20403383.824    20403383.8214   20403391.5934
        -0.000          -0.000
  -8827212.198 9  -6861984.78446  23356324.180    23356323.5344   23356333.2304
        -0.000          -0.000
  -5409871.255 9  -3943217.21446  24454993.307    24454992.6414   24455007.3494
        -0.000          -0.000
  -6284340.880 9  -4856307.67147  21848459.697    21848459.9964   21848468.7094
        -0.000          -0.000
 -23634224.529 9 -18377090.71548  21112924.262    21112923.8074   21112932.4544
        -0.000          -0.000
 -20295559.076 9 -15789714.56048  21316154.395    21316153.9644   21316162.7504
        -0.000          -0.000
  -5516115.589 9  -4007625.99646  24061458.363    24061458.5484   24061471.2944
        -0.000          -0.000
 99  4 12  1  0  0.0000000  0  7  6 22 21 26 17 23 30                0.000000039
 -18695352.169 9 -14173990.53749  20408926.866    20408926.8444   20408934.5594
        -0.000          -0.000
  -8839243.970 9  -6871360.16746  23354034.313    23354033.8194   23354043.5314
        -0.000          -0.000
  -5499224.762 9  -4012843.05046  24437989.848    24437989.2424   24438003.7404
        -0.000          -0.000
  -6306513.527 9  -4873585.01448  21844240.470    21844240.6874   21844249.3844
        -0.000          -0.000
 -23658784.547 9 -18396228.36548  21108250.604    21108250.1724   21108258.7214
        -0.000          -0.000
 -20346620.903 9 -15829502.92548  21306437.562    21306437.1604   21306446.0014
        -0.000          -0.000
  -5414318.037 9  -3928303.46946  24080830.300    24080830.2484   24080842.8644
        -0.000          -0.000
 99  4 12  1  0 30.0000000  0  7  6 22 21 26 17 23 30                0.000000030
 -18665748.141 9 -14150922.48049  20414560.348    20414560.3644   20414568.1484
        -0.000          -0.000
  -8850763.647 9  -6880336.49746  23351842.085    23351841.5784   23351851.1784
        -0.000          -0.000
  -5588425.003 9  -4082349.45446  24421015.319    24421014.7334   24421029.0774
        -0.000          -0.000
  -6328142.942 9  -4890439.05447  21840124.359    21840124.6164   21840133.4124
        -0.000          -0.000
 -23683210.092 9 -18415261.21348  21103602.712    21103602.2304   21103610.5494
        -0.000          -0.000
 -20397306.106 9 -15868997.81148  21296792.440    21296792.0484   21296800.9294
        -0.000          -0.000
  -5312548.177 9  -3849002.53146  24100196.603    24100196.5814   24100209.1824
        -0.000          -0.000
 99  4 12  1  1  0.0000000  0  7  6 22 21 26 17 23 30                0.000000024
 -18635647.211 9 -14127467.22549  20420288.390    20420288.3794   20420296.2384
        -0.000          -0.000
  -8861744.444 9  -6888892.92946  23349752.102    23349751.8134   23349761.5354
        -0.000          -0.000
  -5677463.685 8  -4151729.95345  24404071.499    24404071.0144   24404085.0634
        -0.000          -0.000
  -6349220.408 9  -4906862.99447  21836113.391    21836113.6434   21836122.4784
        -0.000          -0.000
 -23707472.679 9 -18434167.09048  21098985.840    21098985.3064   21098993.4754
        -0.000          -0.000
 -20447587.536 9 -15908178.06848  21287224.276    21287223.8414   21287232.6764
        -0.000          -0.000
  -5210783.752 9  -3769705.84946  24119561.519    24119561.5664   24119574.6344
        -0.000          -0.000
 99  4 12  1  1 30.0000000  0  7  6 22 21 26 17 23 30                0.000000018
 -18605053.750 9 -14103628.17149  20426110.104    20426110.0984   20426117.9334
        -0.000          -0.000
  -8872186.191 9  -6897029.34646  23347765.092    23347764.7294   23347774.2794
        -0.000          -0.000
  -5766354.904 9  -4220995.50345  24387155.652    24387155.0254   24387169.3404
        -0.000          -0.000
  -6369749.458 9  -4922859.56547  21832206.831    21832207.0774   21832215.8324
        -0.000          -0.000
 -23731580.773 9 -18452952.59348  21094398.069    21094397.5934   21094405.8314
        -0.000          -0.000
 -20497462.852 9 -15947041.85448  21277733.410    21277732.8624   21277741.6964
        -0.000          -0.000
  -5109030.639 8  -3690417.98345  24138924.015    24138924.3704   24138938.0144
        -0.000          -0.000
 99  4 12  1  2  0.0000000  0  7  6 22 21 26 17 23 30                0.000000021
 -18573937.278 9 -14079381.58649  20432031.381    20432031.3294   20432039.0964
        -0.000          -0.000
  -8882073.656 9  -6904733.87046  23345883.591    23345883.1914   23345892.4214
        -0.000          -0.000
  -5855072.447 9  -4290125.73045  24370272.915    24370272.1524   24370286.4644
        -0.000          -0.000
  -6389704.793 9  -4938409.11347  21828409.481    21828409.7174   21828418.3794
        -0.000          -0.000
 -23755530.444 9 -18471614.65348  21089840.497    21089840.1274   21089848.3934
        -0.000          -0.000
 -20546904.990 9 -15985568.11748  21268324.716    21268324.1664   21268333.0534
        -0.000          -0.000
  -5007269.883 8  -3611124.13445  24158288.216    24158288.6754   24158302.7354
        -0.000          -0.000
 99  4 12  1  2 30.0000000  0  7  6 22 21 26 17 23 30                0.000000032
 -18542306.948 9 -14054734.58849  20438050.300    20438050.2924   20438058.0324
        -0.000          -0.000
  -8891424.661 9  -6912020.33746  23344104.139    23344103.7444   23344112.7164
        -0.000          -0.000
  -5943611.744 9  -4359117.06245  24353423.801    24353423.2274   24353437.6494
        -0.000          -0.000
  -6409073.738 9  -4953501.71947  21824723.714    21824723.9184   21824732.4994
        -0.000          -0.000
 -23779307.958 9 -18490142.54948  21085315.815    21085315.3804   21085323.6624
        -0.000          -0.000
 -20595910.915 9 -16023754.47248  21258999.001    21258998.4924   21259007.3874
        -0.000          -0.000
  -4905507.315 8  -3531828.89745  24177652.969    24177653.4084   24177667.9094
        -0.000          -0.000
 99  4 12  1  3  0.0000000  0  7  6 22 21 26 17 23 30                0.000000027
 -18510188.203 9 -14029707.01449  20444162.295    20444162.2814   20444169.9414
        -0.000          -0.000
  -8900288.336 9  -6918927.07746  23342417.603    23342417.3504   23342426.0354
        -0.000          -0.000
  -6031996.634 9  -4427988.09646  24336604.516    24336603.8704   24336618.5174
        -0.000          -0.000
  -6427863.613 9  -4968143.12747  21821147.943    21821148.1444   21821156.8934
        -0.000          -0.000
 -23802924.219 9 -18508544.79548  21080821.717    21080821.3414   21080829.5784
        -0.000          -0.000
 -20644500.534 9 -16061616.42548  21249752.705    21249752.1434   21249761.0264
        -0.000          -0.000
  -4803796.669 8  -3452574.14145  24197008.340    24197008.4114   24197023.2044
        -0.000          -0.000
 99  4 12  1  3 30.0000000  0  7  6 22 21 26 17 23 30                0.000000030
 -18477542.155 9 -14004268.55449  20450374.680    20450374.6504   20450382.2334
        -0.000          -0.000
  -8908634.042 9  -6925430.21546  23340829.561    23340829.2704   23340838.1034
        -0.000          -0.000
  -6120163.491 9  -4496689.24446  24319826.941    24319826.3844   24319841.0404
        -0.000          -0.000
  -6446028.645 9  -4982297.63947  21817691.051    21817691.3574   21817700.2204
        -0.000          -0.000
 -23826348.385 9 -18526797.35949  21076364.314    21076363.8574   21076372.0554
        -0.000          -0.000
 -20692637.697 9 -16099125.82448  21240592.238    21240591.7954   21240600.7654
        -0.000          -0.000
  -4702116.972 8  -3373343.49445  24216357.214    24216357.0064   24216372.7264
        -0.000          -0.000
 99  4 12  1  4  0.0000000  0  7  6 22 21 26 17 23 30                0.000000014
 -18444424.620 9 -13978462.70349  20456676.824    20456676.7774   20456684.3184
        -0.000          -0.000
  -8916503.364 9  -6931562.13446  23339331.390    23339331.4284   23339340.8994
        -0.000          -0.000
  -6208134.971 9  -4565238.13846  24303086.171    24303085.7344   24303100.4004
        -0.000          -0.000
  -6463616.940 9  -4996002.76347  21814344.057    21814344.3644   21814353.2194
        -0.000          -0.000
 -23849613.551 9 -18544926.03448  21071937.106    21071936.6124   21071944.8054
        -0.000          -0.000
 -20740357.220 9 -16136309.79548  21231511.430    21231510.9914   21231519.8994
        -0.000          -0.000
  -4600506.950 8  -3294167.18145  24235692.821    24235692.8094   24235709.0284
        -0.000          -0.000
 99  4 12  1  4 30.0000000  0  7  6 22 21 26 17 23 30                0.000000012
 -18410803.512 9 -13952264.44649  20463074.726    20463074.6784   20463082.2704
        -0.000          -0.000
  -8923851.318 8  -6937287.78746  23337932.665    23337932.7874   23337942.9024
        -0.000          -0.000
  -6295876.349 9  -4633607.71846  24286389.424    24286388.8434   24286403.5834
        -0.000          -0.000
  -6480595.890 9  -5009233.04647  21811112.961    21811113.2704   21811122.2004
        -0.000          -0.000
 -23872679.223 9 -18562899.25548  21067547.826    21067547.2714   21067555.4654
        -0.000          -0.000
 -20787632.110 9 -16173147.29948  21222515.195    21222514.8484   21222523.6404
        -0.000          -0.000
  -4498930.376 9  -3215016.87746  24255022.277    24255022.4774   24255038.8564
        -0.000          -0.000
 99  4 12  1  5  0.0000000  0  7  6 22 21 26 17 23 30               -0.000000001
 -18376714.991 9 -13925701.97649  20469561.529    20469561.5174   20469569.1924
        -0.000          -0.000
  -8930708.113 8  -6942630.74046  23336627.536    23336627.6894   23336638.0374
        -0.000          -0.000
  -6383432.200 8  -4701832.76046  24269727.526    24269727.1194   24269742.0104
        -0.000          -0.000
  -6497010.754 9  -5022023.78247  21807989.218    21807989.5134   21807998.4594
        -0.000          -0.000
 -23895603.720 9 -18580762.47948  21063185.460    21063184.9004   21063193.0404
        -0.000          -0.000
 -20834514.354 9 -16209678.82948  21213593.881    21213593.4654   21213602.1714
        -0.000          -0.000
  -4397430.781 9  -3135926.54346  24274337.121    24274337.4754   24274353.9194
        -0.000          -0.000
 99  4 12  1  5 30.0000000  0  7  6 22 21 26 17 23 30                0.000000003
 -18342146.335 9 -13898765.39149  20476139.767    20476139.7634   20476147.3904
        -0.000          -0.000
  -8937046.982 9  -6947570.11246  23335421.142    23335421.4144   23335431.6604
        -0.000          -0.000
  -6470801.465 8  -4769912.41646  24253101.050    24253100.9084   24253115.9264
        -0.000          -0.000
  -6512850.088 9  -5034366.06548  21804975.225    21804975.5394   21804984.2154
        -0.000          -0.000
 -23918390.964 9 -18598518.73849  21058849.443    21058848.8024   21058856.8144
        -0.000          -0.000
 -20881008.997 9 -16245908.34248  21204746.124    21204745.7304   21204754.4254
        -0.000          -0.000
  -4295968.593 8  -3056865.37946  24293644.817    24293645.3194   24293661.8234
        -0.000          -0.000
 99  4 12  1  6  0.0000000  0  7  6 22 21 26 17 23 30                0.000000019
 -18307122.258 9 -13871473.93549  20482804.641    20482804.6204   20482812.2514
        -0.000          -0.000
  -8942886.791 9  -6952120.59246  23334309.946    23334310.1634   23334320.1094
        -0.000          -0.000
  -6558031.139 9  -4837883.26946  24236501.721    24236501.4694   24236516.2074
        -0.000          -0.000
  -6528128.891 9  -5046271.57247  21802067.706    21802068.0034   21802076.6324
        -0.000          -0.000
 -23941064.733 9 -18616186.59349  21054534.762    21054534.0804   21054542.1824
        -0.000          -0.000
 -20927150.064 9 -16281862.33848  21195965.574    21195965.2694   21195974.0264
        -0.000          -0.000
  -4194554.270 9  -2977841.54046  24312943.436    24312944.0284   24312960.5284
        -0.000          -0.000
 99  4 12  1  6 30.0000000  0  7  6 22 21 26 17 23 30                0.000000031
 -18271647.740 9 -13843831.47449  20489555.240    20489555.2364   20489562.9244
        -0.000          -0.000
  -8948254.068 9  -6956302.87946  23333288.926    23333289.0704   23333298.6444
        -0.000          -0.000
  -6645153.247 8  -4905770.32145  24219922.883    24219922.3684   24219936.8784
        -0.000          -0.000
  -6542854.241 9  -5057745.79547  21799265.523    21799265.7934   21799274.3794
        -0.000          -0.000
 -23963655.403 9 -18633789.69448  21050235.787    21050235.2054   21050243.2494
        -0.000          -0.000
 -20972963.457 9 -16317561.00548  21187247.455    21187247.1344   21187256.0374
        -0.000          -0.000
  -4093223.512 9  -2898882.79946  24332226.627    24332227.0084   24332243.2534
        -0.000          -0.000
 99  4 12  1  7  0.0000000  0  7  6 22 21 26 17 23 30                0.000000060
 -18235667.359 9 -13815794.82649  20496402.016    20496402.0164   20496409.8014
        -0.000          -0.000
  -8953095.374 9  -6960075.31646  23332367.864    23332367.8884   23332377.3574
        -0.000          -0.000
  -6732108.599 9  -4973527.45445  24203375.337    24203375.0234   24203389.2824
        -0.000          -0.000
  -6556981.309 9  -5068753.81947  21796577.126    21796577.4244   21796585.9974
        -0.000          -0.000
 -23986105.475 9 -18651283.23348  21045963.764    21045963.1134   21045970.9924
        -0.000          -0.000
 -21018387.281 9 -16352956.12448  21178603.484    21178603.1984   21178612.1384
        -0.000          -0.000
  -3991939.589 9  -2819960.55546  24351500.969    24351501.2264   24351517.2564
        -0.000          -0.000
 99  4 12  1  7 30.0000000  0  7  6 22 21 26 17 23 30                0.000000077
 -18199222.004 9 -13787395.86549  20503337.283    20503337.3354   20503345.2264
        -0.000          -0.000
  -8957446.524 9  -6963465.81146  23331540.094    23331540.0104   23331549.4154
        -0.000          -0.000
  -6818918.132 9  -5041170.96745  24186855.626    24186855.4184   24186869.5654
        -0.000          -0.000
  -6570553.861 9  -5079329.77947  21793994.447    21793994.6424   21794003.0704
        -0.000          -0.000
 -24008439.883 9 -18668686.64148  21041713.660    21041713.0654   21041720.7584
        -0.000          -0.000
 -21063441.514 9 -16388063.24148  21170030.009    21170029.6244   21170038.4984
        -0.000          -0.000
  -3890741.127 9  -2741104.92446  24370758.562    24370758.8944   24370774.6684
        -0.000          -0.000
 99  4 12  1  8  0.0000000  0  7  6 22 21 26 17 23 30                0.000000071
 -18162293.552 9 -13758620.47349  20510364.671    20510364.6604   20510372.5584
        -0.000          -0.000
  -8961293.736 9  -6966463.63746  23330808.373    23330808.2164   23330817.3784
        -0.000          -0.000
  -6905547.916 9  -5108674.41046  24170370.644    24170370.3414   24170384.0424
        -0.000          -0.000
  -6583563.573 9  -5089467.17247  21791518.852    21791519.0454   21791527.3434
        -0.000          -0.000
 -24030628.898 9 -18685976.75048  21037491.348    21037490.6784   21037498.2704
        -0.000          -0.000
 -21108080.975 9 -16422847.16648  21161535.331    21161534.9944   21161543.7644
        -0.000          -0.000
  -3789637.073 9  -2662322.84446  24389998.326    24389998.6554   24390014.2644
        -0.000          -0.000
 99  4 12  1  8 30.0000000  0  7  6 22 21 26 17 23 30                0.000000064
 -18124822.359 9 -13729422.15849  20517495.247    20517495.2244   20517503.1184
        -0.000          -0.000
  -8964582.607 9  -6969026.38946  23330182.827    23330182.6104   23330191.5824
        -0.000          -0.000
  -6991931.453 9  -5175986.02246  24153932.268    24153931.9324   24153945.5544
        -0.000          -0.000
  -6595972.911 9  -5099136.72447  21789157.412    21789157.5404   21789165.9874
        -0.000          -0.000
 -24052613.061 9 -18703107.24848  21033307.773    21033307.1244   21033314.7434
        -0.000          -0.000
 -21152244.354 9 -16457260.11749  21153131.401    21153131.0224   21153139.6944
        -0.000          -0.000
  -3688583.188 9  -2583579.88345  24409228.674    24409229.0114   24409244.3914
        -0.000          -0.000
 99  4 12  1  9  0.0000000  0  7  6 22 21 26 17 23 30                0.000000042
 -18086853.321 9 -13699835.91549  20524720.505    20524720.4824   20524728.3844
        -0.000          -0.000
  -8967334.954 9  -6971171.06146  23329659.464    23329659.1234   23329667.9354
        -0.000          -0.000
  -7078102.411 9  -5243131.92046  24137533.950    24137533.8934   24137547.5564
        -0.000          -0.000
  -6607821.544 9  -5108369.38747  21786902.618    21786902.7614   21786911.3444
        -0.000          -0.000
 -24074411.793 9 -18720093.24748  21029159.622    21029158.9964   21029166.5934
        -0.000          -0.000
 -21195966.139 9 -16491328.97149  21144811.269    21144810.9524   21144819.6944
        -0.000          -0.000
  -3587602.808 9  -2504894.17245  24428445.266    24428445.4984   24428460.5374
        -0.000          -0.000
 99  4 12  1  9 30.0000000  0  7  6 22 21 26 17 23 30                0.000000012
 -18048381.198 9 -13669857.66649  20532041.502    20532041.5034   20532049.3634
        -0.000          -0.000
  -8969552.261 9  -6972898.81046  23329237.673    23329237.1554   23329246.3654
        -0.000          -0.000
  -7164069.923 9  -5310119.35546  24121174.886    24121174.7284   24121188.2254
        -0.000          -0.000
  -6619088.298 9  -5117148.63347  21784758.656    21784758.8154   21784767.3734
        -0.000          -0.000
 -24096015.310 9 -18736927.13348  21025048.602    21025047.9224   21025055.5874
        -0.000          -0.000
 -21239234.138 9 -16525044.22749  21136577.681    21136577.3124   21136586.0574
        -0.000          -0.000
  -3486682.501 9  -2426255.28645  24447650.353    24447650.4534   24447665.2584
        -0.000          -0.000
 99  4 12  1 10  0.0000000  0  7  6 22 21 26 17 23 30               -0.000000014
 -18009376.183 9 -13639464.17249  20539464.051    20539464.0154   20539471.8124
        -0.000          -0.000
  -8971219.669 8  -6974198.11146  23328920.170    23328919.5864   23328929.1624
        -0.000          -0.000
  -7249828.019 9  -5376943.56246  24104856.038    24104855.6164   24104868.6734
        -0.000          -0.000
  -6629747.821 9  -5125454.69847  21782730.071    21782730.2504   21782738.8414
        -0.000          -0.000
 -24117391.301 9 -18753583.73148  21020980.705    21020980.0884   21020987.8674
        -0.000          -0.000
 -21282041.485 9 -16558400.54249  21128431.637    21128431.2624   21128439.9954
        -0.000          -0.000
  -3385806.243 8  -2347650.73845  24466846.720    24466846.8444   24466861.5234
        -0.000          -0.000
 99  4 12  1 10 30.0000000  0  7  6 22 21 26 17 23 30               -0.000000030
 -17969861.471 9 -13608673.51649  20546983.574    20546983.5394   20546991.1694
        -0.000          -0.000
  -8972359.045 8  -6975085.92746  23328702.956    23328702.4264   23328712.3764
        -0.000          -0.000
  -7335403.213 9  -5443625.27946  24088571.537    24088571.0304   24088584.0914
        -0.000          -0.000
  -6639801.854 9  -5133288.93847  21780816.694    21780816.8654   21780825.6234
        -0.000          -0.000
 -24138561.113 9 -18770079.65849  21016952.235    21016951.6374   21016959.4984
        -0.000          -0.000
 -21324417.974 9 -16591421.11449  21120367.517    21120367.1954   21120375.8834
        -0.000          -0.000
  -3284981.391 8  -2269086.27845  24486033.269    24486033.3014   24486048.3134
        -0.000          -0.000
 99  4 12  1 11  0.0000000  0  7  6 22 21 26 17 23 30               -0.000000027
 -17929842.363 9 -13577489.82549  20554599.043    20554598.9774   20554606.4564
        -0.000          -0.000
  -8972975.596 9  -6975566.38246  23328585.700    23328585.0864   23328594.9744
        -0.000          -0.000
  -7420786.520 9  -5510157.46846  24072323.462    24072323.1074   24072336.1434
        -0.000          -0.000
  -6649226.913 9  -5140633.08947  21779023.085    21779023.3164   21779031.9654
        -0.000          -0.000
 -24159522.549 9 -18786413.22449  21012963.393    21012962.7694   21012970.7434
        -0.000          -0.000
 -21366350.915 9 -16624096.07649  21112387.774    21112387.4694   21112396.2074
        -0.000          -0.000
  -3184203.777 8  -2190558.61845  24505210.892    24505210.9854   24505225.8194
        -0.000          -0.000
 99  4 12  1 11 30.0000000  0  7  6 22 21 26 17 23 30               -0.000000017
 -17889327.216 9 -13545919.60949  20562308.760    20562308.7204   20562316.1484
        -0.000          -0.000
  -8973102.355 9  -6975665.16746  23328562.026    23328561.2424   23328570.6544
        -0.000          -0.000
  -7505972.463 9  -5576535.88846  24056113.099    24056112.5704   24056125.8404
        -0.000          -0.000
  -6658027.605 9  -5147490.73347  21777348.435    21777348.6754   21777357.0804
        -0.000          -0.000
 -24180311.222 9 -18802612.16549  21009007.437    21009006.8174   21009014.8204
        -0.000          -0.000
 -21407851.782 9 -16656434.34149  21104490.368    21104490.0864   21104498.7224
        -0.000          -0.000
  -3083490.220 8  -2112080.86345  24524376.323    24524376.5564   24524391.2964
        -0.000          -0.000
 99  4 12  1 12  0.0000000  0  7  6 22 21 26 17 23 30               -0.000000004
 -17848341.989 9 -13513983.10449  20570107.982    20570107.9314   20570115.4134
        -0.000          -0.000
  -8972757.270 9  -6975396.28246  23328628.477    23328627.5464   23328636.2484
        -0.000          -0.000
  -7590961.489 9  -5642760.87546  24039940.102    24039939.3974   24039952.8934
        -0.000          -0.000
  -6666218.553 9  -5153873.25447  21775789.695    21775789.9644   21775798.2904
        -0.000          -0.000
 -24200972.097 9 -18818711.51849  21005075.780    21005075.1794   21005083.2224
        -0.000          -0.000
 -21448948.598 9 -16688457.78449  21096669.784    21096669.5204   21096678.0134
        -0.000          -0.000
  -2982859.642 8  -2033667.79245  24543525.961    24543526.0414   24543540.6684
        -0.000          -0.000
 99  4 12  1 12 30.0000000  0  7  6 22 21 26 17 23 30                0.000000011
 -17806901.661 9 -13481691.95949  20577993.796    20577993.7614   20578001.3644
        -0.000          -0.000
  -8971947.118 9  -6974765.01446  23328783.065    23328782.0104   23328790.4564
        -0.000          -0.000
  -7675752.841 9  -5708831.77546  24023804.368    24023803.7674   24023817.3914
        -0.000          -0.000
  -6673798.832 9  -5159779.92347  21774347.081    21774347.3634   21774355.7444
        -0.000          -0.000
 -24221531.479 9 -18834731.78549  21001163.358    21001162.7684   21001170.9324
        -0.000          -0.000
 -21489650.114 9 -16720173.18349  21088924.447    21088924.2324   21088932.6834
        -0.000          -0.000
  -2882320.995 8  -1955326.37745  24562657.650    24562657.8054   24562672.7934
        -0.000          -0.000
 99  4 12  1 13  0.0000000  0  7  6 22 21 26 17 23 30                0.000000024
 -17765008.173 9 -13449047.69549  20585965.802    20585965.7734   20585973.5194
        -0.000          -0.000
  -8970670.063 9  -6973769.89046  23329026.100    23329025.1624   23329033.6764
        -0.000          -0.000
  -7760346.578 9  -5774748.73646  24007706.008    24007705.6824   24007719.4314
        -0.000          -0.000
  -6680786.359 9  -5165224.71948  21773017.387    21773017.6834   21773026.0944
        -0.000          -0.000
 -24241988.796 9 -18850672.51448  20997270.213    20997269.7134   20997278.0344
        -0.000          -0.000
 -21529967.676 9 -16751589.39949  21081252.356    21081252.0434   21081260.5924
        -0.000          -0.000
  -2781886.640 8  -1877066.15845  24581770.035    24581770.1144   24581784.9934
        -0.000          -0.000
 99  4 12  1 13 30.0000000  0  7  6 22 21 26 17 23 30                0.000000029
 -17722657.832 9 -13416047.46149  20594024.739    20594024.7634   20594032.5434
        -0.000          -0.000
  -8968920.771 9  -6972406.79646  23329359.155    23329358.1214   23329366.8874
        -0.000          -0.000
  -7844756.338 9  -5840522.34546  23991643.094    23991642.8814   23991656.4154
        -0.000          -0.000
  -6687195.838 9  -5170219.06448  21771797.721    21771797.9784   21771806.3704
        -0.000          -0.000
 -24262346.041 9 -18866535.27549  20993396.262    20993395.7954   20993404.2004
        -0.000          -0.000
 -21569907.041 9 -16782710.92749  21073652.196    21073651.9144   21073660.4724
        -0.000          -0.000
  -2681560.546 8  -1798890.32945  24600861.534    24600861.6984   24600876.6214
        -0.000          -0.000
 99  4 12  1 14  0.0000000  0  7  6 22 21 26 17 23 30                0.000000049
 -17679804.649 9 -13382655.39349  20602179.325    20602179.3884   20602187.2204
        -0.000          -0.000
  -8966635.295 9  -6970625.90646  23329794.127    23329793.1394   23329801.8874
        -0.000          -0.000
  -7928956.440 9  -5906132.56546  23975619.965    23975619.8344   23975633.3044
        -0.000          -0.000
  -6692996.995 9  -5174739.41248  21770693.814    21770694.0624   21770702.4794
        -0.000          -0.000
 -24282526.987 9 -18882260.66849  20989555.891    20989555.4034   20989564.0194
        -0.000          -0.000
 -21609421.258 9 -16813501.16549  21066132.919    21066132.5704   21066141.1754
        -0.000          -0.000
  -2581313.147 8  -1720775.82645  24619937.847    24619938.3314   24619953.3034
        -0.000          -0.000
 99  4 12  1 14 30.0000000  0  7  6 22 21 26 17 23 30                0.000000040
 -17636484.813 9 -13348899.70349  20610422.770    20610422.8614   20610430.8004
        -0.000          -0.000
  -8963855.698 9  -6968459.97646  23330322.859    23330321.8654   23330330.7414
        -0.000          -0.000
  -8013001.264 9  -5971621.79146  23959626.153    23959626.2484   23959639.9024
        -0.000          -0.000
  -6698256.489 9  -5178837.65348  21769692.942    21769693.1264   21769701.6284
        -0.000          -0.000
 -24302541.684 9 -18897856.51449  20985747.233    20985746.7104   20985755.3944
        -0.000          -0.000
 -21648547.703 9 -16843989.24949  21058687.233    21058686.9444   21058695.5954
        -0.000          -0.000
  -2481198.732 8  -1642764.95245  24638988.913    24638989.5424   24639004.6854
        -0.000          -0.000
 99  4 12  1 15  0.0000000  0  7  6 22 21 26 17 23 30                0.000000007
 -17592667.630 9 -13314756.47749  20618760.920    20618760.9694   20618768.9394
        -0.000          -0.000
  -8960561.972 9  -6965893.41646  23330949.339    23330948.4614   23330957.6804
        -0.000          -0.000
  -8096873.822 9  -6036976.80446  23943665.535    23943665.5754   23943679.5234
        -0.000          -0.000
  -6702948.590 9  -5182493.77947  21768799.857    21768800.1134   21768808.7204
        -0.000          -0.000
 -24322363.925 9 -18913302.38248  20981975.168    20981974.6024   20981983.1564
        -0.000          -0.000
 -21687240.718 9 -16874139.58849  21051324.290    21051323.9324   21051332.4704
        -0.000          -0.000
  -2381191.362 8  -1564837.50745  24658019.787    24658020.6074   24658035.9134
        -0.000          -0.000
 99  4 12  1 15 30.0000000  0  7  6 22 21 26 17 23 30               -0.000000000
 -17548274.176 9 -13280164.19249  20627208.753    20627208.8104   20627216.7684
        -0.000          -0.000
  -8956678.565 9  -6962867.40246  23331688.383    23331687.5194   23331696.9484
        -0.000          -0.000
  -8180495.394 9  -6102136.26746  23927752.643    23927752.6734   23927766.6544
        -0.000          -0.000
  -6706986.907 9  -5185640.45247  21768031.372    21768031.5754   21768040.0954
        -0.000          -0.000
 -24341933.098 9 -18928551.05448  20978251.103    20978250.6204   20978259.0574
        -0.000          -0.000
 -21725417.115 9 -16903887.37449  21044059.500    21044059.1614   21044067.6754
        -0.000          -0.000
  -2281217.834 8  -1486936.40345  24677044.331    24677045.2174   24677060.7394
        -0.000          -0.000
 99  4 12  1 16  0.0000000  0  7  6 22 21 26 17 23 30               -0.000000007
 -17503353.241 9 -13245160.89549  20635757.160    20635757.1324   20635764.9984
        -0.000          -0.000
  -8952261.186 9  -6959425.29146  23332528.891    23332528.0074   23332537.9884
        -0.000          -0.000
  -8263898.775 9  -6167125.68346  23911880.968    23911881.2394   23911895.1424
        -0.000          -0.000
  -6710408.308 9  -5188306.44547  21767380.246    21767380.4574   21767388.8574
        -0.000          -0.000
 -24361309.973 9 -18943649.89348  20974563.834    20974563.3724   20974571.7444
        -0.000          -0.000
 -21763134.802 9 -16933277.72249  21036882.125    21036881.8104   21036890.1914
        -0.000          -0.000
  -2181331.546 8  -1409103.26545  24696052.143    24696053.0284   24696069.0194
        -0.000          -0.000
 99  4 12  1 16 30.0000000  0  7  6 22 21 26 17 23 30                0.000000001
 -17457897.122 9 -13209740.56549  20644407.340    20644407.2744   20644415.0784
        -0.000          -0.000
  -8947320.370 9  -6955575.31146  23333469.121    23333468.1564   23333478.8254
        -0.000          -0.000
  -8347066.751 9  -6231931.66246  23896055.108    23896055.1154   23896068.1304
        -0.000          -0.000
  -6713185.724 9  -5190470.61947  21766851.692    21766851.9024   21766860.3974
        -0.000          -0.000
 -24380520.780 9 -18958619.31949  20970908.382    20970907.7734   20970915.9614
        -0.000          -0.000
 -21800404.727 9 -16962319.17249  21029789.805    21029789.4804   21029797.9534
        -0.000          -0.000
  -2081529.969 8  -1331336.14745  24715043.909    24715044.6704   24715061.0284
        -0.000          -0.000
 99  4 12  1 17  0.0000000  0  7  6 22 21 26 17 23 30                0.000000020
 -17411957.499 9 -13173943.50249  20653149.366    20653149.2924   20653157.2834
        -0.000          -0.000
  -8941893.217 9  -6951346.36246  23334502.192    23334501.0714   23334511.8944
        -0.000          -0.000
  -8430021.501 9  -6296571.50046  23880269.837    23880269.3744   23880281.8124
        -0.000          -0.000
  -6715334.201 9  -5192144.70848  21766442.849    21766443.0654   21766451.5934
        -0.000          -0.000
 -24399632.161 9 -18973511.27349  20967271.691    20967271.0304   20967279.2284
        -0.000          -0.000
 -21837286.630 9 -16991058.26049  21022771.172    21022770.9394   21022779.5754
        -0.000          -0.000
  -1981855.909 8  -1253668.43145  24734011.589    24734012.4284   24734028.9654
        -0.000          -0.000
 99  4 12  1 17 30.0000000  0  7  6 22 21 26 17 23 30                0.000000039
 -17365582.394 9 -13137807.07849  20661974.239    20661974.1634   20661982.2834
        -0.000          -0.000
  -8936006.933 9  -6946759.64446  23335622.233    23335621.2554   23335632.1244
        -0.000          -0.000
  -8512782.861 9  -6361060.63546  23864520.546    23864520.0884   23864532.6354
        -0.000          -0.000
  -6716895.538 9  -5193361.29148  21766145.792    21766146.0004   21766154.5434
        -0.000          -0.000
 -24418676.455 9 -18988350.95949  20963647.653    20963646.9994   20963655.2744
        -0.000          -0.000
 -21873839.733 9 -17019541.13749  21015815.318    21015815.0344   21015823.7274
        -0.000          -0.000
  -1882347.580 8  -1176129.83945  24752948.115    24752948.7694   24752964.9034
        -0.000          -0.000
 99  4 12  1 18  0.0000000  0  7  6 22 21 26 17 23 30                0.000000076
 -17318758.341 9 -13101320.83749  20670884.558    20670884.5344   20670892.7034
        -0.000          -0.000
  -8929649.920 9  -6941806.13546  23336832.127    23336831.1174   23336841.6814
        -0.000          -0.000
  -8595333.236 9  -6425385.40546  23848811.525    23848811.1224   23848823.6434
        -0.000          -0.000
  -6717844.493 9  -5194100.69348  21765965.243    21765965.3964   21765973.8764
        -0.000          -0.000
 -24437607.503 9 -19003102.40049  20960045.147    20960044.4934   20960052.7224
        -0.000          -0.000
 -21910043.964 9 -17047752.17349  21008925.793    21008925.5544   21008934.2724
        -0.000          -0.000
  -1782979.526 8  -1098700.57045  24771857.881    24771858.3494   24771874.5794
        -0.000          -0.000
 99  4 12  1 18 30.0000000  0  7  6 22 21 26 17 23 30                0.000000077
 -17271564.457 9 -13064546.41049  20679865.274    20679865.2074   20679873.3674
        -0.000          -0.000
  -8922894.450 9  -6936542.15146  23338117.576    23338116.5784   23338126.7094
        -0.000          -0.000
  -8677755.634 9  -6489610.44146  23833127.097    23833126.5804   23833139.1304
        -0.000          -0.000
  -6718264.799 9  -5194428.15147  21765885.100    21765885.3014   21765893.7794
        -0.000          -0.000
 -24456481.741 9 -19017809.56748  20956453.397    20956452.8104   20956460.9054
        -0.000          -0.000
 -21945963.282 9 -17075741.19449  21002090.656    21002090.3554   21002098.9164
        -0.000          -0.000
  -1683820.454 8  -1021434.14045  24790727.529    24790727.9154   24790744.1414
        -0.000          -0.000
 99  4 12  1 19  0.0000000  0  7  6 22 21 26 17 23 30                0.000000176
 -17223950.071 9 -13027444.32248  20688925.883    20688925.8354   20688934.0084
        -0.000          -0.000
  -8915675.677 9  -6930917.16146  23339490.868    23339490.0084   23339499.8874
        -0.000          -0.000
  -8759985.564 9  -6553685.53646  23817479.053    23817478.7134   23817491.3904
        -0.000          -0.000
  -6718117.394 9  -5194313.23447  21765913.097    21765913.2924   21765921.7634
        -0.000          -0.000
 -24475205.198 9 -19032399.23449  20952890.556    20952889.9464   20952897.8994
        -0.000          -0.000
 -21981515.306 9 -17103444.02149  20995325.474    20995325.1094   20995333.4894
        -0.000          -0.000
  -1584787.764 8   -944266.17445  24809573.225    24809573.5394   24809589.7324
        -0.000          -0.000
 99  4 12  1 19 30.0000000  0  7  6 22 21 26 17 23 30                0.000000149
 -17175952.316 9 -12990043.51148  20698059.529    20698059.4924   20698067.5674
        -0.000          -0.000
  -8908055.435 9  -6924979.32546  23340940.984    23340940.0044   23340949.9224
        -0.000          -0.000
  -8842105.694 9  -6617675.02546  23801851.953    23801851.6024   23801864.4634
        -0.000          -0.000
  -6717477.545 9  -5193814.61447  21766034.747    21766034.9584   21766043.5474
        -0.000          -0.000
 -24493805.804 9 -19046893.19048  20949350.864    20949350.2574   20949358.3404
        -0.000          -0.000
 -22016733.832 9 -17130886.97949  20988623.641    20988623.2294   20988631.5714
        -0.000          -0.000
  -1485932.637 8   -867236.57645  24828385.293    24828385.2864   24828401.3594
        -0.000          -0.000
 99  4 12  1 20  0.0000000  0  7  6 22 21 26 17 23 30                0.000000106
 -17127422.328 9 -12952227.95949  20707294.441    20707294.4384   20707302.5324
        -0.000          -0.000
  -8899897.659 9  -6918622.59146  23342493.177    23342492.2694   23342502.4384
        -0.000          -0.000
  -8923985.207 9  -6681477.08446  23786270.280    23786270.0704   23786283.3454
        -0.000          -0.000
  -6716219.616 9  -5192834.37347  21766274.030    21766274.2824   21766282.9054
        -0.000          -0.000
 -24512149.499 9 -19061186.94648  20945859.904    20945859.3644   20945867.5824
        -0.000          -0.000
 -22051478.706 9 -17157960.85849  20982011.802    20982011.4854   20982019.7134
        -0.000          -0.000
  -1387131.681 8   -790249.16745  24847187.039    24847186.7404   24847202.8904
        -0.000          -0.000
 99  4 12  1 20 30.0000000  0  7  6 22 21 26 17 23 30                0.000000085
 -17078308.777 9 -12913957.69649  20716640.501    20716640.4784   20716648.4574
        -0.000          -0.000
  -8891147.986 9  -6911804.69446  23344158.085    23344157.0974   23344167.3194
        -0.000          -0.000
  -9005564.697 9  -6745045.30446  23770745.552    23770745.4964   23770759.3554
        -0.000          -0.000
  -6714302.799 9  -5191340.69147  21766638.801    21766639.0004   21766647.5714
        -0.000          -0.000
 -24530211.460 9 -19075261.18048  20942422.749    20942422.2434   20942430.4754
        -0.000          -0.000
 -22085704.192 9 -17184630.01049  20975499.011    20975498.6354   20975506.5934
        -0.000          -0.000
  -1288348.646 8   -713275.71345  24865985.203    24865984.8564   24866001.0954
        -0.000          -0.000
 99  4 12  1 21  0.0000000  0  7  6 22 21 26 17 23 30                0.000000053
 -17028675.859 9 -12875282.73348  20726085.463    20726085.4094   20726093.2694
        -0.000          -0.000
  -8881866.614 9  -6904572.43346  23345924.233    23345923.2734   23345933.1244
        -0.000          -0.000
  -9086915.532 9  -6808435.40646  23755264.958    23755264.7824   23755278.8124
        -0.000          -0.000
  -6711789.651 9  -5189382.33947  21767116.931    21767117.1794   21767125.7014
        -0.000          -0.000
 -24548078.885 9 -19089183.82149  20939022.889    20939022.3164   20939030.4924
        -0.000          -0.000
 -22119483.759 9 -17210951.68849  20969070.850    20969070.4654   20969078.4534
        -0.000          -0.000
  -1189670.227 8   -636383.78445  24884763.433    24884763.1164   24884779.6744
        -0.000          -0.000
 99  4 12  1 21 30.0000000  0  7  6 22 21 26 17 23 30                0.000000024
 -16978532.287 9 -12836209.83848  20735627.585    20735627.5244   20735635.3074
        -0.000          -0.000
  -8872065.404 9  -6896935.13846  23347789.726    23347788.6914   23347797.9694
        -0.000          -0.000
  -9168063.106 9  -6871667.07746  23739823.203    23739823.0624   23739836.5854
        -0.000          -0.000
  -6708670.852 9  -5186952.05247  21767710.466    21767710.6974   21767719.0504
        -0.000          -0.000
 -24565802.523 9 -19102994.43049  20935650.142    20935649.5814   20935657.7584
        -0.000          -0.000
 -22152836.735 9 -17236940.97949  20962723.860    20962723.5194   20962731.5484
        -0.000          -0.000
  -1091133.266 8   -559602.11345  24903514.591    24903514.5054   24903531.0694
        -0.000          -0.000
 99  4 12  1 22  0.0000000  0  7  6 22 21 26 17 23 30                0.000000032
 -16927889.865 9 -12796748.23948  20745264.516    20745264.4724   20745272.2634
        -0.000          -0.000
  -8861740.311 9  -6888889.64746  23349754.796    23349753.6714   23349762.7594
        -0.000          -0.000
  -9248974.613 9  -6934714.83446  23724427.073    23724426.6114   23724439.2544
        -0.000          -0.000
  -6704925.234 9  -5184033.35947  21768423.325    21768423.5344   21768431.7004
        -0.000          -0.000
 -24583397.363 9 -19116704.66049  20932301.858    20932301.3594   20932309.4154
        -0.000          -0.000
 -22185768.120 9 -17262601.74549  20956457.296    20956456.9074   20956464.9474
        -0.000          -0.000
   -992734.694 8   -482928.29345  24922239.676    24922239.9804   24922256.1384
        -0.000          -0.000
 99  4 12  1 22 30.0000000  0  7  6 22 21 26 17 23 30                0.000000044
 -16876786.210 9 -12756927.24648  20754989.099    20754989.0904   20754996.9714
        -0.000          -0.000
  -8850939.545 9  -6880473.45246  23351810.060    23351808.9104   23351818.1874
        -0.000          -0.000
  -9329700.705 9  -6997618.10146  23709065.808    23709065.1664   23709077.2434
        -0.000          -0.000
  -6700569.215 9  -5180639.01447  21769252.210    21769252.4504   21769260.5854
        -0.000          -0.000
 -24600890.699 9 -19130335.79749  20928972.948    20928972.4244   20928980.4824
        -0.000          -0.000
 -22218299.964 9 -17287951.19249  20950266.732    20950266.3424   20950274.3744
        -0.000          -0.000
   -894494.231 8   -406377.65345  24940934.778    24940935.0994   24940950.8764
        -0.000          -0.000
 99  4 12  1 23  0.0000000  0  7  6 22 21 26 17 23 30                0.000000039
 -16825223.927 9 -12716748.87948  20764801.016    20764800.9974   20764809.0194
        -0.000          -0.000
  -8839671.341 9  -6871692.99146  23353953.777    23353952.8164   23353962.3054
        -0.000          -0.000
  -9410271.420 9  -7060400.30946  23693733.544    23693732.9314   23693744.8244
        -0.000          -0.000
  -6695608.080 9  -5176773.14747  21770196.240    21770196.4274   21770204.5374
        -0.000          -0.000
 -24618273.225 9 -19143880.60249  20925665.110    20925664.5944   20925672.7014
        -0.000          -0.000
 -22250430.365 9 -17312987.81949  20944152.435    20944152.1054   20944160.1964
        -0.000          -0.000
   -796413.927 8   -329951.84745  24959599.439    24959599.5084   24959615.1574
        -0.000          -0.000
 99  4 12  1 23 30.0000000  0  7  6 22 21 26 17 23 30                0.000000046
 -16773155.445 9 -12676176.07948  20774709.387    20774709.3984   20774717.3644
        -0.000          -0.000
  -8827901.172 9  -6862521.41946  23356193.251    23356192.4554   23356201.8434
        -0.000          -0.000
  -9490623.938 9  -7123012.49946  23678442.747    23678442.1674   23678453.9224
        -0.000          -0.000
  -6689989.128 9  -5172394.69947  21771265.442    21771265.6564   21771273.7474
        -0.000          -0.000
 -24635470.063 9 -19157280.72049  20922392.679    20922392.1794   20922400.2534
        -0.000          -0.000
 -22282106.832 9 -17337670.72049  20938124.498    20938124.1784   20938132.3684
        -0.000          -0.000
   -698436.394 8   -253606.11545  24978244.676    24978244.5914   24978260.0184
        -0.000          -0.000
 99  4 12  1 24  0.0000000  0  7  6 22 21 26 17 23 30                0.000000050
 -16720585.389 9 -12635212.43248  20784713.243    20784713.1834   20784721.1394
        -0.000          -0.000
  -8815641.521 9  -6852968.47146  23358526.276    23358525.5194   23358534.4294
        -0.000          -0.000
  -9570752.210 9  -7185449.94446  23663194.182    23663193.7924   23663205.7794
        -0.000          -0.000
  -6683725.001 9  -5167513.54247  21772457.369    21772457.5614   21772465.7814
        -0.000          -0.000
 -24652454.997 9 -19170515.71749  20919160.583    20919160.0474   20919168.0654
        -0.000          -0.000
 -22313333.885 9 -17362003.42349  20932182.178    20932181.8224   20932190.0414
        -0.000          -0.000
   -600563.231 8   -177341.68945  24996869.883    24996869.5854   24996885.3304
        -0.000          -0.000
 99  4 12  1 24 30.0000000  0  7  6 22 21 26 17 23 30                0.000000027
 -16667535.059 9 -12593874.54448  20794808.300    20794808.2644   20794816.2964
        -0.000          -0.000
  -8802922.240 9  -6843057.36646  23360946.499    23360945.8644   23360954.7954
        -0.000          -0.000
  -9650686.567 9  -7247736.28146  23647983.074    23647982.6524   23647994.4864
        -0.000          -0.000
  -6676841.860 9  -5162150.01547  21773767.058    21773767.2854   21773775.5214
        -0.000          -0.000
 -24669247.286 9 -19183600.60449  20915965.064    20915964.5594   20915972.5974
        -0.000          -0.000
 -22344130.804 9 -17386000.97349  20926321.641    20926321.2794   20926329.5634
        -0.000          -0.000
   -502829.395 8   -101185.81245  25015468.129    25015468.0434   25015483.4264
        -0.000          -0.000
 99  4 12  1 25  0.0000000  0  7  6 22 21 26 17 23 30                0.000000022
 -16613978.931 9 -12552142.54448  20804999.683    20804999.6594   20805007.6804
        -0.000          -0.000
  -8789704.116 8  -6832757.50246  23363461.248    23363460.8734   23363470.2774
        -0.000          -0.000
  -9730359.729 9  -7309819.09346  23632821.864    23632821.2494   23632832.8584
        -0.000          -0.000
  -6669306.611 9  -5156278.34647  21775200.913    21775201.1724   21775209.5184
        -0.000          -0.000
 -24685819.695 9 -19196514.14249  20912811.450    20912810.9824   20912818.9884
        -0.000          -0.000
 -22374478.928 9 -17409648.82049  20920546.491    20920546.1484   20920554.4854
        -0.000          -0.000
   -405221.113 8    -25127.77645  25034042.341    25034042.1444   25034057.4894
        -0.000          -0.000
 99  4 12  1 25 30.0000000  0  7  6 22 21 26 17 23 30                0.000000032
 -16559953.617 9 -12510044.92648  20815280.362    20815280.3614   20815288.3654
        -0.000          -0.000
  -8776023.210 8  -6822097.07646  23366063.927    23366063.8214   23366073.8114
        -0.000          -0.000
  -9809768.975 9  -7371696.27046  23617710.281    23617709.8714   23617721.6804
        -0.000          -0.000
  -6661151.144 9  -5149923.39147  21776752.888    21776753.1384   21776761.3864
        -0.000          -0.000
 -24702204.769 9 -19209281.72349  20909693.467    20909693.0114   20909700.9814
        -0.000          -0.000
 -22404421.082 9 -17432980.32849  20914848.621    20914848.2724   20914856.5604
        -0.000          -0.000
   -307770.231 8     50807.58445  25052586.208    25052586.2064   25052601.8744
        -0.000          -0.000
 99  4 12  1 26  0.0000000  0  7  6 22 21 26 17 23 30                0.000000060
 -16505459.436 9 -12467581.95248  20825650.295    20825650.3124   20825658.2874
        -0.000          -0.000
  -8761879.542 9  -6811076.01946  23368754.743    23368754.8494   23368765.5484
        -0.000          -0.000
  -9888913.867 9  -7433367.42446  23602649.196    23602648.7274   23602660.9074
        -0.000          -0.000
  -6652379.517 9  -5143088.34147  21778422.163    21778422.3924   21778430.4504
        -0.000          -0.000
 -24718414.425 9 -19221912.60549  20906608.997    20906608.4564   20906616.4314
        -0.000          -0.000
 -22433960.780 9 -17455998.22549  20909227.495    20909227.1134   20909235.2254
        -0.000          -0.000
   -210483.278 8    126615.20445  25071099.798    25071099.7184   25071115.3864
        -0.000          -0.000
 99  4 12  1 26 30.0000000  0  7  6 22 21 26 17 23 30                0.000000081
 -16450553.887 9 -12424798.44148  20836098.508    20836098.4994   20836106.4904
        -0.000          -0.000
  -8747316.299 8  -6799728.03346  23371525.826    23371526.0994   23371536.8574
        -0.000          -0.000
  -9967848.405 9  -7494874.66246  23587628.008    23587627.3874   23587640.0924
        -0.000          -0.000
  -6643048.313 9  -5135817.24347  21780197.673    21780197.9234   21780205.9254
        -0.000          -0.000
 -24734512.385 9 -19234456.46049  20903545.763    20903545.1674   20903553.1854
        -0.000          -0.000
 -22463161.880 9 -17478752.28649  20903670.868    20903670.4504   20903678.3344
        -0.000          -0.000
   -113420.880 8    202247.81545  25089570.350    25089570.1824   25089585.9824
        -0.000          -0.000
 99  4 12  1 27  0.0000000  0  7  6 22 21 26 17 23 30                0.000000091
 -16395234.707 9 -12381692.64048  20846625.491    20846625.4514   20846633.4574
        -0.000          -0.000
  -8732330.454 8  -6788050.78146  23374377.588    23374377.8454   23374388.3824
        -0.000          -0.000
 -10046578.492 9  -7556222.62046  23572645.709    23572645.2274   23572657.9924
        -0.000          -0.000
  -6633168.172 9  -5128118.41347  21782077.735    21782078.0214   21782085.9804
        -0.000          -0.000
 -24750490.661 9 -19246907.05249  20900505.167    20900504.5624   20900512.5544
        -0.000          -0.000
 -22492033.796 9 -17501249.83649  20898176.729    20898176.2644   20898184.0574
        -0.000          -0.000
    -16580.297 8    277707.61145  25107998.895    25107998.5204   25108014.5384
        -0.000          -0.000
 99  4 12  1 27 30.0000000  0  7  6 22 21 26 17 23 30                0.000000096
 -16339466.301 9 -12338236.77848  20857238.014    20857237.9744   20857245.8614
        -0.000          -0.000
  -8716889.158 8  -6776018.61646  23377315.922    23377316.1614   23377326.5204
        -0.000          -0.000
 -10125096.565 9  -7617405.38246  23557703.971    23557703.6414   23557716.1494
        -0.000          -0.000
  -6622712.439 9  -5119971.06247  21784067.536    21784067.7844   21784075.7114
        -0.000          -0.000
 -24766312.639 9 -19259235.84149  20897494.314    20897493.7164   20897501.5784
        -0.000          -0.000
 -22520540.321 9 -17523462.66349  20892752.000    20892751.5404   20892759.3784
        -0.000          -0.000
     80078.936 8    353026.10845  25126393.161    25126392.7384   25126408.6724
        -0.000          -0.000
 99  4 12  1 28  0.0000000  0  7  6 22 21 26 17 23 30                0.000000099
 -16283218.041 9 -12294407.00648  20867941.864    20867941.8144   20867949.5214
        -0.000          -0.000
  -8700959.500 8  -6763605.90646  23380347.599    23380347.4624   23380357.8674
        -0.000          -0.000
 -10203405.432 9  -7678425.12846  23542802.376    23542802.0264   23542814.1464
        -0.000          -0.000
  -6611651.269 9  -5111351.91847  21786172.347    21786172.5774   21786180.6144
        -0.000          -0.000
 -24781956.913 9 -19271426.17249  20894517.170    20894516.6474   20894524.5144
        -0.000          -0.000
 -22548645.525 9 -17545362.78049  20887403.542    20887403.1624   20887411.0434
        -0.000          -0.000
    176579.976 8    428221.35145  25144756.954    25144756.7084   25144772.7824
        -0.000          -0.000
 99  4 12  1 28 30.0000000  0  7  6 22 21 26 17 23 30                0.000000092
 -16226501.843 9 -12250212.60448  20878734.695    20878734.6134   20878742.3134
        -0.000          -0.000
  -8684551.859 9  -6750820.74946  23383470.041    23383469.7614   23383480.3554
        -0.000          -0.000
 -10281523.271 9  -7739295.99046  23527937.573    23527937.1284   23527948.5264
        -0.000          -0.000
  -6600002.758 9  -5102275.10547  21788388.841    21788389.0924   21788397.1964
        -0.000          -0.000
 -24797449.341 9 -19283498.18149  20891569.076    20891568.5284   20891576.4324
        -0.000          -0.000
 -22576362.353 9 -17566960.25849  20882129.191    20882128.7834   20882136.6994
        -0.000          -0.000
    272913.737 8    503286.27745  25163088.591    25163088.5844   25163104.6064
        -0.000          -0.000
 99  4 12  1 29  0.0000000  0  7  6 22 21 26 17 23 30                0.000000078
 -16169295.027 9 -12205635.91148  20889620.787    20889620.7464   20889628.5314
        -0.000          -0.000
  -8667658.367 9  -6737656.99746  23386685.080    23386684.7144   23386695.3374
        -0.000          -0.000
 -10359432.545 9  -7800004.33946  23513112.067    23513111.4424   23513122.5514
        -0.000          -0.000
  -6587741.888 9  -5092721.16248  21790721.968    21790722.2474   21790730.3254
        -0.000          -0.000
 -24812779.964 9 -19295444.11149  20888651.706    20888651.1484   20888659.0054
        -0.000          -0.000
 -22603658.323 9 -17588229.79949  20876934.950    20876934.5294   20876942.5124
        -0.000          -0.000
    369100.920 7    578236.94045  25181392.645    25181392.6454   25181408.7654
        -0.000          -0.000
 99  4 12  1 29 30.0000000  0  7  6 22 21 26 17 23 30                0.000000059
 -16111596.214 9 -12160675.85048  20900600.564    20900600.4754   20900608.3124
        -0.000          -0.000
  -8650280.730 9  -6724116.02646  23389992.549    23389992.1244   23390002.1604
        -0.000          -0.000
 -10437128.891 9  -7860546.77046  23498326.625    23498326.1784   23498337.2374
        -0.000          -0.000
  -6574862.874 9  -5082685.52648  21793172.859    21793173.0804   21793181.1724
        -0.000          -0.000
 -24827961.434 9 -19307273.80049  20885762.685    20885762.1584   20885769.9274
        -0.000          -0.000
 -22630516.168 9 -17609157.95649  20871824.027    20871823.5874   20871831.6724
        -0.000          -0.000
    465138.519 8    653071.05145  25199667.753    25199668.0144   25199684.7094
        -0.000          -0.000
 99  4 12  1 30  0.0000000  0  7  6 22 21 26 17 23 30                0.000000048
 -16053385.912 9 -12115317.21948  20911677.450    20911677.4274   20911685.3264
        -0.000          -0.000
  -8632400.348 9  -6710183.29246  23393395.877    23393395.3284   23393404.8254
        -0.000          -0.000
 -10514581.588 9  -7920899.33446  23483587.485    23483587.0024   23483598.3884
        -0.000          -0.000
  -6561341.454 9  -5072149.32347  21795745.789    21795746.0004   21795754.2124
        -0.000          -0.000
 -24842965.573 9 -19318965.31249  20882907.529    20882906.9544   20882914.7184
        -0.000          -0.000
 -22656912.831 9 -17629726.74749  20866800.869    20866800.4654   20866808.5654
        -0.000          -0.000
    561043.642 8    727801.94245  25217917.460    25217918.1184   25217935.1374
        -0.000          -0.000
 99  4 12  1 30 30.0000000  0  7  6 22 21 26 17 23 30                0.000000033
 -15994713.591 9 -12069598.55948  20922842.464    20922842.4484   20922850.3574
        -0.000          -0.000
  -8614066.081 8  -6695896.85646  23396885.037    23396884.5254   23396893.8464
        -0.000          -0.000
 -10591803.593 9  -7981072.15846  23468892.383    23468892.0054   23468903.6744
        -0.000          -0.000
  -6547215.490 9  -5061142.05447  21798433.835    21798434.0684   21798442.4424
        -0.000          -0.000
 -24857829.873 9 -19330547.86149  20880078.919    20880078.3234   20880086.2414
        -0.000          -0.000
 -22682896.242 9 -17649973.50649  20861856.373    20861855.9684   20861864.0504
        -0.000          -0.000
    656772.993 8    802395.90045  25236134.364    25236134.8874   25236152.1544
        -0.000          -0.000
 99  4 12  1 31  0.0000000  0  7  6 22 21 26 17 23 30                0.000000030
 -15935548.575 9 -12023495.99548  20934101.121    20934101.1034   20934109.1364
        -0.000          -0.000
  -8595247.057 8  -6681232.72046  23400465.825    23400465.3564   23400474.9334
        -0.000          -0.000
 -10668757.084 9  -8041035.75246  23454248.549    23454248.1934   23454259.9524
        -0.000          -0.000
  -6532450.541 9  -5049636.86747  21801243.509    21801243.7534   21801252.0764
        -0.000          -0.000
 -24872500.536 9 -19341979.52449  20877287.075    20877286.5354   20877294.5184
        -0.000          -0.000
 -22708431.530 9 -17669871.09849  20856997.074    20856996.7224   20857004.7484
        -0.000          -0.000
    752365.265 8    876883.01745  25254325.185    25254325.6544   25254343.1764
        -0.000          -0.000
 99  4 12  1 31 30.0000000  0  7  6 22 21 26 17 23 30                0.000000030
 -15875907.266 9 -11977022.28648  20945450.487    20945450.4964   20945458.5474
        -0.000          -0.000
  -8575952.317 8  -6666197.87246  23404137.061    23404136.6334   23404146.5014
        -0.000          -0.000
 -10745449.257 9  -8100795.73246  23439654.255    23439653.9764   23439665.8744
        -0.000          -0.000
  -6517062.735 9  -5037646.32847  21804171.819    21804172.0164   21804180.2914
        -0.000          -0.000
 -24886969.234 9 -19353253.79349  20874533.891    20874533.3114   20874541.1064
        -0.000          -0.000
 -22733532.723 9 -17689430.42349  20852220.502    20852220.1484   20852228.0884
        -0.000          -0.000
    847807.227 8    951253.05245  25272487.546    25272487.9704   25272505.6034
        -0.000          -0.000
 99  4 12  1 32  0.0000000  0  7  6 22 21 26 17 23 30                0.000000032
 -15815816.491 9 -11930198.34448  20956885.352    20956885.3604   20956893.5664
        -0.000          -0.000
  -8556206.359 8  -6650811.45346  23407894.577    23407894.2014   23407903.9974
        -0.000          -0.000
 -10821896.948 9  -8160365.20846  23425106.481    23425106.2974   23425118.2204
        -0.000          -0.000
  -6501068.702 9  -5025183.41047  21807215.378    21807215.5994   21807223.7324
        -0.000          -0.000
 -24901251.796 9 -19364383.04149  20871815.991    20871815.4034   20871823.1974
        -0.000          -0.000
 -22758237.262 9 -17708680.67749  20847519.343    20847518.9634   20847526.9254
        -0.000          -0.000
    943070.608 8   1025483.90245  25290615.897    25290616.4504   25290634.2914
        -0.000          -0.000
 99  4 12  1 32 30.0000000  0  7  6 22 21 26 17 23 30                0.000000023
 -15755295.717 9 -11883039.33648  20968402.022    20968402.0674   20968410.4464
        -0.000          -0.000
  -8536022.166 9  -6635083.51446  23411735.478    23411735.1634   23411744.7874
        -0.000          -0.000
 -10898123.190 9  -8219762.12246  23410600.920    23410600.8184   23410612.6834
        -0.000          -0.000
  -6484496.566 9  -5012270.02947  21810368.923    21810369.1064   21810377.2424
        -0.000          -0.000
 -24915384.331 9 -19375395.38949  20869126.619    20869126.0654   20869133.8974
        -0.000          -0.000
 -22782565.617 9 -17727637.79749  20842889.557    20842889.2294   20842897.2804
        -0.000          -0.000
   1038132.820 8   1099558.04345  25308706.140    25308706.5874   25308724.3324
        -0.000          -0.000
 99  4 12  1 33  0.0000000  0  7  6 22 21 26 17 23 30                0.000000021
 -15694293.537 9 -11835505.21248  20980010.381    20980010.3714   20980018.8694
        -0.000          -0.000
  -8515355.721 9  -6618979.82346  23415668.167    23415667.9304   23415677.4444
        -0.000          -0.000
 -10974109.252 9  -8278971.88446  23396141.353    23396141.2384   23396152.8664
        -0.000          -0.000
  -6467300.723 9  -4998870.65447  21813641.096    21813641.3014   21813649.5364
        -0.000          -0.000
 -24929324.194 9 -19386257.59049  20866474.025    20866473.4514   20866481.3664
        -0.000          -0.000
 -22806470.201 9 -17746264.70749  20838340.511    20838340.2474   20838348.2904
        -0.000          -0.000
   1133021.008 8   1173496.55045  25326762.794    25326763.3864   25326781.7014
        -0.000          -0.000
 99  4 12  1 33 30.0000000  0  7  6 22 21 26 17 23 30                0.000000028
 -15632829.657 9 -11787611.32248  20991706.587    20991706.6044   20991715.1124
        -0.000          -0.000
  -8494215.450 9  -6602506.89046  23419691.090    23419690.8154   23419700.2234
        -0.000          -0.000
 -11049880.151 9  -8338013.97646  23381722.633    23381722.4404   23381733.9444
        -0.000          -0.000
  -6449485.806 9  -4984988.85447  21817030.938    21817031.2044   21817039.6104
        -0.000          -0.000
 -24943098.742 9 -19396990.98849  20863852.729    20863852.1664   20863860.2374
        -0.000          -0.000
 -22829973.089 9 -17764578.60849  20833868.103    20833867.8234   20833875.8254
        -0.000          -0.000
   1227692.573 8   1247266.27645  25344778.563    25344778.9944   25344797.7294
        -0.000          -0.000
 99  4 12  1 34  0.0000000  0  7  6 22 21 26 17 23 30                0.000000055
 -15570892.014 9 -11739348.26648  21003493.011    21003493.0544   21003501.4964
        -0.000          -0.000
  -8472601.261 9  -6585664.70246  23423804.230    23423803.9684   23423813.0434
        -0.000          -0.000
 -11125436.891 9  -8396889.19346  23367344.580    23367344.3154   23367355.8114
        -0.000          -0.000
  -6431046.623 9  -4970620.62747  21820539.753    21820539.9854   21820548.4254
        -0.000          -0.000
 -24956715.339 9 -19407601.30649  20861261.464    20861260.9594   20861269.0924
        -0.000          -0.000
 -22853080.779 9 -17782584.55849  20829471.062    20829470.7074   20829478.6204
        -0.000          -0.000
   1322159.038 8   1320876.21245  25362754.923    25362755.6104   25362774.2614
        -0.000          -0.000
 99  4 12  1 34 30.0000000  0  8  3  6 22 21 26 17 23 30             0.000000070
  -1676010.137 8  -1287382.17845  24971524.321    24971525.0834   24971539.5444
        -0.000          -0.000
 -15508512.978 9 -11690741.26248  21015363.522    21015363.5264   21015371.9494
        -0.000          -0.000
  -8450541.739 9  -6568475.49346  23428002.338    23428002.0614   23428010.8904
        -0.000          -0.000
 -11200810.782 9  -8455621.95946  23353000.831    23353000.7354   23353012.5044
        -0.000          -0.000
  -6412019.645 9  -4955794.38948  21824160.484    21824160.7584   21824169.0594
        -0.000          -0.000
 -24970202.014 9 -19418110.36449  20858695.151    20858694.5864   20858702.5394
        -0.000          -0.000
 -22875806.935 9 -17800293.22149  20825146.450    20825146.0614   20825153.9924
        -0.000          -0.000
   1416402.859 8   1394312.64745  25380688.879    25380689.7534   25380708.3574
        -0.000          -0.000
 99  4 12  1 35  0.0000000  0  8  3  6 22 21 26 17 23 30             0.000000079
  -1780778.502 8  -1369019.76145  24951590.097    24951591.6434   24951602.2344
        -0.000          -0.000
 -15445693.726 9 -11641791.24748  21027317.791    21027317.7904   21027326.1744
        -0.000          -0.000
  -8428047.614 9  -6550947.63146  23432283.304    23432282.7784   23432291.4694
        -0.000          -0.000
 -11275984.896 9  -8514199.04446  23338695.424    23338695.3674   23338707.2924
        -0.000          -0.000
  -6392390.175 9  -4940498.65548  21827895.933    21827896.1724   21827904.4154
        -0.000          -0.000
 -24983543.154 9 -19428506.04649  20856156.355    20856155.7544   20856163.8334
        -0.000          -0.000
 -22898144.026 9 -17817698.70949  20820895.753    20820895.3744   20820903.3514
        -0.000          -0.000
   1510428.648 8   1467579.22145  25398581.914    25398582.5864   25398600.7204
        -0.000          -0.000
 99  4 12  1 35 30.0000000  0  8  3  6 22 21 26 17 23 30             0.000000081
  -1885503.863 8  -1450623.82145  24931662.891    24931662.3794   24931674.1414
        -0.000          -0.000
 -15382444.133 9 -11592505.90448  21039353.905    21039353.9084   21039362.1704
        -0.000          -0.000
  -8405119.110 9  -6533081.28746  23436646.541    23436645.9384   23436654.7394
        -0.000          -0.000
 -11350940.750 9  -8572606.05046  23324432.104    23324431.8124   23324443.5854
        -0.000          -0.000
  -6372167.366 9  -4924740.56948  21831744.156    21831744.3884   21831752.6034
        -0.000          -0.000
 -24996730.242 9 -19438781.69849  20853646.899    20853646.3514   20853654.5574
        -0.000          -0.000
 -22920099.033 9 -17834806.46649  20816717.798    20816717.4164   20816725.4204
        -0.000          -0.000
   1604255.766 8   1540690.98445  25416437.257    25416437.5254   25416455.6964
        -0.000          -0.000
 99  4 12  1 36  0.0000000  0  8  3  6 22 21 26 17 23 30             0.000000095
  -1990137.484 8  -1532156.35445  24911752.224    24911751.4734   24911763.0014
        -0.000          -0.000
 -15318721.046 9 -11542851.58948  21051480.157    21051480.1734   21051488.2964
        -0.000          -0.000
  -8381729.300 9  -6514855.49846  23441097.465    23441096.7074   23441105.6964
        -0.000          -0.000
 -11425624.771 9  -8630801.23946  23310220.357    23310219.9514   23310231.4514
        -0.000          -0.000
  -6351313.251 9  -4908490.57248  21835712.586    21835712.8114   21835720.9154
        -0.000          -0.000
 -25009713.690 9 -19448898.65049  20851176.264    20851175.7214   20851183.7864
        -0.000          -0.000
 -22941626.177 9 -17851580.82049  20812621.265    20812620.8534   20812628.8234
        -0.000          -0.000
   1697944.590 8   1613694.92145  25434265.886    25434266.1124   25434284.4944
        -0.000          -0.000
 99  4 12  1 36 30.0000000  0  8  3  6 22 21 26 17 23 30             0.000000098
  -2094724.525 8  -1613652.60845  24891849.639    24891849.0324   24891860.2994
        -0.000          -0.000
 -15254584.039 9 -11492874.73548  21063685.168    21063685.1244   21063693.1384
        -0.000          -0.000
  -8357919.623 9  -6496302.52946  23445627.883    23445627.2414   23445636.7434
        -0.000          -0.000
 -11500066.793 9  -8688807.86646  23296054.589    23296054.0074   23296065.3464
        -0.000          -0.000
  -6329865.138 9  -4891777.73647  21839794.027    21839794.2154   21839802.2074
        -0.000          -0.000
 -25022526.462 9 -19458882.59549  20848738.062    20848737.5004   20848745.4414
        -0.000          -0.000
 -22962764.603 9 -17868052.28849  20808598.521    20808598.1984   20808606.1934
        -0.000          -0.000
   1791434.880 8   1686544.23845  25452056.770    25452057.0874   25452075.4834
        -0.000          -0.000
 99  4 12  1 37  0.0000000  0  8  3  6 22 21 26 17 23 30             0.000000110
  -2199255.501 8  -1695105.21745  24871957.699    24871957.3224   24871968.0904
        -0.000          -0.000
 -15190003.865 9 -11442552.57348  21075974.356    21075974.3174   21075982.4574
        -0.000          -0.000
  -8333677.547 9  -6477412.65546  23450240.551    23450240.0674   23450249.7034
        -0.000          -0.000
 -11574245.334 9  -8746609.20146  23281938.687    23281938.1904   23281949.4974
        -0.000          -0.000
  -6307792.329 9  -4874578.12247  21843994.305    21843994.4384   21844002.5304
        -0.000          -0.000
 -25035138.225 9 -19468709.93849  20846338.102    20846337.5614   20846345.4924
        -0.000          -0.000
 -22983504.920 9 -17884213.53449  20804651.709    20804651.4304   20804659.3834
        -0.000          -0.000
   1884734.644 8   1759245.00345  25469811.278    25469811.3964   25469830.3044
        -0.000          -0.000
 99  4 12  1 37 30.0000000  0  8  3  6 22 21 26 17 23 30             0.000000112
  -2303743.650 8  -1776524.44545  24852074.232    24852073.7684   24852084.0914
        -0.000          -0.000
 -15124990.326 9 -11391892.71648  21088345.848    21088345.8324   21088354.1844
        -0.000          -0.000
  -8309022.874 9  -6458201.25946  23454931.885    23454931.5094   23454941.3354
        -0.000          -0.000
 -11648194.263 9  -8804231.61346  23267866.320    23267866.0524   23267877.2754
        -0.000          -0.000
  -6285123.247 9  -4856913.85947  21848307.955    21848308.1314   21848316.2384
        -0.000          -0.000
 -25047564.812 9 -19478392.97749  20843973.502    20843972.9084   20843980.7124
        -0.000          -0.000
 -23003877.600 9 -17900088.30949  20800775.015    20800774.7134   20800782.5524
        -0.000          -0.000
   1977820.101 8   1831778.79745  25487524.757    25487524.9634   25487544.3654
        -0.000          -0.000
 99  4 12  1 38  0.0000000  0  8  3  6 22 21 26 17 23 30             0.000000108
  -2408185.964 8  -1857907.91245  24832199.642    24832199.1154   24832209.1124
        -0.000          -0.000
 -15059533.085 9 -11340887.12948  21100801.778    21100801.7994   21100810.3784
        -0.000          -0.000
  -8283940.817 9  -6438656.83946  23459704.753    23459704.5244   23459714.3464
        -0.000          -0.000
 -11721911.958 9  -8861673.81846  23253837.990    23253837.8344   23253848.9534
        -0.000          -0.000
  -6261853.655 9  -4838781.67547  21852736.040    21852736.2454   21852744.3674
        -0.000          -0.000
 -25059799.970 9 -19487926.85049  20841645.251    20841644.6504   20841652.3724
        -0.000          -0.000
 -23023867.505 9 -17915664.81049  20796971.161    20796970.7874   20796978.5674
        -0.000          -0.000
   2070692.534 7   1904146.63445  25505197.481    25505198.2694   25505217.7144
        -0.000          -0.000
 99  4 12  1 38 30.0000000  0  8  3  6 22 21 26 17 23 30             0.000000083
  -2512604.654 8  -1939273.00245  24812329.334    24812329.1124   24812338.9254
        -0.000          -0.000
 -14993647.900 9 -11289548.06148  21113339.232    21113339.2304   21113347.9944
        -0.000          -0.000
  -8258436.991 9  -6418783.74146  23464558.288    23464557.9444   23464567.7024
        -0.000          -0.000
 -11795421.083 9  -8918953.52246  23239849.405    23239849.2984   23239860.3344
        -0.000          -0.000
  -6238006.729 9  -4820199.60447  21857274.082    21857274.2544   21857282.2744
        -0.000          -0.000
 -25071867.080 9 -19497329.78649  20839348.897    20839348.2894   20839356.1854
        -0.000          -0.000
 -23043480.115 9 -17930947.32349  20793238.998    20793238.5714   20793246.4074
        -0.000          -0.000
   2163326.70416   1976328.77254  25522825.281    25522825.6915          0.0005
        -0.000          -0.000
 99  4 12  1 39  0.0000000  0  7  3  6 22 21 26 17 23                0.000000067
  -2616933.515 8  -2020568.11245  24792476.213    24792475.9164   24792485.7434
        -0.000          -0.000
 -14927273.113 9 -11237827.50248  21125969.794    21125969.8154   21125978.7674
        -0.000          -0.000
  -8232457.741 9  -6398540.17946  23469502.340    23469501.7014   23469511.4174
        -0.000          -0.000
 -11868686.831 9  -8976043.56946  23225906.951    23225906.9114   23225917.9654
        -0.000          -0.000
  -6213541.994 9  -4801136.11148  21861929.574    21861929.7714   21861937.8284
        -0.000          -0.000
 -25083733.249 9 -19506576.13349  20837090.824    20837090.2334   20837098.2464
        -0.000          -0.000
 -23062670.352 9 -17945900.73149  20789587.043    20789586.6494   20789594.6834
        -0.000          -0.000
 99  4 12  1 39 30.0000000  0  7  3  6 22 21 26 17 23                0.000000058
  -2721154.645 8  -2101779.28545  24772643.604    24772642.9464   24772653.0244
        -0.000          -0.000
 -14860425.655 9 -11185738.62848  21138690.452    21138690.4494   21138699.5264
        -0.000          -0.000
  -8205993.179 8  -6377918.46946  23474538.807    23474537.9654   23474547.3424
        -0.000          -0.000
 -11941715.932 9  -9032949.22846  23212009.668    23212009.6014   23212020.6264
        -0.000          -0.000
  -6188475.148 9  -4781603.47348  21866699.608    21866699.8394   21866707.9714
        -0.000          -0.000
 -25095408.881 9 -19515674.01249  20834869.049    20834868.4614   20834876.3944
        -0.000          -0.000
 -23081443.534 9 -17960529.15249  20786014.666    20786014.3214   20786022.3444
        -0.000          -0.000
 99  4 12  1 40  0.0000000  0  7  3  6 22 21 26 17 23                0.000000045
  -2825278.556 9  -2182914.67945  24752829.367    24752828.8134   24752838.8084
        -0.000          -0.000
 -14793137.339 9 -11133306.23348  21151494.915    21151494.9454   21151504.0934
        -0.000          -0.000
  -8179059.410 8  -6356931.13445  23479664.445    23479663.3674   23479672.7784
        -0.000          -0.000
 -12014524.885 9  -9089683.37146  23198154.515    23198154.3624   23198165.1364
        -0.000          -0.000
  -6162820.152 9  -4761612.54348  21871581.572    21871581.7994   21871589.8764
        -0.000          -0.000
 -25106930.959 9 -19524652.22349  20832676.553    20832675.9484   20832683.6424
        -0.000          -0.000
 -23099801.181 9 -17974833.77449  20782521.471    20782521.0704   20782528.9394
        -0.000          -0.000
 99  4 12  1 40 30.0000000  0  7  3  6 22 21 26 17 23                0.000000055
  -2929254.547 9  -2263934.80845  24733043.501    24733042.9404   24733052.4754
        -0.000          -0.000
 -14725371.697 9 -11080501.87248  21164390.294    21164390.3284   21164399.4404
        -0.000          -0.000
  -8151638.590 8  -6335564.26445  23484881.932    23484881.2164   23484890.9184
        -0.000          -0.000
 -12087063.416 9  -9146206.79346  23184351.003    23184350.7984   23184361.2564
        -0.000          -0.000
  -6136540.084 9  -4741134.54848  21876582.349    21876582.6174   21876590.6824
        -0.000          -0.000
 -25118276.745 9 -19533493.06749  20830517.439    20830516.8244   20830524.4854
        -0.000          -0.000
 -23117717.433 9 -17988794.45349  20779111.984    20779111.6214   20779119.4654
        -0.000          -0.000
 99  4 12  1 41  0.0000000  0  7  3  6 22 21 26 17 23                0.000000050
  -3033142.445 9  -2344886.27045  24713274.140    24713273.7464   24713283.0064
        -0.000          -0.000
 -14657190.371 9 -11027373.62148  21177364.801    21177364.8264   21177373.9654
        -0.000          -0.000
  -8123817.440 9  -6313885.47045  23490175.761    23490175.3304   23490185.2604
        -0.000          -0.000
 -12159391.528 9  -9202566.24946  23170587.824    23170587.4964   23170597.4934
        -0.000          -0.000
  -6109701.610 9  -4720221.43147  21881689.402    21881689.6524   21881697.8684
        -0.000          -0.000
 -25129499.766 9 -19542238.26549  20828381.578    20828381.0424   20828388.7784
        -0.000          -0.000
 -23135276.497 9 -18002476.80249  20775770.473    20775770.1344   20775777.9904
        -0.000          -0.000
 99  4 12  1 41 30.0000000  0  7  3  6 22 21 26 17 23                0.000000072
  -3136874.503 9  -2425716.31345  24693534.668    24693534.3424   24693543.0264
        -0.000          -0.000
 -14588521.130 9 -10973865.17848  21190432.145    21190432.2094   21190441.3814
        -0.000          -0.000
  -8095532.996 9  -6291845.65645  23495558.314    23495557.7234   23495567.3004
        -0.000          -0.000
 -12231420.948 9  -9258692.97146  23156881.558    23156881.0044   23156890.5454
        -0.000          -0.000
  -6082229.404 9  -4698814.50947  21886917.028    21886917.2924   21886925.6534
        -0.000          -0.000
 -25140510.758 9 -19550818.23449  20826286.304    20826285.7824   20826293.4254
        -0.000          -0.000
 -23152403.337 9 -18015822.36349  20772511.201    20772510.8704   20772518.7644
        -0.000          -0.000
 99  4 12  1 42  0.0000000  0  7  3  6 22 21 26 17 23                0.000000085
  -3240540.402 8  -2506494.79945  24673807.775    24673807.4994   24673815.7074
        -0.000          -0.000
 -14519424.718 9 -10920023.86048  21203580.860    21203580.8774   21203590.0964
        -0.000          -0.000
  -8066871.689 9  -6269512.22445  23501012.818    23501012.0874   23501021.3234
        -0.000          -0.000
 -12303209.833 9  -9314632.22746  23143220.691    23143220.1724   23143229.4664
        -0.000          -0.000
  -6054182.294 9  -4676959.59248  21892254.275    21892254.5274   21892262.8504
        -0.000          -0.000
 -25151385.603 9 -19559292.11049  20824216.894    20824216.3354   20824223.9544
        -0.000          -0.000
 -23169174.444 9 -18028890.72949  20769319.731    20769319.4294   20769327.3364
        -0.000          -0.000
 99  4 12  1 42 30.0000000  0  7  3  6 22 21 26 17 23                0.000000085
  -3344176.618 8  -2587250.14345  24654086.165    24654085.9824   24654094.4734
        -0.000          -0.000
 -14449913.903 9 -10865859.63448  21216808.338    21216808.3594   21216817.5534
        -0.000          -0.000
  -8037854.832 9  -6246901.70445  23506534.993    23506534.2244   23506543.1994
        -0.000          -0.000
 -12374779.149 9  -9370400.41447  23129601.735    23129601.1214   23129610.1944
        -0.000          -0.000
  -6025574.929 9  -4654668.11347  21897698.197    21897698.3684   21897706.6324
        -0.000          -0.000
 -25162125.002 9 -19567660.46649  20822173.007    20822172.5404   20822180.1984
        -0.000          -0.000
 -23185629.135 9 -18041712.53849  20766188.577    20766188.1974   20766196.0564
        -0.000          -0.000
 99  4 12  1 43  0.0000000  0  7  3  6 22 21 26 17 23                0.000000148
  -3447778.827 8  -2667979.01245  24634371.085    24634371.0004   24634380.0614
        -0.000          -0.000
 -14379993.737 9 -10811376.43448  21230113.721    21230113.7084   21230122.8014
        -0.000          -0.000
  -8008462.630 9  -6223998.72445  23512128.233    23512127.4534   23512136.7414
        -0.000          -0.000
 -12446131.663 9  -9425999.62847  23116023.686    23116022.9714   23116032.2354
        -0.000          -0.000
  -5996395.226 9  -4631930.67447  21903251.169    21903251.3444   21903259.2284
        -0.000          -0.000
 -25172706.985 9 -19575906.14549  20820159.386    20820158.9244   20820166.4384
        -0.000          -0.000
 -23201754.063 9 -18054277.38949  20763120.085    20763119.7114   20763127.4884
        -0.000          -0.000
 99  4 12  1 43 30.0000000  0  7  3  6 22 21 26 17 23                0.000000123
  -3551372.779 8  -2748701.45945  24614657.507    24614657.2894   24614666.7924
        -0.000          -0.000
 -14309713.789 9 -10756612.87248  21243487.550    21243487.5794   21243496.6034
        -0.000          -0.000
  -7978700.654 8  -6200807.59945  23517791.398    23517790.8334   23517800.8354
        -0.000          -0.000
 -12517292.621 9  -9481449.59347  23102481.675    23102481.1364   23102490.8794
        -0.000          -0.000
  -5966677.729 9  -4608774.16847  21908906.398    21908906.5504   21908914.1604
        -0.000          -0.000
 -25183171.058 9 -19584059.94249  20818168.336    20818167.7424   20818175.1884
        -0.000          -0.000
 -23217561.874 9 -18066595.13749  20760111.994    20760111.6244   20760119.4104
        -0.000          -0.000
 99  4 12  1 44  0.0000000  0  7  3  6 22 21 26 17 23                0.000000101
  -3654870.334 8  -2829348.78345  24594962.408    24594962.2024   24594971.9804
        -0.000          -0.000
 -14238998.537 9 -10701510.11948  21256944.358    21256944.3534   21256953.1334
        -0.000          -0.000
  -7948486.280 8  -6177263.94245  23523540.964    23523540.2434   23523550.9084
        -0.000          -0.000
 -12588183.925 9  -9536689.47047  23088991.042    23088990.6454   23089000.7474
        -0.000          -0.000
  -5936338.177 9  -4585132.93747  21914679.719    21914679.8934   21914687.4954
        -0.000          -0.000
 -25193431.225 9 -19592054.86549  20816215.858    20816215.2544   20816222.7654
        -0.000          -0.000
 -23232951.858 9 -18078587.30449  20757183.426    20757183.0714   20757190.8504
        -0.000          -0.000
 99  4 12  1 44 30.0000000  0  7  3  6 22 21 26 17 23                0.000000084
  -3758233.039 8  -2909891.02145  24575292.907    24575292.5494   24575302.7014
        -0.000          -0.000
 -14167837.772 9 -10646060.22148  21270485.976    21270485.9294   21270494.4784
        -0.000          -0.000
  -7917797.880 8  -6153350.98645  23529380.346    23529379.7794   23529390.8374
        -0.000          -0.000
 -12658786.413 9  -9591704.29447  23075555.703    23075555.3254   23075565.4344
        -0.000          -0.000
  -5905363.277 9  -4560996.62047  21920573.745    21920573.9634   21920581.7894
        -0.000          -0.000
 -25203454.642 9 -19599865.30849  20814308.402    20814307.8454   20814315.4764
        -0.000          -0.000
 -23247891.252 9 -18090228.35849  20754340.542    20754340.1594   20754347.8964
        -0.000          -0.000
 99  4 12  1 45  0.0000000  0  7  3  6 22 21 26 17 23                0.000000067
  -3861456.484 9  -2990324.73745  24555649.670    24555649.5084   24555659.8084
        -0.000          -0.000
 -14096240.714 9 -10590270.35748  21284110.578    21284110.5074   21284118.9084
        -0.000          -0.000
  -7886647.617 9  -6129078.06545  23535307.973    23535307.4254   23535318.4114
        -0.000          -0.000
 -12729108.545 9  -9646500.63347  23062173.783    23062173.3704   23062183.5274
        -0.000          -0.000
  -5873774.799 9  -4536382.21147  21926584.768    21926584.9914   21926592.9004
        -0.000          -0.000
 -25213260.538 9 -19607506.25949  20812442.387    20812441.7974   20812449.5604
        -0.000          -0.000
 -23262381.215 9 -18101519.20649  20751582.977    20751582.6784   20751590.4884
        -0.000          -0.000
 99  4 12  1 45 30.0000000  0  7  3  6 22 21 26 17 23                0.000000040
  -3964566.486 8  -3070670.11445  24536028.373    24536028.0424   24536038.1634
        -0.000          -0.000
 -14024217.581 9 -10534148.49048  21297816.137    21297816.0794   21297824.5704
        -0.000          -0.000
  -7855083.975 9  -6104483.08645  23541314.695    23541314.0274   23541324.7134
        -0.000          -0.000
 -12799185.224 9  -9701105.71747  23048838.638    23048838.2714   23048848.3314
        -0.000          -0.000
  -5841591.355 9  -4511304.20247  21932709.133    21932709.3214   21932717.2364
        -0.000          -0.000
 -25222882.117 9 -19615003.57449  20810611.296    20810610.7544   20810618.6434
        -0.000          -0.000
 -23276452.921 9 -18112484.15349  20748905.240    20748904.9324   20748912.7314
        -0.000          -0.000
 99  4 12  1 46  0.0000000  0  7  3  6 22 21 26 17 23                0.000000024
  -4067557.225 9  -3150922.51845  24516429.565    24516429.3584   24516439.2004
        -0.000          -0.000
 -13951747.346 9 -10477678.21448  21311606.803    21311606.7724   21311615.3904
        -0.000          -0.000
  -7823122.859 9  -6079578.36845  23547397.053    23547396.2274   23547407.1164
        -0.000          -0.000
 -12869018.084 9  -9755520.84147  23035549.890    23035549.4714   23035559.4574
        -0.000          -0.000
  -5808788.528 9  -4485743.53147  21938951.280    21938951.4804   21938959.4484
        -0.000          -0.000
 -25232322.211 9 -19622359.47049  20808814.877    20808814.3884   20808822.3144
        -0.000          -0.000
 -23290122.082 9 -18123135.42249  20746304.123    20746303.7834   20746311.5424
        -0.000          -0.000
 99  4 12  1 46 30.0000000  0  7  3  6 22 21 26 17 23                0.000000031
  -4170428.792 9  -3231082.07345  24496853.812    24496853.6214   24496863.2394
        -0.000          -0.000
 -13878830.477 9 -10420859.91748  21325482.566    21325482.4864   21325491.0364
        -0.000          -0.000
  -7790774.863 8  -6054372.15545  23553552.422    23553551.5774   23553563.1054
        -0.000          -0.000
 -12938618.659 9  -9809754.94647  23022305.143    23022304.7804   23022314.9104
        -0.000          -0.000
  -5775385.259 9  -4459714.98747  21945307.690    21945307.8804   21945315.8764
        -0.000          -0.000
 -25241609.195 9 -19629596.07349  20807047.668    20807047.1514   20807055.1074
        -0.000          -0.000
 -23303422.487 9 -18133499.35649  20743773.121    20743772.7954   20743780.5544
        -0.000          -0.000
 99  4 12  1 47  0.0000000  0  7  3  6 22 21 26 17 23                0.000000065
  -4273174.654 9  -3311143.66645  24477301.762    24477301.6084   24477311.2214
        -0.000          -0.000
 -13805463.621 9 -10363690.98048  21339443.755    21339443.7214   21339452.2044
        -0.000          -0.000
  -7758041.629 8  -6028865.77945  23559780.620    23559779.9754   23559792.1294
        -0.000          -0.000
 -13007987.126 9  -9863808.21847  23009104.704    23009104.3594   23009114.5734
        -0.000          -0.000
  -5741384.837 9  -4433221.11747  21951777.698    21951777.8704   21951785.9494
        -0.000          -0.000
 -25250741.449 9 -19636712.11149  20805309.845    20805309.2944   20805317.2114
        -0.000          -0.000
 -23316361.488 9 -18143581.66449  20741310.893    20741310.5704   20741318.2494
        -0.000          -0.000
 99  4 12  1 47 30.0000000  0  7  3  6 22 21 26 17 23                0.000000104
  -4375832.514 9  -3391136.70045  24457766.478    24457766.2914   24457776.0714
        -0.000          -0.000
 -13731691.192 9 -10306206.01648  21353482.272    21353482.2614   21353490.4844
        -0.000          -0.000
  -7724960.634 8  -6003088.44645  23566075.363    23566074.6974   23566087.1264
        -0.000          -0.000
 -13077157.102 9  -9917706.78047  22995942.092    22995941.6814   22995951.9114
        -0.000          -0.000
  -5706817.696 9  -4406285.65547  21958355.535    21958355.6774   21958363.7994
        -0.000          -0.000
 -25259751.816 9 -19643733.16649  20803595.163    20803594.6514   20803602.5484
        -0.000          -0.000
 -23328977.199 9 -18153412.05449  20738910.272    20738909.9414   20738917.4104
        -0.000          -0.000
 99  4 12  1 48  0.0000000  0  7  3  6 22 21 26 17 23                0.000000149
  -4478387.883 8  -3471049.87545  24438250.628    24438250.6014   24438260.3894
        -0.000          -0.000
 -13657504.127 9 -10248397.97748  21367599.758    21367599.7084   21367607.7674
        -0.000          -0.000
  -7691487.510 8  -5977005.49845  23572444.655    23572444.2774   23572456.8934
        -0.000          -0.000
 -13146100.599 9  -9971428.87647  22982822.722    22982822.1834   22982832.2504
        -0.000          -0.000
  -5671683.076 9  -4378907.99147  21965041.267    21965041.4084   21965049.6914
        -0.000          -0.000
 -25268614.196 9 -19650638.90949  20801908.633    20801908.1794   20801916.1074
        -0.000          -0.000
 -23341247.205 9 -18162973.07049  20736575.455    20736575.0584   20736582.4954
        -0.000          -0.000
 99  4 12  1 48 30.0000000  0  7  3  6 22 21 26 17 23                0.000000164
  -4580875.361 9  -3550910.12445  24418747.842    24418747.8334   24418757.7064
        -0.000          -0.000
 -13582942.088 9 -10190297.74548  21381788.570    21381788.5054   21381796.5364
        -0.000          -0.000
  -7657627.478 8  -5950621.06645  23578888.392    23578887.6564   23578900.3074
        -0.000          -0.000
 -13214846.706 9 -10024997.14647  22969740.696    22969740.1014   22969750.0394
        -0.000          -0.000
  -5636025.816 9  -4351123.09647  21971826.495    21971826.7514   21971835.1194
        -0.000          -0.000
 -25277338.767 9 -19657437.26249  20800248.498    20800247.9984   20800255.8124
        -0.000          -0.000
 -23353183.525 9 -18172274.07349  20734303.915    20734303.5414   20734311.1274
        -0.000          -0.000
 99  4 12  1 49  0.0000000  0  7  3  6 22 21 26 17 23                0.000000167
  -4683254.127 9  -3630685.70745  24399265.937    24399265.8294   24399275.6914
        -0.000          -0.000
 -13507964.963 9 -10131874.06148  21396056.376    21396056.2584   21396064.2214
        -0.000          -0.000
  -7623318.872 8  -5923887.15745  23585416.859    23585416.2074   23585428.9214
        -0.000          -0.000
 -13283351.023 9 -10078377.08047  22956704.223    22956703.7654   22956713.8144
        -0.000          -0.000
  -5599788.456 9  -4322886.19147  21978722.416    21978722.6364   21978730.9104
        -0.000          -0.000
 -25285852.308 9 -19664071.16849  20798628.433    20798627.9404   20798635.5834
        -0.000          -0.000
 -23364726.170 9 -18181268.31549  20732107.220    20732106.8724   20732114.6134
        -0.000          -0.000
 99  4 12  1 49 30.0000000  0  7  3  6 22 21 26 17 23                0.000000158
  -4785541.014 9  -3710389.63345  24379801.344    24379801.2354   24379810.9894
        -0.000          -0.000
 -13432571.030 9 -10073125.60348  21410403.357    21410403.2564   21410411.1394
        -0.000          -0.000
  -7588562.491 8  -5896804.28445  23592031.048    23592030.3364   23592042.6764
        -0.000          -0.000
 -13351626.040 9 -10131578.26847  22943711.527    22943711.2694   22943721.3114
        -0.000          -0.000
  -5562970.418 9  -4294196.79847  21985728.763    21985728.9174   21985737.1564
        -0.000          -0.000
 -25294162.019 9 -19670546.24549  20797047.070    20797046.5844   20797054.3214
        -0.000          -0.000
 -23375883.141 9 -18189962.02749  20729983.912    20729983.6114   20729991.4664
        -0.000          -0.000
 99  4 12  1 50  0.0000000  0  7  3  6 22 21 26 17 23                0.000000143
  -4887717.009 9  -3790007.18745  24360357.719    24360357.7164   24360367.2964
        -0.000          -0.000
 -13356743.174 9 -10014039.01348  21424832.904    21424832.8274   21424840.7124
        -0.000          -0.000
  -7553346.781 9  -5869363.51846  23598732.825    23598731.9774   23598743.7944
        -0.000          -0.000
 -13419638.182 9 -10184574.64047  22930769.246    22930769.0294   22930778.9364
        -0.000          -0.000
  -5525561.924 9  -4265047.30647  21992847.243    21992847.3594   21992855.6674
        -0.000          -0.000
 -25302240.503 9 -19676841.15349  20795509.777    20795509.2594   20795517.1144
        -0.000          -0.000
 -23386636.263 9 -18198341.04549  20727937.687    20727937.3674   20727945.2144
        -0.000          -0.000
 99  4 12  1 50 30.0000000  0  7  3  6 22 21 26 17 23                0.000000119
  -4989769.186 9  -3869528.28645  24340937.794    24340937.7894   24340947.0704
        -0.000          -0.000
 -13280487.861 9  -9954619.34648  21439343.878    21439343.7814   21439351.6854
        -0.000          -0.000
  -7517702.742 8  -5841588.94245  23605515.994    23605515.0724   23605526.4794
        -0.000          -0.000
 -13487394.511 9 -10237371.68447  22917875.563    22917875.4254   22917885.2544
        -0.000          -0.000
  -5487565.441 9  -4235439.64147  22000077.350    22000077.5934   22000085.9954
        -0.000          -0.000
 -25310081.554 9 -19682951.07049  20794017.598    20794017.0824   20794025.0214
        -0.000          -0.000
 -23396992.707 9 -18206410.97149  20725966.960    20725966.6324   20725974.3274
        -0.000          -0.000
 99  4 12  1 51  0.0000000  0  7  3  6 22 21 26 17 23                0.000000098
  -5091677.099 9  -3948936.91645  24321545.297    24321545.2154   24321554.3804
        -0.000          -0.000
 -13203788.360 9  -9894853.56048  21453939.163    21453939.1674   21453947.3534
        -0.000          -0.000
  -7481654.065 9  -5813499.13746  23612375.849    23612375.0734   23612386.4994
        -0.000          -0.000
 -13554870.827 9 -10289950.53147  22905035.234    22905035.2134   22905044.9344
        -0.000          -0.000
  -5448963.677 9  -4205360.33747  22007423.022    22007423.2484   22007431.6504
        -0.000          -0.000
 -25317669.301 9 -19688863.58449  20792573.681    20792573.2114   20792581.0664
        -0.000          -0.000
 -23406948.675 9 -18214168.83249  20724072.549    20724072.1634   20724079.6984
        -0.000          -0.000
 99  4 12  1 51 30.0000000  0  7  3  6 22 21 26 17 23                0.000000076
  -5193435.780 9  -4028229.25845  24302181.276    24302181.0504   24302190.2794
        -0.000          -0.000
 -13126657.763 9  -9834751.84348  21468616.580    21468616.6064   21468625.0784
        -0.000          -0.000
  -7445227.478 9  -5785114.87346  23619308.079    23619307.1934   23619318.3804
        -0.000          -0.000
 -13622054.000 9 -10342300.94847  22892250.826    22892250.7154   22892260.3794
        -0.000          -0.000
  -5409756.353 9  -4174809.17647  22014884.034    22014884.2824   22014892.5584
        -0.000          -0.000
 -25325013.230 9 -19694586.10249  20791176.134    20791175.6784   20791183.4274
        -0.000          -0.000
 -23416498.365 9 -18221610.11749  20722255.314    20722254.9214   20722262.4084
        -0.000          -0.000
 99  4 12  1 52  0.0000000  0  7  3  6 22 21 26 17 23                0.000000040
  -5295042.112 9  -4107402.90945  24282846.409    24282846.0664   24282855.1284
        -0.000          -0.000
 -13049123.818 9  -9774335.83448  21483370.766    21483370.7724   21483379.5014
        -0.000          -0.000
  -7408440.718 9  -5756449.90746  23626308.752    23626307.7274   23626318.7424
        -0.000          -0.000
 -13688953.110 9 -10394430.00747  22879520.193    22879520.0184   22879530.0964
        -0.000          -0.000
  -5369964.820 9  -4143802.74347  22022456.190    22022456.4004   22022464.5114
        -0.000          -0.000
 -25332131.220 9 -19700132.56849  20789821.654    20789821.1864   20789828.8794
        -0.000          -0.000
 -23425648.933 9 -18228740.39249  20720514.003    20720513.5974   20720521.0854
        -0.000          -0.000
 99  4 12  1 52 30.0000000  0  7  3  6 22 21 26 17 23                0.000000018
  -5396452.303 9  -4186423.72045  24263548.469    24263548.2754   24263557.5304
        -0.000          -0.000
 -12971167.130 9  -9713590.41648  21498205.467    21498205.5124   21498214.2924
        -0.000          -0.000
  -7371268.566 9  -5727484.67346  23633382.344    23633381.3014   23633392.0974
        -0.000          -0.000
 -13755565.937 9 -10446336.00547  22866843.998    22866843.8144   22866854.0864
        -0.000          -0.000
  -5329553.955 9  -4112313.73547  22030146.113    22030146.3474   22030154.4594
        -0.000          -0.000
 -25339010.702 9 -19705493.19849  20788512.517    20788512.0434   20788519.7724
        -0.000          -0.000
 -23434387.832 9 -18235549.88149  20718850.970    20718850.5584   20718858.0844
        -0.000          -0.000
 99  4 12  1 53  0.0000000  0  7  3  6 22 21 26 17 23                0.000000008
  -5497698.884 9  -4265317.01345  24244281.652    24244281.5444   24244291.1184
        -0.000          -0.000
 -12892810.511 9  -9652533.36248  21513116.466    21513116.4894   21513125.2304
        -0.000          -0.000
  -7333727.770 9  -5698232.17946  23640525.781    23640524.7564   23640535.5384
        -0.000          -0.000
 -13821912.499 9 -10498034.51147  22854218.435    22854218.3944   22854228.7144
        -0.000          -0.000
  -5288540.829 9  -4080355.43047  22037950.631    22037950.9544   22037959.0964
        -0.000          -0.000
 -25345702.642 9 -19710707.68449  20787239.078    20787238.5654   20787246.3164
        -0.000          -0.000
 -23442742.561 9 -18242060.02949  20717260.970    20717260.6094   20717268.1754
        -0.000          -0.000
 99  4 12  1 53 30.0000000  0  7  3  6 22 21 26 17 23                0.000000005
  -5598805.330 9  -4344101.12646  24225041.687    24225041.4144   24225051.2974
        -0.000          -0.000
 -12814074.436 9  -9591180.62948  21528099.646    21528099.6164   21528108.2884
        -0.000          -0.000
  -7295815.493 9  -5668690.20046  23647739.688    23647738.9414   23647749.5664
        -0.000          -0.000
 -13888027.784 9 -10549552.80547  22841637.189    22841637.0944   22841647.3674
        -0.000          -0.000
  -5246958.463 9  -4047953.55747  22045863.458    22045863.7664   22045871.9264
        -0.000          -0.000
 -25352245.545 9 -19715806.04049  20785993.924    20785993.4464   20786001.1594
        -0.000          -0.000
 -23450743.712 9 -18248294.65249  20715738.380    20715738.0634   20715745.5294
        -0.000          -0.000
 99  4 12  1 54  0.0000000  0  7  3  6 22 21 26 17 23                0.000000019
  -5699779.610 9  -4422782.25245  24205826.805    24205826.4264   24205836.6994
        -0.000          -0.000
 -12734954.831 9  -9529529.04448  21543155.739    21543155.7334   21543164.3194
        -0.000          -0.000
  -7257527.346 9  -5638855.33346  23655025.477    23655024.9664   23655035.4764
        -0.000          -0.000
 -13953924.969 9 -10600901.15547  22829097.439    22829097.2654   22829107.2934
        -0.000          -0.000
  -5204824.107 9  -4015121.59747  22053881.436    22053881.6964   22053889.6564
        -0.000          -0.000
 -25358653.615 9 -19720799.31749  20784774.567    20784774.0504   20784781.7264
        -0.000          -0.000
 -23458422.510 9 -18254278.08449  20714277.203    20714276.8454   20714284.2794
        -0.000          -0.000
 99  4 12  1 54 30.0000000  0  7  3  6 22 21 26 17 23                0.000000038
  -5800651.888 9  -4501383.90245  24186630.957    24186630.5154   24186641.3534
        -0.000          -0.000
 -12655470.822 9  -9467593.51448  21558281.212    21558281.1824   21558289.6634
        -0.000          -0.000
  -7218892.886 9  -5608750.62946  23662377.583    23662377.1174   23662387.5494
        -0.000          -0.000
 -14019622.786 9 -10652094.14147  22816595.672    22816595.2114   22816605.1614
        -0.000          -0.000
  -5162149.832 9  -3981868.92847  22062001.987    22062002.2444   22062010.0974
        -0.000          -0.000
 -25364955.529 9 -19725709.89449  20783575.359    20783574.8214   20783582.6214
        -0.000          -0.000
 -23465801.277 9 -18260027.73449  20712873.079    20712872.7174   20712880.1634
        -0.000          -0.000
 99  4 12  1 55  0.0000000  0  7  3  6 22 21 26 17 23                0.000000058
  -5901415.111 9  -4579900.56646  24167455.885    24167455.7004   24167466.7714
        -0.000          -0.000
 -12575597.943 9  -9405354.96948  21573480.562    21573480.5504   21573488.9924
        -0.000          -0.000
  -7179893.275 9  -5578361.34846  23669799.104    23669798.4704   23669809.1174
        -0.000          -0.000
 -14085073.256 9 -10703094.39847  22804140.327    22804140.0134   22804150.1814
        -0.000          -0.000
  -5118924.123 9  -3948186.53346  22070227.458    22070227.6704   22070235.5844
        -0.000          -0.000
 -25371114.008 9 -19730508.69949  20782403.415    20782402.9224   20782410.8364
        -0.000          -0.000
 -23472842.220 9 -18265514.13949  20711533.143    20711532.7654   20711540.3254
        -0.000          -0.000
 99  4 12  1 55 30.0000000  0  7  3  6 22 21 26 17 23                0.000000060
  -6002087.168 9  -4658346.20946  24148298.168    24148298.2414   24148309.3284
        -0.000          -0.000
 -12495362.811 9  -9342834.15648  21588748.890    21588748.8604   21588757.3924
        -0.000          -0.000
  -7140550.138 9  -5547704.42346  23677285.819    23677285.2264   23677296.1384
        -0.000          -0.000
 -14150293.614 9 -10753915.35047  22791728.920    22791728.7954   22791739.0154
        -0.000          -0.000
  -5075160.762 9  -3914085.20946  22078555.287    22078555.5534   22078563.2944
        -0.000          -0.000
 -25377127.313 9 -19735194.38549  20781259.100    20781258.6044   20781266.5694
        -0.000          -0.000
 -23479558.076 9 -18270747.23649  20710254.981    20710254.6794   20710262.3304
        -0.000          -0.000
 99  4 12  1 56  0.0000000  0  7  3  6 22 21 26 17 23                0.000000056
  -6102621.261 9  -4736684.33746  24129167.077    24129167.1154   24129178.2494
        -0.000          -0.000
 -12414740.349 9  -9280011.51048  21604090.810    21604090.8294   21604099.4384
        -0.000          -0.000
  -7100846.479 9  -5516766.57646  23684841.407    23684840.7554   23684851.5414
        -0.000          -0.000
 -14215242.168 9 -10804524.49147  22779369.735    22779369.4914   22779379.5784
        -0.000          -0.000
  -5030811.144 9  -3879527.04246  22086995.031    22086995.2014   22087002.5374
        -0.000          -0.000
 -25382948.248 9 -19739730.16149  20780151.454    20780150.9414   20780158.8964
        -0.000          -0.000
 -23485892.146 9 -18275682.83749  20709049.693    20709049.3344   20709057.0424
        -0.000          -0.000
 99  4 12  1 56 30.0000000  0  7  3  6 22 21 26 17 23                0.000000037
  -6203003.421 9  -4814904.05946  24110065.150    24110065.1294   24110076.2134
        -0.000          -0.000
 -12333720.968 9  -9216879.55648  21619508.395    21619508.3864   21619516.8554
        -0.000          -0.000
  -7060784.718 9  -5485549.68946  23692465.306    23692464.5184   23692475.0314
        -0.000          -0.000
 -14279911.103 9 -10854915.76347  22767063.715    22767063.4004   22767073.4054
        -0.000          -0.000
  -4985877.469 9  -3844513.77246  22095545.592    22095545.7634   22095553.1934
        -0.000          -0.000
 -25388558.876 9 -19744102.05449  20779083.806    20779083.2904   20779091.1794
        -0.000          -0.000
 -23491819.916 9 -18280301.84849  20707921.654    20707921.2754   20707929.0934
        -0.000          -0.000
 99  4 12  1 57  0.0000000  0  7  3  6 22 21 26 17 23                0.000000001
  -6303216.305 9  -4892991.87646  24090995.351    24090995.2314   24091006.0834
        -0.000          -0.000
 -12252286.502 9  -9153424.19448  21635004.842    21635004.8884   21635013.1894
        -0.000          -0.000
  -7020342.577 9  -5454036.42146  23700161.327    23700160.5504   23700171.0224
        -0.000          -0.000
 -14344292.777 9 -10905083.20547  22754812.558    22754812.1014   22754821.8434
        -0.000          -0.000
  -4940370.632 9  -3809053.84247  22104205.141    22104205.4374   22104212.9964
        -0.000          -0.000
 -25393927.448 9 -19748285.33749  20778062.172    20778061.6574   20778069.5324
        -0.000          -0.000
 -23497329.961 9 -18284595.37249  20706873.057    20706872.7004   20706880.5534
        -0.000          -0.000
 99  4 12  1 57 30.0000000  0  7  3  6 22 21 26 17 23               -0.000000035
  -6403235.876 9  -4970929.08346  24071962.281    24071962.0884   24071972.7694
        -0.000          -0.000
 -12170431.421 9  -9089641.06148  21650581.383    21650581.3844   21650589.5264
        -0.000          -0.000
  -6979506.968 9  -5422216.51646  23707932.213    23707931.3204   23707941.9114
        -0.000          -0.000
 -14408402.080 9 -10955038.41847  22742612.839    22742612.4174   22742622.0624
        -0.000          -0.000
  -4894284.464 9  -3773142.50447  22112975.149    22112975.3664   22112983.1054
        -0.000          -0.000
 -25399055.911 9 -19752281.52949  20777086.226    20777085.7534   20777093.6754
        -0.000          -0.000
 -23502421.274 9 -18288562.60849  20705904.183    20705903.8114   20705911.6134
        -0.000          -0.000
 99  4 12  1 58  0.0000000  0  7  3  6 22 21 26 17 23               -0.000000065
  -6503031.871 9  -5048692.04346  24052971.538    24052971.2754   24052982.0604
        -0.000          -0.000
 -12088154.414 9  -9025529.17848  21666237.938    21666237.9864   21666246.2394
        -0.000          -0.000
  -6938273.863 9  -5390086.89146  23715778.555    23715777.7984   23715788.3534
        -0.000          -0.000
 -14472235.463 9 -11004778.62247  22730465.551    22730465.2774   22730474.7964
        -0.000          -0.000
  -4847636.055 9  -3736793.06747  22121852.130    22121852.3804   22121859.9824
        -0.000          -0.000
 -25403943.012 9 -19756089.63949  20776156.289    20776155.8274   20776163.6124
        -0.000          -0.000
 -23507099.593 9 -18292208.02549  20705013.932    20705013.5374   20705021.2074
        -0.000          -0.000
 99  4 12  1 58 30.0000000  0  7  3  6 22 21 26 17 23               -0.000000081
  -6602601.953 8  -5126279.00246  24034023.708    24034023.4434   24034034.3564
        -0.000          -0.000
 -12005462.463 9  -8961093.96248  21681973.368    21681973.4334   21681982.1594
        -0.000          -0.000
  -6896635.846 9  -5357641.72246  23723701.828    23723701.2144   23723711.7614
        -0.000          -0.000
 -14535793.186 9 -11054304.02247  22718370.716    22718370.4504   22718380.0864
        -0.000          -0.000
  -4800439.839 9  -3700016.77747  22130833.416    22130833.6224   22130841.0574
        -0.000          -0.000
 -25408593.662 9 -19759713.49249  20775271.285    20775270.7694   20775278.4654
        -0.000          -0.000
 -23511389.891 9 -18295551.09149  20704197.581    20704197.1434   20704204.7034
        -0.000          -0.000
 99  4 12  1 59  0.0000000  0  7  3  6 22 21 26 17 23               -0.000000071
  -6701941.548 8  -5203686.36346  24015119.335    24015119.4094   24015130.7094
        -0.000          -0.000
 -11922373.264 9  -8896349.19048  21697784.632    21697784.7264   21697793.7094
        -0.000          -0.000
  -6854591.521 9  -5324879.96946  23731702.577    23731702.0344   23731712.5944
        -0.000          -0.000
 -14599081.749 9 -11103619.68747  22706326.942    22706326.8474   22706336.6314
        -0.000          -0.000
  -4752671.230 9  -3662794.47847  22139923.351    22139923.5804   22139931.1364
        -0.000          -0.000
 -25413010.189 9 -19763154.91849  20774430.840    20774430.3814   20774437.9744
        -0.000          -0.000
 -23515300.220 9 -18298598.07649  20703453.399    20703452.9484   20703460.5114
        -0.000          -0.000
 99  4 12  1 59 30.0000000  0  7  3  6 22 21 26 17 23               -0.000000054
  -6801103.993 9  -5280955.69146  23996248.922    23996249.1734   23996260.6174
        -0.000          -0.000
 -11838947.143 9  -8831341.87748  21713660.419    21713660.4254   21713669.3144
        -0.000          -0.000
  -6812214.078 9  -5291858.64746  23739767.176    23739766.4714   23739776.9224
        -0.000          -0.000
 -14662152.152 9 -11152765.34047  22694325.008    22694324.8064   22694334.6704
        -0.000          -0.000
  -4704365.866 9  -3625153.93147  22149115.529    22149115.7374   22149123.3754
        -0.000          -0.000
 -25417267.128 9 -19766471.98449  20773620.826    20773620.2724   20773627.9284
        -0.000          -0.000
 -23518899.415 9 -18301402.62449  20702768.391    20702768.0124   20702775.5364
        -0.000          -0.000
 99  4 12  2  0  0.0000000  0  7  3  6 22 21 26 17 23               -0.000000030
  -6900091.474 9  -5358088.68646  23977412.403    23977412.5234   23977423.8634
        -0.000          -0.000
 -11755165.502 9  -8766057.55248  21729603.916    21729603.8574   21729612.4924
        -0.000          -0.000
  -6769513.571 9  -5258585.57046  23747893.129    23747892.3564   23747902.8334
        -0.000          -0.000
 -14724988.416 9 -11201728.56247  22682367.565    22682367.3444   22682377.2024
        -0.000          -0.000
  -4655523.808 9  -3587095.17347  22158409.886    22158410.1314   22158417.5654
        -0.000          -0.000
 -25421356.547 9 -19769658.53349  20772842.480    20772842.0114   20772849.7074
        -0.000          -0.000
 -23522188.920 9 -18303965.84349  20702142.430    20702142.0754   20702149.5584
        -0.000          -0.000
 99  4 12  2  0 30.0000000  0  7  3  6 22 21 26 17 23               -0.000000017
  -6998957.455 9  -5435127.00846  23958598.939    23958599.0674   23958610.2484
        -0.000          -0.000
 -11671045.379 9  -8700509.47748  21745611.623    21745611.5264   21745619.9514
        -0.000          -0.000
  -6726524.417 9  -5225087.60046  23756074.040    23756073.0824   23756083.6654
        -0.000          -0.000
 -14787621.621 9 -11250533.57747  22670448.809    22670448.5454   22670458.3854
        -0.000          -0.000
  -4606161.028 9  -3548630.67247  22167803.533    22167803.7194   22167810.8884
        -0.000          -0.000
 -25425307.676 9 -19772737.30849  20772090.763    20772090.1914   20772097.8094
        -0.000          -0.000
 -23525195.864 9 -18306308.88249  20701570.273    20701569.9124   20701577.4024
        -0.000          -0.000
 99  4 12  2  1  0.0000000  0  7  3  6 22 21 26 17 23               -0.000000008
  -7097694.690 9  -5512064.99946  23939810.065    23939810.0154   23939821.0644
        -0.000          -0.000
 -11586556.125 9  -8634673.75948  21761689.333    21761689.3254   21761697.6994
        -0.000          -0.000
  -6683237.873 9  -5191357.87546  23764311.147    23764310.2704   23764320.9574
        -0.000          -0.000
 -14850035.943 9 -11299168.04347  22658571.684    22658571.4874   22658581.3084
        -0.000          -0.000
  -4556251.194 9  -3509739.87547  22177300.969    22177301.2244   22177308.4274
        -0.000          -0.000
 -25429100.514 9 -19775692.73849  20771368.999    20771368.3814   20771375.9994
        -0.000          -0.000
 -23527895.187 9 -18308412.22549  20701056.546    20701056.1974   20701063.6884
        -0.000          -0.000
 99  4 12  2  1 30.0000000  0  7  3  6 22 21 26 17 23                0.000000005
  -7196287.800 9  -5588890.69946  23921048.365    23921048.2734   23921059.2624
        -0.000          -0.000
 -11501678.672 9  -8568535.54848  21777841.108    21777841.0644   21777849.4444
        -0.000          -0.000
  -6639635.684 9  -5157382.22446  23772607.948    23772607.2574   23772618.1254
        -0.000          -0.000
 -14912210.680 9 -11347615.79447  22646740.159    22646739.9884   22646749.8174
        -0.000          -0.000
  -4505796.849 9  -3470424.79747  22186902.089    22186902.3174   22186909.4934
        -0.000          -0.000
 -25432721.144 9 -19778513.99549  20770679.908    20770679.3584   20770686.9564
        -0.000          -0.000
 -23530272.263 9 -18310264.47149  20700604.111    20700603.8004   20700611.2494
        -0.000          -0.000
 99  4 12  2  2  0.0000000  0  7  3  6 22 21 26 17 23                0.000000018
  -7294718.748 9  -5665590.03946  23902317.526    23902317.4104   23902328.2504
        -0.000          -0.000
 -11416415.243 9  -8502096.58848  21794066.168    21794066.1124   21794074.6984
        -0.000          -0.000
  -6595689.913 9  -5123138.82146  23780970.136    23780969.5384   23780980.6084
        -0.000          -0.000
 -14974133.688 9 -11395867.38947  22634956.492    22634956.3664   22634966.1334
        -0.000          -0.000
  -4454782.716 9  -3430673.51446  22196609.685    22196609.8874   22196617.0634
        -0.000          -0.000
 -25436141.841 9 -19781179.44249  20770029.060    20770028.5184   20770036.0514
        -0.000          -0.000
 -23532291.778 9 -18311838.08749  20700219.779    20700219.4564   20700226.9154
        -0.000          -0.000
 99  4 12  2  2 30.0000000  0  7  3  6 22 21 26 17 23                0.000000016
  -7393010.538 9  -5742180.93846  23883612.831    23883612.9004   23883623.6574
        -0.000          -0.000
 -11330816.500 9  -8435396.32948  21810354.984    21810355.0054   21810363.9094
        -0.000          -0.000
  -6551419.616 9  -5088642.53646  23789394.366    23789393.7954   23789405.0664
        -0.000          -0.000
 -15035822.214 9 -11443936.28047  22623217.555    22623217.3134   22623227.0054
        -0.000          -0.000
  -4403226.280 9  -3390499.65646  22206420.552    22206420.7544   22206427.9204
        -0.000          -0.000
 -25439390.709 9 -19783711.01149  20769410.837    20769410.2574   20769417.8264
        -0.000          -0.000
 -23533976.911 9 -18313151.14649  20699899.053    20699898.7284   20699906.2394
        -0.000          -0.000
 99  4 12  2  3  0.0000000  0  7  3  6 22 21 26 17 23                0.000000024
  -7491093.623 9  -5818609.21946  23864947.984    23864948.1814   23864958.7264
        -0.000          -0.000
 -11244845.461 9  -8368405.95448  21826714.804    21826714.7704   21826723.8884
        -0.000          -0.000
  -6506779.686 9  -5053858.23146  23797888.988    23797888.5744   23797899.7454
        -0.000          -0.000
 -15097219.814 9 -11491778.47547  22611534.020    22611533.7614   22611543.3384
        -0.000          -0.000
  -4351088.927 9  -3349873.10447  22216342.140    22216342.2664   22216349.4524
        -0.000          -0.000
 -25442420.197 9 -19786071.62649  20768834.256    20768833.7064   20768841.2384
        -0.000          -0.000
 -23535271.916 9 -18314160.20349  20699652.536    20699652.2294   20699659.7474
        -0.000          -0.000
 99  4 12  2  3 30.0000000  0  7  3  6 22 21 26 17 23                0.000000030
  -7588967.981 9  -5894874.83646  23846323.083    23846323.1044   23846333.5594
        -0.000          -0.000
 -11158518.089 9  -8301137.93948  21843142.411    21843142.3874   21843151.6434
        -0.000          -0.000
  -6461783.324 9  -5018796.18946  23806451.731    23806451.2474   23806462.3774
        -0.000          -0.000
 -15158337.776 9 -11539402.78047  22599903.906    22599903.5524   22599912.9844
        -0.000          -0.000
  -4298396.408 9  -3308813.99047  22226369.229    22226369.2654   22226376.7494
        -0.000          -0.000
 -25445241.447 9 -19788269.98449  20768297.344    20768296.7974   20768304.2274
        -0.000          -0.000
 -23536183.756 9 -18314870.68549  20699479.093    20699478.7694   20699486.2344
        -0.000          -0.000
 99  4 12  2  4  0.0000000  0  7  3  6 22 21 26 17 23                0.000000037
  -7686619.832 9  -5970967.10246  23827740.492    23827740.5194   23827750.8984
        -0.000          -0.000
 -11071809.549 9  -8233572.90648  21859642.602    21859642.5744   21859651.7194
        -0.000          -0.000
  -6416433.929 8  -4983459.09846  23815081.551    23815081.1124   23815092.1354
        -0.000          -0.000
 -15219162.856 9 -11586798.85747  22588329.373    22588328.9254   22588338.2834
        -0.000          -0.000
  -4245143.969 9  -3267318.57846  22236502.621    22236502.7604   22236510.4294
        -0.000          -0.000
 -25447830.548 9 -19790287.44049  20767804.648    20767804.0884   20767811.5914
        -0.000          -0.000
 -23536709.681 9 -18315280.47149  20699379.050    20699378.7084   20699386.2344
        -0.000          -0.000
 99  4 12  2  4 30.0000000  0  7  3  6 22 21 26 17 23                0.000000030
  -7784098.963 9  -6046924.77546  23809190.819    23809190.8604   23809201.0684
        -0.000          -0.000
 -10984753.292 9  -8165736.92548  21876208.865    21876208.8764   21876217.9534
        -0.000          -0.000
  -6370792.648 9  -4947894.53546  23823766.952    23823766.5394   23823777.2074
        -0.000          -0.000
 -15279757.961 9 -11634015.74147  22576798.588    22576797.9684   22576807.2764
        -0.000          -0.000
  -4191396.383 9  -3225437.34246  22246730.250    22246730.4204   22246738.0674
        -0.000          -0.000
 -25450245.542 9 -19792169.24749  20767344.996    20767344.4674   20767352.1164
        -0.000          -0.000
 -23536923.700 9 -18315447.20349  20699338.366    20699337.9574   20699345.6034
        -0.000          -0.000
 99  4 12  2  5  0.0000000  0  7  3  6 22 21 26 17 23                0.000000031
  -7881365.581 9  -6122716.85746  23790681.769    23790681.7844   23790691.9364
        -0.000          -0.000
 -10897306.682 9  -8097596.76047  21892849.308    21892849.2574   21892858.4324
        -0.000          -0.000
  -6324820.571 9  -4912072.20746  23832515.626    23832514.9534   23832525.4924
        -0.000          -0.000
 -15340099.499 9 -11681035.03547  22565315.633    22565315.1384   22565324.6134
        -0.000          -0.000
  -4137115.036 9  -3183140.17646  22257059.433    22257059.6384   22257067.3354
        -0.000          -0.000
 -25452440.880 9 -19793879.88149  20766927.185    20766926.6664   20766934.3494
        -0.000          -0.000
 -23536784.277 9 -18315338.51449  20699364.794    20699364.3884   20699372.0314
        -0.000          -0.000
 99  4 12  2  5 30.0000000  0  7  3  6 22 21 26 17 23                0.000000032
  -7978448.295 9  -6198365.63246  23772207.719    23772207.6834   23772217.7484
        -0.000          -0.000
 -10809484.603 9  -8029164.01047  21909561.021    21909560.9974   21909570.3844
        -0.000          -0.000
  -6278538.374 8  -4876008.14645  23841322.704    23841322.1064   23841332.8394
        -0.000          -0.000
 -15400218.877 9 -11727881.22747  22553875.110    22553874.6784   22553884.2174
        -0.000          -0.000
  -4082313.141 9  -3140437.37846  22267487.880    22267488.0394   22267495.9604
        -0.000          -0.000
 -25454428.141 9 -19795428.37249  20766548.961    20766548.4484   20766556.1884
        -0.000          -0.000
 -23536326.001 9 -18314981.37049  20699451.892    20699451.5484   20699459.2034
        -0.000          -0.000
 99  4 12  2  6  0.0000000  0  7  3  6 22 21 26 17 23                0.000000037
  -8075351.764 9  -6273874.72846  23753767.617    23753767.5094   23753777.7374
        -0.000          -0.000
 -10721305.727 9  -7960453.26647  21926340.740    21926340.7104   21926350.2794
        -0.000          -0.000
  -6231952.833 9  -4839707.82945  23850187.730    23850187.0984   23850197.6934
        -0.000          -0.000
 -15460113.726 9 -11774552.46147  22542477.609    22542477.0484   22542486.4564
        -0.000          -0.000
  -4026977.900 9  -3097319.00446  22278017.950    22278018.0684   22278026.0384
        -0.000          -0.000
 -25456209.781 9 -19796816.64949  20766209.843    20766209.3134   20766217.2224
        -0.000          -0.000
 -23535558.672 9 -18314383.41049  20699598.000    20699597.6274   20699605.2644
        -0.000          -0.000
 99  4 12  2  6 30.0000000  0  7  3  6 22 21 26 17 23                0.000000041
  -8172078.202 9  -6349245.87546  23735361.209    23735361.0624   23735371.3284
        -0.000          -0.000
 -10632799.052 9  -7891487.10647  21943183.101    21943183.0904   21943192.5624
        -0.000          -0.000
  -6185054.720 9  -4803163.89145  23859112.710    23859111.5214   23859121.7654
        -0.000          -0.000
 -15519786.026 9 -11821050.28547  22531122.194    22531121.7294   22531131.0234
        -0.000          -0.000
  -3971104.371 9  -3053781.17246  22288650.469    22288650.5884   22288658.5054
        -0.000          -0.000
 -25457804.423 9 -19798059.22049  20765906.313    20765905.8524   20765913.7854
        -0.000          -0.000
 -23534468.595 9 -18313533.96749  20699805.465    20699805.1334   20699812.7034
        -0.000          -0.000
 99  4 12  2  7  0.0000000  0  8  3  6 22 21 26 17 29 23             0.000000041
  -8268605.965 9  -6424462.21046  23716992.427    23716992.2984   23717002.7204
        -0.000          -0.000
 -10543954.247 9  -7822257.45247  21960089.740    21960089.7464   21960099.2564
        -0.000          -0.000
  -6137833.259 9  -4766368.03746  23868099.078    23868097.6194   23868107.3934
        -0.000          -0.000
 -15579205.743 9 -11867351.27747  22519815.087    22519814.5774   22519823.6824
        -0.000          -0.000
  -3914682.144 9  -3009815.79146  22299387.084    22299387.2464   22299395.4124
        -0.000          -0.000
 -25459182.978 9 -19799133.39649  20765644.099    20765643.5944   20765651.4324
        -0.000          -0.000
  -1308921.100 8  -1008825.68852         0.000           0.0004          0.0005
        -0.000          -0.000
 -23533030.663 9 -18312413.45849  20700079.205    20700078.8144   20700086.3104
        -0.000          -0.000
 99  4 12  2  7 30.0000000  0  8  3  6 22 21 26 17 29 23             0.000000044
  -8364910.801 9  -6499504.82246  23698666.160    23698666.0454   23698676.4674
        -0.000          -0.000
 -10454749.212 9  -7752747.08947  21977064.902    21977064.9444   21977074.4594
        -0.000          -0.000
  -6090286.678 9  -4729318.80446  23877146.893    23877145.5554   23877155.1294
        -0.000          -0.000
 -15638353.934 9 -11913440.68847  22508559.465    22508559.0694   22508568.0644
        -0.000          -0.000
  -3857714.359 9  -2965425.29146  22310227.481    22310227.7314   22310236.0454
        -0.000          -0.000
 -25460335.977 9 -19800031.81649  20765424.828    20765424.2864   20765431.9834
        -0.000          -0.000
  -1417003.72518  -1093045.46544         0.000           0.0005   25006713.0424
        -0.000          -0.000
 -23531230.647 9 -18311010.81549  20700421.812    20700421.3574   20700428.7724
        -0.000          -0.000
 99  4 12  2  8  0.0000000  0  8  3  6 22 21 26 17 29 23             0.000000039
  -8460995.132 9  -6574375.62246  23680381.956    23680381.8434   23680392.2124
        -0.000          -0.000
 -10365194.948 9  -7682964.59048  21994106.779    21994106.8064   21994116.0954
        -0.000          -0.000
  -6042419.207 9  -4692019.51446  23886255.613    23886254.3694   23886264.2734
        -0.000          -0.000
 -15697231.231 9 -11959319.02547  22497355.358    22497355.0064   22497364.0944
        -0.000          -0.000
  -3800227.092 9  -2920630.00546  22321166.915    22321167.1974   22321175.4174
        -0.000          -0.000
 -25461280.714 9 -19800767.95749  20765245.132    20765244.5604   20765252.1594
        -0.000          -0.000
  -1525176.731 8  -1177335.58345  24986111.199    24986110.3164   24986127.5934
        -0.000          -0.000
 -23529064.203 9 -18309322.64749  20700834.064    20700833.5914   20700840.9044
        -0.000          -0.000
 99  4 12  2  8 30.0000000  0  8  3  6 22 21 26 17 29 23             0.000000026
  -8556847.061 9  -6649065.32646  23662142.114    23662141.8404   23662152.1374
        -0.000          -0.000
 -10275275.586 9  -7612897.62448  22011218.191    22011218.2504   22011227.0624
        -0.000          -0.000
  -5994232.489 9  -4654471.46946  23895425.581    23895424.2224   23895434.1444
        -0.000          -0.000
 -15755851.016 9 -12004996.70847  22486200.112    22486199.8584   22486208.9784
        -0.000          -0.000
  -3742244.982 9  -2875449.14446  22332200.533    22332200.8794   22332208.8374
        -0.000          -0.000
 -25462010.383 9 -19801336.50849  20765106.298    20765105.7274   20765113.2344
        -0.000          -0.000
  -1633431.479 7  -1261689.39745  24965509.951    24965507.5894   24965528.2384
        -0.000          -0.000
 -23526534.216 9 -18307351.19449  20701315.449    20701315.0184   20701322.3694
        -0.000          -0.000
 99  4 12  2  9  0.0000000  0  8  3  6 22 21 26 17 29 23             0.000000018
  -8652444.620 9  -6723556.82246  23643950.271    23643950.0944   23643960.3824
        -0.000          -0.000
 -10184960.193 9  -7542522.05847  22028404.966    22028404.9524   22028413.5634
        -0.000          -0.000
  -5945722.264 9  -4616671.34546  23904656.873    23904655.5614   23904665.6464
        -0.000          -0.000
 -15814192.239 9 -12050457.32047  22475098.100    22475097.8344   22475106.8814
        -0.000          -0.000
  -3683761.587 9  -2829877.66746  22343329.648    22343329.7554   22343337.5324
        -0.000          -0.000
 -25462495.334 9 -19801714.37249  20765014.018    20765013.4604   20765021.0004
        -0.000          -0.000
  -1741728.886 8  -1346076.48445  24944901.007    24944900.9244   24944919.1324
        -0.000          -0.000
 -23523641.327 9 -18305096.96249  20701865.924    20701865.5174   20701872.8934
        -0.000          -0.000
 99  4 12  2  9 30.0000000  0  8  3  6 22 21 26 17 29 23             0.000000015
  -8747788.818 9  -6797850.90046  23625806.712    23625806.5454   23625816.7804
        -0.000          -0.000
 -10094266.739 9  -7471851.90847  22045663.517    22045663.4354   22045672.0494
        -0.000          -0.000
  -5896889.082 9  -4578619.56946  23913949.391    23913948.0984   23913958.5674
        -0.000          -0.000
 -15872264.703 9 -12095708.50947  22464047.320    22464046.9644   22464056.1274
        -0.000          -0.000
  -3624775.948 9  -2783914.77946  22354554.244    22354554.3644   22354562.1464
        -0.000          -0.000
 -25462740.816 9 -19801905.63549  20764967.275    20764966.6734   20764974.3074
        -0.000          -0.000
  -1850045.617 8  -1430478.66045  24924289.042    24924289.7934   24924306.9324
        -0.000          -0.000
 -23520395.927 9 -18302568.05349  20702483.416    20702483.0394   20702490.4004
        -0.000          -0.000
 99  4 12  2 10  0.0000000  0  8  3  6 22 21 26 17 29 23             0.000000018
  -8842890.533 9  -6871956.01846  23607709.216    23607709.0344   23607719.3854
        -0.000          -0.000
 -10003224.591 9  -7400910.00647  22062988.119    22062988.0714   22062996.9404
        -0.000          -0.000
  -5847736.846 9  -4540319.22446  23923302.377    23923301.4034   23923312.2774
        -0.000          -0.000
 -15930076.413 9 -12140756.52647  22453045.755    22453045.5404   22453054.9464
        -0.000          -0.000
  -3565286.478 9  -2737559.35046  22365874.558    22365874.7474   22365882.6684
        -0.000          -0.000
 -25462747.983 9 -19801911.20349  20764965.729    20764965.1944   20764972.9044
        -0.000          -0.000
  -1958385.968 8  -1514899.21545  24903672.821    24903673.3574   24903690.2274
        -0.000          -0.000
 -23516825.209 9 -18299785.65049  20703162.769    20703162.4394   20703169.8224
        -0.000          -0.000
 99  4 12  2 10 30.0000000  0  8  3  6 22 21 26 17 29 23             0.000000026
  -8937767.461 9  -6945885.98246  23589654.370    23589654.3224   23589664.6664
        -0.000          -0.000
  -9911867.985 9  -7329723.10547  22080372.633    22080372.5864   22080381.6304
        -0.000          -0.000
  -5798294.188 9  -4501792.52546  23932711.053    23932710.0404   23932721.4064
        -0.000          -0.000
 -15987651.784 9 -12185620.40747  22442089.361    22442089.2154   22442098.5914
        -0.000          -0.000
  -3505294.658 9  -2690812.51346  22377290.529    22377290.7144   22377298.7164
        -0.000          -0.000
 -25462533.633 9 -19801744.16349  20765006.508    20765005.9564   20765013.6674
        -0.000          -0.000
  -2066758.430 8  -1599344.80145  24883050.079    24883050.3734   24883067.4704
        -0.000          -0.000
 -23512972.855 9 -18296783.78449  20703895.853    20703895.5314   20703902.9024
        -0.000          -0.000
 99  4 12  2 11  0.0000000  0  8  3  6 22 21 26 17 29 23             0.000000029
  -9032444.982 9  -7019660.57346  23571637.669    23571637.5654   23571647.8844
        -0.000          -0.000
  -9820234.265 9  -7258320.28247  22097810.107    22097810.0344   22097819.1294
        -0.000          -0.000
  -5748576.223 9  -4463051.34746  23942171.879    23942171.0294   23942182.8944
        -0.000          -0.000
 -16045002.407 9 -12230309.13247  22431175.693    22431175.6004   22431185.0734
        -0.000          -0.000
  -3444805.583 9  -2643678.19246  22388801.312    22388801.5254   22388809.3264
        -0.000          -0.000
 -25462118.482 9 -19801420.65349  20765085.526    20765085.0114   20765092.6814
        -0.000          -0.000
  -2175189.217 8  -1683835.81945  24862416.104    24862416.3894   24862433.9344
        -0.000          -0.000
 -23508856.256 9 -18293576.02349  20704679.250    20704678.8994   20704686.2584
        -0.000          -0.000
 99  4 12  2 11 30.0000000  0  8  3  6 22 21 26 17 29 23             0.000000040
  -9126895.728 9  -7093258.44846  23553664.213    23553664.0684   23553674.1604
        -0.000          -0.000
  -9728311.966 9  -7186692.58647  22115302.352    22115302.2854   22115311.5334
        -0.000          -0.000
  -5698569.829 9  -4424085.39446  23951688.122    23951687.0524   23951698.6904
        -0.000          -0.000
 -16102115.437 9 -12274812.71047  22420307.544    22420307.3944   22420317.0104
        -0.000          -0.000
  -3383791.799 9  -2596134.97046  22400411.933    22400412.1474   22400420.0504
        -0.000          -0.000
 -25461497.438 9 -19800936.69249  20765203.670    20765203.1194   20765210.7684
        -0.000          -0.000
  -2283673.467 7  -1768368.54545  24841772.003    24841772.3704   24841789.9874
        -0.000          -0.000
 -23504450.008 9 -18290142.56449  20705517.768    20705517.4184   20705524.7024
        -0.000          -0.000
 99  4 12  2 12  0.0000000  0  8  3  6 22 21 26 17 29 23             0.000000048
  -9221145.033 9  -7166699.35146  23535728.983    23535728.9444   23535738.9114
        -0.000          -0.000
  -9636118.983 9  -7114853.97447  22132846.132    22132846.0694   22132855.4474
        -0.000          -0.000
  -5648306.152 9  -4384918.98946  23961253.189    23961252.0304   23961263.4694
        -0.000          -0.000
 -16159002.820 9 -12319140.45447  22409482.416    22409482.1584   22409491.9204
        -0.000          -0.000
  -3322268.701 9  -2548194.88846  22412119.412    22412119.5934   22412127.6124
        -0.000          -0.000
 -25460706.512 9 -19800320.36649  20765354.081    20765353.5554   20765361.2094
        -0.000          -0.000
  -2392240.577 7  -1852965.80045  24821112.099    24821112.2224   24821129.9864
        -0.000          -0.000
 -23499776.225 9 -18286500.62549  20706407.103    20706406.7134   20706413.9884
        -0.000          -0.000
 99  4 12  2 12 30.0000000  0  8  3  6 22 21 26 17 29 23             0.000000062
  -9315160.084 9  -7239957.73546  23517838.174    23517838.2004   23517848.1264
        -0.000          -0.000
  -9543613.594 9  -7042771.93047  22150449.363    22150449.2834   22150458.7324
        -0.000          -0.000
  -5597760.908 8  -4345533.16545  23970871.379    23970870.4224   23970881.6844
        -0.000          -0.000
 -16215628.560 9 -12363264.34347  22398706.934    22398706.5894   22398716.2984
        -0.000          -0.000
  -3260207.286 9  -2499835.28646  22423929.398    22423929.5564   22423937.7474
        -0.000          -0.000
 -25459720.202 9 -19799551.80449  20765541.661    20765541.1654   20765548.9034
        -0.000          -0.000
  -2500844.325 8  -1937591.59045  24800445.233    24800445.2784   24800463.2174
        -0.000          -0.000
 -23494772.629 9 -18282601.69749  20707359.120    20707358.7644   20707366.0904
        -0.000          -0.000
 99  4 12  2 13  0.0000000  0  8  3  6 22 21 26 17 29 23             0.000000053
  -9408964.779 9  -7313052.19446  23499987.637    23499987.6884   23499997.5554
        -0.000          -0.000
  -9450813.806 9  -6970460.45147  22168108.404    22168108.3084   22168117.9344
        -0.000          -0.000
  -5546956.413 8  -4305945.33645  23980538.790    23980538.1294   23980549.0894
        -0.000          -0.000
 -16272008.090 9 -12407196.37947  22387978.025    22387977.8364   22387987.4244
        -0.000          -0.000
  -3197645.447 9  -2451085.77146  22435834.541    22435834.7154   22435842.7664
        -0.000          -0.000
 -25458566.732 9 -19798652.99949  20765761.059    20765760.6134   20765768.4174
        -0.000          -0.000
  -2609501.037 8  -2022258.62045  24779768.754    24779768.4944   24779785.8364
        -0.000          -0.000
 -23489434.648 9 -18278442.21049  20708374.864    20708374.4914   20708381.8724
        -0.000          -0.000
 99  4 12  2 13 30.0000000  0  8  3  6 22 21 26 17 29 23             0.000000035
  -9502534.636 9  -7385963.66846  23482181.667    23482181.8344   23482191.6584
        -0.000          -0.000
  -9357688.916 9  -6897895.66347  22185829.359    22185829.3694   22185839.0364
        -0.000          -0.000
  -5495884.731 8  -4266149.29245  23990257.074    23990256.7414   23990267.4804
        -0.000          -0.000
 -16328115.650 9 -12450916.47047  22377301.095    22377300.9074   22377310.2854
        -0.000          -0.000
  -3134557.987 9  -2401926.69746  22447839.574    22447839.8144   22447847.7844
        -0.000          -0.000
 -25457218.738 9 -19797602.58949  20766017.651    20766017.2154   20766024.9424
        -0.000          -0.000
  -2718177.814 8  -2106941.29445  24759087.465    24759087.5314   24759104.9424
        -0.000          -0.000
 -23483738.503 9 -18274003.64149  20709458.811    20709458.4504   20709465.7764
        -0.000          -0.000
 99  4 12  2 14  0.0000000  0  8  3  6 22 21 26 17 29 23             0.000000020
  -9595845.870 9  -7458673.63546  23464425.250    23464425.4664   23464434.9254
        -0.000          -0.000
  -9264201.209 9  -6825048.17247  22203619.866    22203619.8434   22203629.2994
        -0.000          -0.000
  -5444511.300 8  -4226118.09845  24000032.661    24000032.5834   24000043.4734
        -0.000          -0.000
 -16383916.780 9 -12494397.79347  22366682.581    22366682.3184   22366691.5254
        -0.000          -0.000
  -3070926.877 9  -2352344.02246  22459948.141    22459948.3424   22459956.4764
        -0.000          -0.000
 -25455618.203 9 -19796355.38549  20766322.409    20766321.8844   20766329.4704
        -0.000          -0.000
  -2826830.669 7  -2191605.30445  24738411.206    24738411.4844   24738428.7654
        -0.000          -0.000
 -23477650.468 9 -18269259.69049  20710617.451    20710617.0584   20710624.2434
        -0.000          -0.000
 99  4 12  2 14 30.0000000  0  8  3  6 22 21 26 17 29 23             0.000000001
  -9688900.701 9  -7531183.80646  23446717.774    23446717.9154   23446727.0764
        -0.000          -0.000
  -9170356.394 9  -6751922.42347  22221478.235    22221478.1314   22221487.4454
        -0.000          -0.000
  -5392843.714 9  -4185857.74346  24009865.017    24009864.7564   24009875.6124
        -0.000          -0.000
 -16439432.243 9 -12537656.53347  22356118.231    22356117.9724   22356127.1894
        -0.000          -0.000
  -3006779.042 9  -2302358.70946  22472155.166    22472155.3814   22472163.4214
        -0.000          -0.000
 -25453762.955 9 -19794909.73049  20766675.475    20766674.9304   20766682.5844
        -0.000          -0.000
  -2935473.084 8  -2276261.18645  24717736.946    24717736.6394   24717754.7434
        -0.000          -0.000
 -23471181.212 9 -18264218.68849  20711848.509    20711848.0964   20711855.2514
        -0.000          -0.000
 99  4 12  2 15  0.0000000  0  8  3  6 22 21 26 17 29 23            -0.000000014
  -9781692.961 9  -7603489.37846  23429060.261    23429060.2894   23429069.1434
        -0.000          -0.000
  -9076150.289 9  -6678515.14347  22239405.035    22239405.0114   22239414.2124
        -0.000          -0.000
  -5340889.694 9  -4145374.14646  24019752.096    24019751.4724   24019762.4984
        -0.000          -0.000
 -16494666.052 9 -12580695.80347  22345607.459    22345607.2484   22345616.4014
        -0.000          -0.000
  -2942123.328 9  -2251977.67346  22484458.780    22484458.9924   22484466.9114
        -0.000          -0.000
 -25451647.720 9 -19793261.48949  20767077.917    20767077.4024   20767085.2214
        -0.000          -0.000
  -3044115.226 8  -2360916.84845  24697063.044    24697062.6514   24697080.3774
        -0.000          -0.000
 -23464360.317 9 -18258903.68849  20713146.390    20713146.0074   20713153.2864
        -0.000          -0.000
 99  4 12  2 15 30.0000000  0  8  3  6 22 21 26 17 29 23            -0.000000023
  -9874226.842 9  -7675593.59246  23411451.783    23411451.7294   23411460.3374
        -0.000          -0.000
  -8981587.182 9  -6604829.67247  22257399.788    22257399.8624   22257408.8824
        -0.000          -0.000
  -5288667.071 9  -4104681.27946  24029690.118    24029689.3224   24029700.2914
        -0.000          -0.000
 -16549634.081 9 -12623527.94847  22335147.568    22335147.2494   22335156.1784
        -0.000          -0.000
  -2876972.355 9  -2201210.64746  22496856.724    22496856.8304   22496864.6074
        -0.000          -0.000
 -25449279.612 9 -19791416.19149  20767528.512    20767528.0204   20767535.8814
        -0.000          -0.000
  -3152769.221 8  -2445581.78145  24676386.641    24676386.2834   24676404.0134
        -0.000          -0.000
 -23457221.069 9 -18253340.62749  20714504.871    20714504.5074   20714511.9894
        -0.000          -0.000
 99  4 12  2 16  0.0000000  0  8  3  6 22 21 26 17 29 23            -0.000000030
  -9966507.508 9  -7747500.53146  23393891.508    23393891.4054   23393899.7294
        -0.000          -0.000
  -8886689.020 9  -6530883.10647  22275458.391    22275458.4114   22275467.3044
        -0.000          -0.000
  -5236174.391 9  -4063777.97146  24039679.391    24039678.5554   24039689.7044
        -0.000          -0.000
 -16604356.377 9 -12666168.61547  22324734.291    22324733.9294   22324742.7464
        -0.000          -0.000
  -2811360.969 9  -2150084.92446  22509342.222    22509342.3364   22509349.9804
        -0.000          -0.000
 -25446684.707 9 -19789394.16549  20768022.280    20768021.7684   20768029.5944
        -0.000          -0.000
  -3261448.927 8  -2530266.73445  24655705.691    24655705.0314   24655722.3104
        -0.000          -0.000
 -23449787.087 9 -18247547.90749  20715919.400    20715919.0684   20715926.6404
        -0.000          -0.000
 99  4 12  2 16 30.0000000  0  8  3  6 22 21 26 17 29 23            -0.000000021
 -10058523.566 9  -7819201.27046  23376381.459    23376381.3974   23376389.4274
        -0.000          -0.000
  -8791461.640 9  -6456679.99647  22293579.571    22293579.5364   22293588.4904
        -0.000          -0.000
  -5183392.079 9  -4022649.02146  24049724.047    24049723.0134   24049734.1534
        -0.000          -0.000
 -16658826.351 9 -12708612.67047  22314369.054    22314368.5844   22314377.5574
        -0.000          -0.000
  -2745272.570 9  -2098587.47446  22521918.449    22521918.5704   22521926.2074
        -0.000          -0.000
 -25443869.097 9 -19787200.18149  20768558.049    20768557.5774   20768565.3454
        -0.000          -0.000
  -3370142.503 8  -2614962.49945  24635022.199    24635021.4694   24635038.0314
        -0.000          -0.000
 -23442052.201 9 -18241520.70749  20717391.412    20717391.0584   20717398.5194
        -0.000          -0.000
 99  4 12  2 17  0.0000000  0  8  3  6 22 21 26 17 29 23            -0.000000012
 -10150300.549 9  -7890715.73046  23358917.004    23358916.8884   23358924.7014
        -0.000          -0.000
  -8695945.788 9  -6382252.12247  22311755.852    22311755.7824   22311764.6364
        -0.000          -0.000
  -5130338.793 9  -3981308.91046  24059820.073    24059818.9534   24059829.9984
        -0.000          -0.000
 -16713059.074 9 -12750871.86448  22304048.852    22304048.4884   22304057.5344
        -0.000          -0.000
  -2678723.822 9  -2046731.31746  22534582.217    22534582.3634   22534590.0534
        -0.000          -0.000
 -25440855.762 9 -19784852.11749  20769131.493    20769131.0004   20769138.6754
        -0.000          -0.000
  -3478865.289 8  -2699680.98245  24614332.667    24614332.1624   24614348.0464
        -0.000          -0.000
 -23434043.301 9 -18235279.98649  20718915.563    20718915.1934   20718922.5594
        -0.000          -0.000
 99  4 12  2 17 30.0000000  0  8  3  6 22 21 26 17 29 23            -0.000000002
 -10241825.311 9  -7962033.65146  23341500.505    23341500.2064   23341507.8564
        -0.000          -0.000
  -8600156.157 9  -6307610.91347  22329984.554    22329984.2844   22329992.7614
        -0.000          -0.000
  -5076995.367 9  -3939742.70946  24069971.107    24069969.8674   24069981.0084
        -0.000          -0.000
 -16767044.097 9 -12792938.03848  22293775.978    22293775.5104   22293784.4934
        -0.000          -0.000
  -2611705.734 9  -1994509.43346  22547335.296    22547335.4354   22547343.2644
        -0.000          -0.000
 -25437623.828 9 -19782333.71649  20769746.562    20769746.0444   20769753.6674
        -0.000          -0.000
  -3587597.447 8  -2784406.81845  24593641.116    24593640.7384   24593656.3564
        -0.000          -0.000
 -23425742.227 9 -18228811.59849  20720495.133    20720494.7404   20720502.2284
        -0.000          -0.000
 99  4 12  2 18  0.0000000  0  8  3  6 22 21 26 17 29 23            -0.000000002
 -10333102.438 9  -8033158.60346  23324130.750    23324130.4724   23324138.2614
        -0.000          -0.000
  -8504112.857 9  -6232772.04147  22348261.024    22348260.7414   22348269.0654
        -0.000          -0.000
  -5023369.083 9  -3897956.10446  24080175.652    24080174.4924   24080185.9804
        -0.000          -0.000
 -16820788.381 9 -12834816.62947  22283548.676    22283548.2414   22283557.1364
        -0.000          -0.000
  -2544222.902 9  -1941925.40146  22560176.834    22560176.9954   22560184.9704
        -0.000          -0.000
 -25434172.032 9 -19779643.98649  20770403.561    20770402.9794   20770410.5684
        -0.000          -0.000
  -3696340.877 8  -2869141.41445  24572947.404    24572946.9634   24572962.5674
        -0.000          -0.000
 -23417149.274 9 -18222115.77449  20722130.180    20722129.8184   20722137.3594
        -0.000          -0.000
 99  4 12  2 18 30.0000000  0  8  3  6 22 21 26 17 29 23            -0.000000007
 -10424111.982 9  -8104075.04346  23306811.662    23306811.5614   23306819.6754
        -0.000          -0.000
  -8407792.415 9  -6157717.21547  22366590.017    22366589.7334   22366598.2144
        -0.000          -0.000
  -4969467.895 9  -3855955.25446  24090432.620    24090431.5414   24090443.2294
        -0.000          -0.000
 -16874274.475 9 -12876494.01147  22273370.410    22273369.9384   22273378.9514
        -0.000          -0.000
  -2476254.686 9  -1888963.17146  22573110.577    22573110.9404   22573118.8354
        -0.000          -0.000
 -25430484.880 9 -19776770.85649  20771105.181    20771104.5744   20771112.0954
        -0.000          -0.000
  -3805078.658 8  -2953871.66045  24552255.127    24552254.7484   24552269.6324
        -0.000          -0.000
 -23408235.753 9 -18215170.14249  20723826.324    20723826.0434   20723833.4624
        -0.000          -0.000
 99  4 12  2 19  0.0000000  0  8  3  6 22 21 26 17 29 23            -0.000000004
 -10514815.098 9  -8174752.72446  23289550.843    23289550.9304   23289559.5164
        -0.000          -0.000
  -8311160.262 9  -6082419.50347  22384978.273    22384978.0424   22384986.7024
        -0.000          -0.000
  -4915301.389 9  -3813747.67346  24100740.124    24100739.0864   24100750.9794
        -0.000          -0.000
 -16927474.617 9 -12917948.58847  22263246.352    22263245.9964   22263255.1024
        -0.000          -0.000
  -2407783.266 9  -1835608.86246  22586140.432    22586140.7314   22586148.5954
        -0.000          -0.000
 -25426544.472 9 -19773700.39849  20771854.898    20771854.3444   20771861.8074
        -0.000          -0.000
  -3913778.260 9  -3038572.11645  24531570.057    24531569.8274   24531584.1794
        -0.000          -0.000
 -23398983.210 9 -18207960.34349  20725587.151    20725586.8254   20725594.1034
        -0.000          -0.000
 99  4 12  2 19 30.0000000  0  8  3  6 22 21 26 17 29 23            -0.000000032
 -10605221.747 9  -8245199.38946  23272346.525    23272346.7904   23272355.7714
        -0.000          -0.000
  -8214218.667 9  -6006880.68247  22403425.625    22403425.4314   22403434.2044
        -0.000          -0.000
  -4860906.316 9  -3771362.00546  24111091.146    24111090.1994   24111102.2254
        -0.000          -0.000
 -16980424.668 9 -12959208.29947  22253170.159    22253169.7214   22253178.7824
        -0.000          -0.000
  -2338828.141 8  -1781877.55745  22599262.176    22599262.4274   22599270.3524
        -0.000          -0.000
 -25422374.402 9 -19770450.98449  20772648.373    20772647.8454   20772655.3804
        -0.000          -0.000
  -4022449.187 8  -3123250.19745  24510890.441    24510890.2754   24510904.0934
        -0.000          -0.000
 -23389408.082 9 -18200499.18849  20727409.315    20727408.9334   20727416.1674
        -0.000          -0.000
 99  4 12  2 20  0.0000000  0  8  3  6 22 21 26 17 29 23            -0.000000013
 -10695345.099 9  -8315425.29946  23255196.186    23255196.6134   23255205.8654
        -0.000          -0.000
  -8116953.700 9  -5931089.86847  22421934.425    22421934.2784   22421943.2354
        -0.000          -0.000
  -4806300.106 9  -3728811.80346  24121482.337    24121481.3164   24121493.7214
        -0.000          -0.000
 -17033124.944 9 -13000273.37947  22243141.505    22243141.0744   22243150.1244
        -0.000          -0.000
  -2269394.101 9  -1727773.08345  22612474.872    22612475.0994   22612483.1494
        -0.000          -0.000
 -25417996.633 9 -19767039.72549  20773481.339    20773480.8484   20773488.5114
        -0.000          -0.000
  -4131092.983 8  -3207907.17445  24490215.989    24490215.5684   24490229.0734
        -0.000          -0.000
 -23379525.256 9 -18192798.26949  20729289.983    20729289.5914   20729296.7664
        -0.000          -0.000
 99  4 12  2 20 30.0000000  0  8  3  6 22 21 26 17 29 23             0.000000002
 -10785197.924 9  -8385440.43046  23238097.478    23238098.0894   23238107.3864
        -0.000          -0.000
  -8019389.053 9  -5855065.55147  22440500.151    22440500.0764   22440509.2744
        -0.000          -0.000
  -4751509.759 9  -3686118.08346  24131908.540    24131907.5174   24131920.0594
        -0.000          -0.000
 -17085592.089 9 -13041156.78448  22233157.413    22233156.9954   22233165.9924
        -0.000          -0.000
  -2199493.533 8  -1673305.11445  22625776.433    22625776.6104   22625784.5274
        -0.000          -0.000
 -25413431.195 9 -19763482.22049  20774350.244    20774349.7474   20774357.2504
        -0.000          -0.000
  -4239728.509 8  -3292557.77345  24469543.019    24469542.2494   24469556.0994
        -0.000          -0.000
 -23369356.670 9 -18184874.68049  20731224.959    20731224.5624   20731231.6814
        -0.000          -0.000
 99  4 12  2 21  0.0000000  0  8  3  6 22 21 26 17 29 23             0.000000022
 -10874786.057 9  -8455249.27646  23221049.588    23221050.0414   23221059.2624
        -0.000          -0.000
  -7921548.471 9  -5778826.19247  22459118.561    22459118.4864   22459127.8164
        -0.000          -0.000
  -4696523.797 9  -3643271.97046  24142372.330    24142371.3334   24142383.6084
        -0.000          -0.000
 -17137832.775 9 -13081863.72948  22223216.505    22223216.0484   22223224.8734
        -0.000          -0.000
  -2129117.928 9  -1618466.98145  22639168.422    22639168.6084   22639176.7104
        -0.000          -0.000
 -25408664.253 9 -19759767.70449  20775257.414    20775256.8494   20775264.3094
        -0.000          -0.000
  -4348354.344 8  -3377200.75745  24448871.429    24448870.5224   24448885.0134
        -0.000          -0.000
 -23358918.597 9 -18176741.09349  20733211.229    20733210.8274   20733217.8884
        -0.000          -0.000
 99  4 12  2 21 30.0000000  0  8  3  6 22 21 26 17 29 23             0.000000031
 -10964126.844 9  -8524865.40646  23204048.739    23204049.1514   23204058.2014
        -0.000          -0.000
  -7823455.235 9  -5702389.99147  22477785.230    22477785.2134   22477794.5164
        -0.000          -0.000
  -4641328.798 9  -3600262.97646  24152875.964    24152874.8824   24152886.6654
        -0.000          -0.000
 -17189850.532 9 -13122396.97048  22213317.768    22213317.3014   22213326.0814
        -0.000          -0.000
  -2058276.590 8  -1563265.96045  22652649.185    22652649.1874   22652657.4584
        -0.000          -0.000
 -25403690.623 9 -19755892.13449  20776203.773    20776203.2244   20776210.6924
        -0.000          -0.000
  -4456999.093 8  -3461858.57745  24428195.565    24428194.9854   24428210.8424
        -0.000          -0.000
 -23348214.924 9 -18168400.54749  20735247.944    20735247.5674   20735254.6914
        -0.000          -0.000
 99  4 12  2 22  0.0000000  0  8  3  6 22 21 26 17 29 23             0.000000045
 -11053183.286 9  -8594259.95746  23187101.935    23187102.2734   23187111.3214
        -0.000          -0.000
  -7725091.132 9  -5625742.71347  22496503.665    22496503.5144   22496512.6724
        -0.000          -0.000
  -4585877.044 9  -3557053.90846  24163428.048    24163427.1264   24163438.7764
        -0.000          -0.000
 -17241598.014 9 -13162719.60948  22203470.389    22203469.9784   22203478.7904
        -0.000          -0.000
  -1986945.513 8  -1507683.25745  22666223.139    22666223.2004   22666230.9614
        -0.000          -0.000
 -25398467.133 9 -19751821.86549  20777197.756    20777197.1964   20777204.6354
        -0.000          -0.000
  -4565647.456 8  -3546519.19245  24407519.789    24407519.4474   24407535.5174
        -0.000          -0.000
 -23337211.427 9 -18159826.36949  20737341.732    20737341.3584   20737348.5824
        -0.000          -0.000
 99  4 12  2 22 30.0000000  0  8  3  6 22 21 26 17 29 23             0.000000061
 -11141942.863 9  -8663423.18146  23170211.554    23170211.8364   23170221.0224
        -0.000          -0.000
  -7626467.526 9  -5548893.22947  22515271.369    22515271.2024   22515280.2394
        -0.000          -0.000
  -4530166.855 9  -3513643.46746  24174029.563    24174028.5084   24174040.0864
        -0.000          -0.000
 -17293097.225 9 -13202848.77348  22193670.291    22193669.8924   22193678.7404
        -0.000          -0.000
  -1915135.029 8  -1451726.99945  22679888.198    22679888.3504   22679896.0404
        -0.000          -0.000
 -25392998.721 9 -19747560.75349  20778238.374    20778237.8154   20778245.2374
        -0.000          -0.000
  -4674314.111 8  -3631194.08345  24386841.220    24386840.6214   24386856.6974
        -0.000          -0.000
 -23325908.238 9 -18151018.66549  20739492.579    20739492.1884   20739499.4664
        -0.000          -0.000
 99  4 12  2 23  0.0000000  0  8  3  6 22 21 26 17 29 23             0.000000064
 -11230422.669 9  -8732368.40846  23153374.226    23153374.5634   23153384.0194
        -0.000          -0.000
  -7527592.385 9  -5471847.73447  22534086.718    22534086.6064   22534095.5914
        -0.000          -0.000
  -4474204.543 9  -3470036.57446  24184678.681    24184677.7564   24184689.4204
        -0.000          -0.000
 -17344359.727 9 -13242793.50248  22183915.249    22183914.8664   22183923.7394
        -0.000          -0.000
  -1842876.413 8  -1395421.60745  22693638.642    22693638.8704   22693646.7874
        -0.000          -0.000
 -25387297.988 9 -19743118.62249  20779323.112    20779322.5454   20779330.1204
        -0.000          -0.000
  -4783011.388 8  -3715892.78645  24366156.557    24366156.1924   24366171.6294
        -0.000          -0.000
 -23314310.834 9 -18141981.69249  20741699.449    20741699.0814   20741706.3484
        -0.000          -0.000
 99  4 12  2 23 30.0000000  0  8  3  6 22 21 26 17 29 23             0.000000070
 -11318589.386 9  -8801069.68246  23136596.359    23136596.8984   23136606.4144
        -0.000          -0.000
  -7428413.234 9  -5394565.35447  22552960.162    22552959.9414   22552968.8474
        -0.000          -0.000
  -4417959.558 9  -3426209.37646  24195381.790    24195380.9374   24195392.4784
        -0.000          -0.000
 -17395345.256 9 -13282522.40948  22174212.958    22174212.6424   22174221.3644
        -0.000          -0.000
  -1770148.356 9  -1338750.41745  22707478.405    22707478.5114   22707485.9944
        -0.000          -0.000
 -25381332.437 9 -19738470.11949  20780458.287    20780457.7884   20780465.2324
        -0.000          -0.000
  -4891703.294 8  -3800587.31145  24345472.623    24345472.5104   24345487.4724
        -0.000          -0.000
 -23302388.347 9 -18132691.40949  20743968.257    20743967.9004   20743975.1154
        -0.000          -0.000
 99  4 12  2 24  0.0000000  0  8  3  6 22 21 26 17 29 23             0.000000058
 -11406476.378 9  -8869552.95846  23119871.823    23119872.3264   23119882.0274
        -0.000          -0.000
  -7328978.704 9  -5317084.01247  22571881.986    22571881.8114   22571890.6324
        -0.000          -0.000
  -4361487.959 9  -3382205.67046  24206127.619    24206126.8284   24206138.5714
        -0.000          -0.000
 -17446119.407 9 -13322086.61448  22164551.017    22164550.6614   22164559.1604
        -0.000          -0.000
  -1697011.076 8  -1281760.36345  22721396.081    22721396.1554   22721403.5814
        -0.000          -0.000
 -25375152.502 9 -19733654.56549  20781634.325    20781633.7954   20781641.1744
        -0.000          -0.000
  -5000418.410 8  -3885299.97945  24324784.036    24324784.3934   24324798.8514
        -0.000          -0.000
 -23290202.326 9 -18123195.79149  20746287.169    20746286.8144   20746294.0194
        -0.000          -0.000
 99  4 12  2 24 30.0000000  0  8  3  6 22 21 26 17 29 23             0.000000051
 -11494053.541 9  -8937794.84946  23103206.280    23103206.9524   23103216.6554
        -0.000          -0.000
  -7229255.599 9  -5239377.76647  22590858.623    22590858.5034   22590867.4844
        -0.000          -0.000
  -4304774.571 9  -3338013.50546  24216919.472    24216918.8964   24216930.3634
        -0.000          -0.000
 -17496644.377 9 -13361456.64948  22154936.264    22154935.8984   22154944.4784
        -0.000          -0.000
  -1623430.393 8  -1224424.78545  22735398.039    22735398.1814   22735405.2934
        -0.000          -0.000
 -25368720.048 9 -19728642.26349  20782858.245    20782857.7574   20782865.3354
        -0.000          -0.000
  -5109104.027 8  -3969989.60545  24304101.521    24304101.8614   24304116.0654
        -0.000          -0.000
 -23277719.381 9 -18113468.79149  20748662.602    20748662.2404   20748669.3864
        -0.000          -0.000
 99  4 12  2 25  0.0000000  0  8  3  6 22 21 26 17 29 23             0.000000043
 -11581334.236 9  -9005805.67546  23086597.094    23086597.7814   23086607.5464
        -0.000          -0.000
  -7129247.046 9  -5161449.10347  22609889.666    22609889.5094   22609898.7124
        -0.000          -0.000
  -4247823.453 9  -3293636.10046  24227756.859    24227756.3544   24227767.5874
        -0.000          -0.000
 -17546901.784 9 -13400618.19148  22145372.176    22145371.9294   22145380.7564
        -0.000          -0.000
  -1549408.131 8  -1166745.18545  22749483.854    22749484.2304   22749490.7274
        -0.000          -0.000
 -25362013.488 9 -19723416.36149  20784134.473    20784134.0234   20784141.6774
        -0.000          -0.000
  -5217738.287 9  -4054639.23945  24283429.312    24283429.3514   24283443.1944
        -0.000          -0.000
 -23264938.690 9 -18103509.77349  20751094.783    20751094.3664   20751101.4294
        -0.000          -0.000
 99  4 12  2 25 30.0000000  0  8  3  6 22 21 26 17 29 23             0.000000036
 -11668302.606 9  -9073573.13646  23070047.722    23070048.1784   23070057.9994
        -0.000          -0.000
  -7028961.129 9  -5083304.31647  22628973.415    22628973.3174   22628982.6604
        -0.000          -0.000
  -4190645.617 9  -3249082.05046  24238637.548    24238637.0904   24238648.4144
        -0.000          -0.000
 -17596898.984 9 -13439576.98248  22135857.759    22135857.5154   22135866.5244
        -0.000          -0.000
  -1474954.962 8  -1108729.73345  22763651.727    22763652.2314   22763658.6924
        -0.000          -0.000
 -25355033.295 9 -19717977.23849  20785462.884    20785462.3944   20785470.0124
        -0.000          -0.000
  -5326328.373 9  -4139254.44745  24262765.459    24262765.3684   24262779.0454
        -0.000          -0.000
 -23251876.857 9 -18093331.69549  20753580.446    20753579.9864   20753586.9544
        -0.000          -0.000
 99  4 12  2 26  0.0000000  0  8  3  6 22 21 26 17 29 23             0.000000026
 -11754945.846 9  -9141087.27946  23053560.379    23053560.5824   23053570.3184
        -0.000          -0.000
  -6928403.189 9  -5004947.55347  22648108.753    22648108.8004   22648118.2054
        -0.000          -0.000
  -4133261.518 9  -3204367.28146  24249557.824    24249557.3504   24249568.3484
        -0.000          -0.000
 -17646635.776 9 -13478332.86048  22126392.897    22126392.7674   22126401.9354
        -0.000          -0.000
  -1400073.204 7  -1050380.37445  22777901.667    22777901.6564   22777908.7854
        -0.000          -0.000
 -25347785.161 9 -19712329.32649  20786842.108    20786841.6094   20786849.2124
        -0.000          -0.000
  -5434864.633 9  -4223827.73645  24242111.440    24242111.1664   24242125.0304
        -0.000          -0.000
 -23238514.371 9 -18082919.35049  20756123.221    20756122.7654   20756129.7444
        -0.000          -0.000
 99  4 12  2 26 30.0000000  0  8  3  6 22 21 26 17 29 23             0.000000006
 -11841277.811 9  -9208358.83246  23037132.080    23037132.2154   23037141.8534
        -0.000          -0.000
  -6827558.488 9  -4926367.34947  22667298.921    22667298.8764   22667308.3524
        -0.000          -0.000
  -4075679.283 9  -3159498.14646  24260515.792    24260515.2844   24260526.0324
        -0.000          -0.000
 -17696089.613 9 -13516868.25248  22116982.273    22116982.1714   22116991.2794
        -0.000          -0.000
  -1324743.944 7   -991682.22044  22792236.411    22792236.5144   22792244.0094
        -0.000          -0.000
 -25340272.530 9 -19706475.31549  20788271.655    20788271.1994   20788278.7364
        -0.000          -0.000
  -5543330.573 8  -4308346.21545  24221470.733    24221470.5864   24221484.3584
        -0.000          -0.000
 -23224828.615 9 -18072255.11949  20758727.481    20758727.0224   20758734.1734
        -0.000          -0.000
 99  4 12  2 27  0.0000000  0  8  3  6 22 21 26 17 29 23             0.000000002
 -11927261.725 9  -9275359.20947  23020770.152    23020770.2524   23020779.7104
        -0.000          -0.000
  -6726404.310 9  -4847546.00347  22686547.810    22686547.7004   22686557.4944
        -0.000          -0.000
  -4017872.110 9  -3114453.71346  24271516.838    24271516.1384   24271526.7414
        -0.000          -0.000
 -17745243.743 9 -13555170.10648  22107628.977    22107628.6074   22107637.5104
        -0.000          -0.000
  -1248938.31016   -932612.73554  22806661.751    22806661.4475          0.0005
        -0.000          -0.000
 -25332488.929 9 -19700410.14849  20789752.957    20789752.4544   20789759.8494
        -0.000          -0.000
  -5651707.821 9  -4392795.57645  24200846.698    24200846.5144   24200860.4424
        -0.000          -0.000
 -23210804.816 9 -18061327.47349  20761396.132    20761395.7154   20761402.8924
        -0.000          -0.000
 99  4 12  2 27 30.0000000  0  8  3  6 22 21 26 17 29 23            -0.000000010
 -12012922.794 9  -9342108.01247  23004469.748    23004469.6074   23004478.8084
        -0.000          -0.000
  -6624997.533 9  -4768527.80447  22705844.730    22705844.6914   22705854.6854
        -0.000          -0.000
  -3959896.675 9  -3069278.13845  24282549.498    24282548.6614   24282559.1674
        -0.000          -0.000
 -17794154.516 9 -13593282.33648  22098321.508    22098321.1014   22098329.9024
        -0.000          -0.000
  -1172698.069 7   -873204.72554  22821169.301    22821169.1264          0.0005
        -0.000          -0.000
 -25324502.134 9 -19694186.65849  20791272.782    20791272.2724   20791279.5654
        -0.000          -0.000
  -5760050.454 9  -4477217.99145  24180229.151    24180229.0764   24180243.2674
        -0.000          -0.000
 -23196489.115 9 -18050172.36849  20764120.285    20764119.8394   20764127.0884
        -0.000          -0.000
 99  4 12  2 28  0.0000000  0  8  3  6 22 21 26 17 29 23            -0.000000008
 -12098255.854 9  -9408601.21347  22988231.618    22988231.3194   22988240.3174
        -0.000          -0.000
  -6523327.288 9  -4689304.31247  22725191.978    22725191.9164   22725202.0384
        -0.000          -0.000
  -3901725.617 9  -3023950.19845  24293618.852    24293618.3384   24293628.6224
        -0.000          -0.000
 -17842806.593 9 -13631192.98648  22089063.047    22089062.7414   22089071.5794
        -0.000          -0.000
  -1095994.178 7   -813435.49044  22835765.514    22835764.9984   22835773.6854
        -0.000          -0.000
 -25316297.101 9 -19687793.11148  20792833.927    20792833.4614   20792840.7724
        -0.000          -0.000
  -5868323.621 9  -4561586.28745  24159625.192    24159625.1104   24159639.4014
        -0.000          -0.000
 -23181871.185 9 -18038781.75549  20766901.873    20766901.4734   20766908.7484
        -0.000          -0.000
 99  4 12  2 28 30.0000000  0  8  3  6 22 21 26 17 29 23             0.000000001
 -12183279.820 9  -9474853.57347  22972051.909    22972051.6604   22972060.5774
        -0.000          -0.000
  -6421431.336 9  -4609904.95247  22744582.290    22744582.1934   22744592.2504
        -0.000          -0.000
  -3843361.124 9  -2978471.47745  24304725.037    24304724.5304   24304735.0694
        -0.000          -0.000
 -17891225.600 9 -13668922.01648  22079849.074    22079848.8794   22079857.6964
        -0.000          -0.000
  -1018849.801 8   -753323.06445  22850445.192    22850445.2454   22850453.6004
        -0.000          -0.000
 -25307883.360 9 -19681236.93148  20794434.792    20794434.4134   20794441.7794
        -0.000          -0.000
  -5976557.439 9  -4645923.91745  24139028.849    24139028.7094   24139043.0174
        -0.000          -0.000
 -23167000.929 9 -18027194.52049  20769731.628    20769731.1844   20769738.3524
        -0.000          -0.000
 99  4 12  2 29  0.0000000  0  8  3  6 22 21 26 17 29 23             0.000000015
 -12267974.770 9  -9540849.55647  22955934.704    22955934.6174   22955943.5604
        -0.000          -0.000
  -6319336.383 9  -4530350.54247  22764010.569    22764010.3734   22764020.2984
        -0.000          -0.000
  -3784808.950 8  -2932846.51645  24315866.480    24315866.2064   24315877.3604
        -0.000          -0.000
 -17939430.571 9 -13706484.27148  22070676.163    22070675.9594   22070684.5834
        -0.000          -0.000
   -941292.611 8   -692888.89245  22865204.182    22865204.2484   22865212.3674
        -0.000          -0.000
 -25299253.075 9 -19674512.02948  20796077.068    20796076.6464   20796083.9984
        -0.000          -0.000
  -6084778.872 8  -4730251.89745  24118434.522    24118434.3284   24118448.3464
        -0.000          -0.000
 -23151908.703 9 -18015434.31949  20772603.647    20772603.1664   20772610.1164
        -0.000          -0.000
 99  4 12  2 29 30.0000000  0  8  3  6 22 21 26 17 29 23             0.000000026
 -12352341.862 9  -9606590.08947  22939879.936    22939880.0514   22939888.9354
        -0.000          -0.000
  -6217037.275 9  -4450637.01247  22783477.309    22783477.1584   22783487.1684
        -0.000          -0.000
  -3726061.460 8  -2887069.34345  24327045.260    24327045.1684   24327056.9074
        -0.000          -0.000
 -17987412.537 9 -13743872.76048  22061545.785    22061545.3504   22061553.7784
        -0.000          -0.000
   -863328.449 8   -632137.60545  22880040.084    22880040.3974   22880048.6954
        -0.000          -0.000
 -25290377.859 9 -19667596.26749  20797766.088    20797765.6064   20797772.9674
        -0.000          -0.000
  -6192971.853 8  -4814557.74045  24097844.908    24097844.9514   24097858.8904
        -0.000          -0.000
 -23136578.588 9 -18003488.76549  20775520.828    20775520.3574   20775527.2324
        -0.000          -0.000
 99  4 12  2 30  0.0000000  0  8  3  6 22 21 26 17 29 23             0.000000026
 -12436403.727 9  -9672092.77447  22923883.388    22923883.5064   22923892.3784
        -0.000          -0.000
  -6114524.164 9  -4370756.74947  22802984.882    22802984.8334   22802994.8714
        -0.000          -0.000
  -3667121.424 9  -2841142.14446  24338260.987    24338260.9524   24338272.9164
        -0.000          -0.000
 -18035165.126 9 -13781082.52348  22052458.707    22052458.3214   22052466.6124
        -0.000          -0.000
   -784970.151 8   -571079.20945  22894951.083    22894951.3574   22894959.9074
        -0.000          -0.000
 -25281253.151 9 -19660486.07849  20799502.506    20799501.9654   20799509.4534
        -0.000          -0.000
  -6301135.776 8  -4898840.93245  24077260.834    24077261.1704   24077275.4524
        -0.000          -0.000
 -23121011.018 9 -17991358.18349  20778483.213    20778482.7654   20778489.6664
        -0.000          -0.000
 99  4 12  2 30 30.0000000  0  8  3  6 22 21 26 17 29 23             0.000000004
 -12520164.248 9  -9737360.65547  22907944.037    22907944.3294   22907953.2234
        -0.000          -0.000
  -6011789.750 9  -4290704.04647  22822534.619    22822534.6474   22822544.7044
        -0.000          -0.000
  -3608005.347 9  -2795077.79146  24349510.500    24349510.4144   24349522.5714
        -0.000          -0.000
 -18082680.537 9 -13818107.45348  22043416.723    22043416.4504   22043424.6134
        -0.000          -0.000
   -706223.483 8   -509718.17645  22909935.609    22909935.7434   22909944.8914
        -0.000          -0.000
 -25271887.437 9 -19653188.10648  20801284.501    20801284.0014   20801291.7014
        -0.000          -0.000
  -6409272.492 9  -4983102.94045  24056682.831    24056683.1854   24056697.5944
        -0.000          -0.000
 -23105192.420 9 -17979032.00349  20781493.372    20781492.9624   20781499.9574
        -0.000          -0.000
 99  4 12  2 31  0.0000000  0  8  3  6 22 21 26 17 29 23            -0.000000006
 -12603580.183 9  -9802360.02347  22892070.508    22892070.8294   22892079.7254
        -0.000          -0.000
  -5908757.518 9  -4210419.24747  22842141.127    22842141.1054   22842151.2314
        -0.000          -0.000
  -3548662.635 9  -2748836.86246  24360803.296    24360803.1474   24360815.1434
        -0.000          -0.000
 -18129902.942 9 -13854904.06148  22034430.624    22034430.2824   22034438.4884
        -0.000          -0.000
   -627036.042 8   -448013.61445  22925004.514    22925005.0494   22925013.9654
        -0.000          -0.000
 -25262247.825 9 -19645676.70349  20803118.718    20803118.2914   20803126.1664
        -0.000          -0.000
  -6517310.915 9  -5067288.34545  24036124.217    24036124.4674   24036138.2944
        -0.000          -0.000
 -23089049.624 9 -17966453.19249  20784565.295    20784564.8754   20784571.8734
        -0.000          -0.000
 99  4 12  2 31 30.0000000  0  8  3  6 22 21 26 17 29 23            -0.000000016
 -12686695.295 9  -9867125.01047  22876254.518    22876254.7184   22876263.5384
        -0.000          -0.000
  -5805429.160 9  -4129903.74847  22861803.871    22861803.8424   22861814.1624
        -0.000          -0.000
  -3489107.164 9  -2702430.12346  24372136.737    24372136.2914   24372148.4694
        -0.000          -0.000
 -18176855.137 9 -13891490.11848  22025495.807    22025495.4674   22025503.7674
        -0.000          -0.000
   -547423.566 8   -385977.94045  22940154.648    22940155.1594   22940163.3854
        -0.000          -0.000
 -25252370.981 9 -19637980.44149  20804998.419    20804997.9094   20805005.7554
        -0.000          -0.000
  -6625255.856 8  -5151400.91045  24015583.193    24015583.3184   24015596.6864
        -0.000          -0.000
 -23072595.913 9 -17953632.11449  20787696.345    20787695.8884   20787702.9344
        -0.000          -0.000
 99  4 12  2 32  0.0000000  0  8  3  6 22 21 26 17 29 23            -0.000000012
 -12769496.532 9  -9931645.39847  22860498.214    22860498.3564   22860507.0924
        -0.000          -0.000
  -5701794.207 9  -4049149.30046  22881525.077    22881524.9504   22881535.3804
        -0.000          -0.000
  -3429345.584 9  -2655862.81146  24383509.577    24383508.9774   24383520.7604
        -0.000          -0.000
 -18223549.709 9 -13927875.42748  22016610.056    22016609.7584   22016618.1504
        -0.000          -0.000
   -467380.695 8   -323606.94044  22955386.811    22955387.7034   22955394.8704
        -0.000          -0.000
 -25242262.780 9 -19630103.90249  20806921.945    20806921.4584   20806929.1824
        -0.000          -0.000
  -6733100.526 8  -5235435.34345  23995060.886    23995061.0254   23995074.3844
        -0.000          -0.000
 -23055849.154 9 -17940582.68549  20790883.038    20790882.6414   20790889.7374
        -0.000          -0.000
 99  4 12  2 32 30.0000000  0  8  3  6 22 21 26 17 29 23             0.000000004
 -12851975.697 9  -9995914.82947  22844803.280    22844803.2624   22844811.9074
        -0.000          -0.000
  -5597878.058 9  -3968175.74046  22901299.571    22901299.5414   22901309.9434
        -0.000          -0.000
  -3369404.155 9  -2609155.31146  24394916.736    24394916.0104   24394927.1264
        -0.000          -0.000
 -18270015.373 9 -13964082.38148  22007767.893    22007767.5804   22007776.0844
        -0.000          -0.000
   -386921.930 7   -260911.89444  22970697.855    22970698.5774   22970704.6824
        -0.000          -0.000
 -25231933.166 9 -19622054.82549  20808887.668    20808887.1474   20808894.7424
        -0.000          -0.000
  -6840865.061 9  -5319407.32746  23974553.789    23974553.9224   23974567.3174
        -0.000          -0.000
 -23038840.006 9 -17927328.78449  20794119.756    20794119.3714   20794126.5114
        -0.000          -0.000
 99  4 12  2 33  0.0000000  0  8  3  6 22 21 26 17 29 23             0.000000038
 -12934108.908 9 -10059914.67647  22829174.170    22829173.9924   22829182.5924
        -0.000          -0.000
  -5493688.439 9  -3886989.09646  22921126.047    22921126.0954   22921136.4404
        -0.000          -0.000
  -3309280.018 9  -2562305.44246  24406358.852    24406357.8694   24406368.3594
        -0.000          -0.000
 -18316255.731 9 -14000113.75748  21998968.572    21998968.2414   21998976.8154
        -0.000          -0.000
   -306046.719 7   -197892.25844  22986087.934    22986088.9444   22986094.6014
        -0.000          -0.000
 -25221364.539 9 -19613819.50449  20810898.866    20810898.3254   20810905.9404
        -0.000          -0.000
  -6948551.521 9  -5403318.52946  23954061.791    23954061.8194   23954075.2844
        -0.000          -0.000
 -23021571.362 9 -17913872.66649  20797405.846    20797405.4464   20797412.6034
        -0.000          -0.000
 99  4 12  2 33 30.0000000  0  8  3  6 22 21 26 17 29 23             0.000000053
 -13015923.213 9 -10123666.04547  22813605.425    22813605.2204   22813613.9354
        -0.000          -0.000
  -5389300.782 9  -3805648.13846  22940990.461    22940990.5624   22941000.7374
        -0.000          -0.000
  -3249038.922 9  -2515364.46246  24417823.008    24417821.8534   24417831.9314
        -0.000          -0.000
 -18362316.009 9 -14036004.81848  21990203.378    21990203.1404   21990211.6844
        -0.000          -0.000
   -224798.477 7   -134581.95944  23001548.815    23001549.6124   23001556.0044
        -0.000          -0.000
 -25210573.609 9 -19605410.97549  20812952.276    20812951.6944   20812959.3464
        -0.000          -0.000
  -7056223.150 9  -5487218.13146  23933572.260    23933572.3034   23933585.7184
        -0.000          -0.000
 -23004091.463 9 -17900251.95949  20800732.027    20800731.6634   20800738.9254
        -0.000          -0.000
 99  4 12  2 34  0.0000000  0  8  3  6 22 21 26 17 29 23             0.000000054
 -13097382.384 9 -10187140.66647  22798104.229    22798103.9614   22798112.7484
        -0.000          -0.000
  -5284718.339 9  -3724155.40846  22960892.160    22960892.1854   22960902.0934
        -0.000          -0.000
  -3188673.814 9  -2468326.83146  24429310.252    24429308.8924   24429319.1974
        -0.000          -0.000
 -18408157.455 9 -14071725.35448  21981480.073    21981479.7984   21981488.2324
        -0.000          -0.000
   -143151.921 8    -70961.25844  23017084.672    23017085.7144   23017093.3974
        -0.000          -0.000
 -25199521.033 9 -19596798.57449  20815055.406    20815054.9174   20815062.5254
        -0.000          -0.000
  -7163863.685 9  -5571093.52546  23913088.600    23913088.6444   23913102.0694
        -0.000          -0.000
 -22986373.076 9 -17886445.41749  20804103.830    20804103.4394   20804110.6544
        -0.000          -0.000
 99  4 12  2 34 30.0000000  0  8  3  6 22 21 26 17 29 23             0.000000041
 -13178471.454 9 -10250326.89347  22782673.509    22782673.1844   22782681.9094
        -0.000          -0.000
  -5179954.880 9  -3642521.63846  22980827.959    22980828.0844   22980838.0434
        -0.000          -0.000
  -3128160.223 9  -2421173.54246  24440824.885    24440823.8104   24440834.8174
        -0.000          -0.000
 -18453737.844 9 -14107242.46948  21972806.501    21972806.1834   21972814.4624
        -0.000          -0.000
    -61094.849 8     -7020.65845  23032699.910    23032700.9024   23032708.3814
        -0.000          -0.000
 -25188185.589 9 -19587965.75549  20817212.507    20817211.9944   20817219.5964
        -0.000          -0.000
  -7271456.677 8  -5654931.84946  23892613.933    23892613.9594   23892627.3804
        -0.000          -0.000
 -22968370.484 9 -17872417.40749  20807529.635    20807529.2374   20807536.3214
        -0.000          -0.000
 99  4 12  2 35  0.0000000  0  8  3  6 22 21 26 17 29 23             0.000000023
 -13259175.952 9 -10313213.46447  22767315.915    22767315.5954   22767324.1694
        -0.000          -0.000
  -5074994.052 9  -3560734.03346  23000801.386    23000801.5164   23000811.3274
        -0.000          -0.000
  -3067466.927 9  -2373880.23446  24452373.696    24452373.0354   24452384.4034
        -0.000          -0.000
 -18499024.646 9 -14142530.81748  21964188.708    21964188.3994   21964196.6454
        -0.000          -0.000
     21389.414 8     57252.78945  23048396.799    23048397.4654   23048404.9534
        -0.000          -0.000
 -25176539.174 9 -19578890.63449  20819428.738    20819428.2404   20819435.8834
        -0.000          -0.000
  -7378972.803 9  -5738710.30846  23872153.844    23872153.9324   23872167.5264
        -0.000          -0.000
 -22950046.194 9 -17858138.73049  20811016.638    20811016.2734   20811023.1914
        -0.000          -0.000
 99  4 12  2 35 30.0000000  0  8  3  6 22 21 26 17 29 23             0.000000004
 -13339487.726 9 -10375794.01047  22752033.231    22752032.7764   22752041.1324
        -0.000          -0.000
  -4969829.583 9  -3478787.77046  23020813.534    23020813.6424   23020823.5494
        -0.000          -0.000
  -3006583.826 8  -2326438.99546  24463959.466    24463958.6744   24463970.2354
        -0.000          -0.000
 -18544005.692 9 -14177580.92048  21955628.978    21955628.6854   21955637.0174
        -0.000          -0.000
    104300.507 7    121858.81844  23064174.894    23064175.4124   23064182.2844
        -0.000          -0.000
 -25164577.840 9 -19569570.11149  20821705.022    20821704.4944   20821712.1264
        -0.000          -0.000
  -7486386.081 9  -5822408.62646  23851713.608    23851713.6334   23851727.0134
        -0.000          -0.000
 -22931394.950 9 -17843605.28249  20814565.955    20814565.5164   20814572.3344
        -0.000          -0.000
 99  4 12  2 36  0.0000000  0  8  3  6 22 21 26 17 29 23            -0.000000017
 -13419413.243 9 -10438073.56147  22736823.644    22736823.2354   22736831.7134
        -0.000          -0.000
  -4864469.444 9  -3396689.04646  23040862.865    23040862.9724   23040872.8964
        -0.000          -0.000
  -2945512.737 8  -2278851.27146  24475581.065    24475580.2784   24475592.0254
        -0.000          -0.000
 -18588694.839 9 -14212403.56948  21947124.837    21947124.4924   21947132.9474
        -0.000          -0.000
    187610.79616    186775.94854  23080028.482    23080029.8445          0.0005
        -0.000          -0.000
 -25152337.120 9 -19560031.86649  20824034.510    20824033.9714   20824041.3724
        -0.000          -0.000
  -7593694.324 9  -5906025.10346  23831293.303    23831293.2004   23831306.4584
        -0.000          -0.000
 -22912445.375 9 -17828839.36649  20818171.978    20818171.5004   20818178.2614
        -0.000          -0.000
 99  4 12  2 36 30.0000000  0  7  3  6 22 21 17 29 23                0.000000008
 -13498986.859 9 -10500078.90647  22721681.080    22721680.7484   22721689.3644
        -0.000          -0.000
  -4758944.660 9  -3314462.03746  23060943.783    23060943.8714   23060953.7204
        -0.000          -0.000
  -2884296.498 8  -2231150.39946  24487229.901    24487229.0754   24487241.3484
        -0.000          -0.000
 -18633148.839 9 -14247042.98148  21938665.321    21938665.1184   21938673.5914
        -0.000          -0.000
 -25139870.574 9 -19550317.64849  20826406.808    20826406.2494   20826413.5254
        -0.000          -0.000
  -7700934.767 9  -5989588.74246  23810885.624    23810885.5784   23810898.9224
        -0.000          -0.000
 -22893247.929 9 -17813880.29049  20821825.230    20821824.7314   20821831.4594
        -0.000          -0.000
 99  4 12  2 37  0.0000000  0  7  3  6 22 21 17 29 23               -0.000000013
 -13578142.491 9 -10561758.55747  22706618.161    22706617.7964   22706626.7084
        -0.000          -0.000
  -4653168.020 9  -3232038.76646  23081072.581    23081072.6854   23081082.4944
        -0.000          -0.000
  -2822879.022 8  -2183292.77146  24498916.759    24498916.0544   24498928.8624
        -0.000          -0.000
 -18677325.988 9 -14281466.67348  21930258.701    21930258.3284   21930266.8014
        -0.000          -0.000
 -25127125.009 9 -19540386.03849  20828832.059    20828831.5504   20828838.9544
        -0.000          -0.000
  -7808034.604 9  -6073042.82346  23790504.774    23790504.8474   23790518.1604
        -0.000          -0.000
 -22873766.932 9 -17798700.28149  20825532.297    20825531.8144   20825538.5834
        -0.000          -0.000
 99  4 12  2 37 30.0000000  0  7  3  6 22 21 17 29 23               -0.000000007
 -13656907.545 9 -10623133.84647  22691629.547    22691629.2824   22691638.4664
        -0.000          -0.000
  -4547164.662 9  -3149438.86846  23101244.518    23101244.6424   23101254.2654
        -0.000          -0.000
  -2761280.953 9  -2135294.42445  24510638.163    24510637.7394   24510650.7054
        -0.000          -0.000
 -18721250.356 9 -14315693.38948  21921899.943    21921899.6854   21921908.1564
        -0.000          -0.000
 -25114136.780 9 -19530265.33649  20831303.567    20831303.0694   20831310.4964
        -0.000          -0.000
  -7915008.196 9  -6156398.53546  23770148.270    23770148.3594   23770161.2824
        -0.000          -0.000
 -22854041.446 9 -17783329.75649  20829285.887    20829285.4264   20829292.1804
        -0.000          -0.000
 99  4 12  2 38  0.0000000  0  7  3  6 22 21 17 29 23                0.000000008
 -13735310.870 9 -10684227.27347  22676709.903    22676709.6214   22676719.0694
        -0.000          -0.000
  -4440946.465 9  -3066671.52046  23121457.029    23121457.1284   23121467.0794
        -0.000          -0.000
  -2699522.436 9  -2087171.06645  24522390.733    24522390.1924   24522402.6834
        -0.000          -0.000
 -18764944.270 9 -14349740.53648  21913585.309    21913585.0604   21913593.4014
        -0.000          -0.000
 -25100914.812 9 -19519962.49748  20833819.597    20833819.1274   20833826.5054
        -0.000          -0.000
  -8021869.741 9  -6239666.92746  23749813.162    23749813.1964   23749825.8954
        -0.000          -0.000
 -22834082.742 9 -17767777.50649  20833083.904    20833083.4464   20833090.1884
        -0.000          -0.000
 99  4 12  2 38 30.0000000  0  7  3  6 22 21 17 29 23                0.000000030
 -13813371.377 9 -10745053.57347  22661855.627    22661855.2544   22661864.7634
        -0.000          -0.000
  -4334509.979 9  -2983734.08246  23141711.138    23141711.1474   23141721.4484
        -0.000          -0.000
  -2637598.192 9  -2038918.55245  24534174.951    24534174.2644   24534186.1414
        -0.000          -0.000
 -18808408.953 9 -14383609.05948  21905314.476    21905314.1464   21905322.3274
        -0.000          -0.000
 -25087436.856 9 -19509460.19048  20836384.404    20836383.9124   20836391.1554
        -0.000          -0.000
  -8128604.152 9  -6322836.26046  23729502.290    23729501.9594   23729514.8144
        -0.000          -0.000
 -22813890.269 9 -17752043.08749  20836926.432    20836925.9474   20836932.6824
        -0.000          -0.000
 99  4 12  2 39  0.0000000  0  7  3  6 22 21 17 29 23                0.000000046
 -13891109.648 9 -10805628.77147  22647062.511    22647062.1554   22647071.6844
        -0.000          -0.000
  -4227890.099 9  -2900653.73746  23162000.169    23162000.2814   23162010.7134
        -0.000          -0.000
  -2575520.343 9  -1990546.32845  24545988.306    24545987.5864   24545999.3214
        -0.000          -0.000
 -18851663.978 9 -14417314.22648  21897083.328    21897082.9354   21897091.0794
        -0.000          -0.000
 -25073712.179 9 -19498765.62848  20838996.126    20838995.6634   20839002.8824
        -0.000          -0.000
  -8235222.973 9  -6405915.52946  23709212.792    23709212.5954   23709225.5204
        -0.000          -0.000
 -22793485.463 9 -17736143.22949  20840809.120    20840808.6894   20840815.5944
        -0.000          -0.000
 99  4 12  2 39 30.0000000  0  7  3  6 22 21 17 29 23                0.000000050
 -13968516.048 9 -10865945.36747  22632332.586    22632332.1934   22632341.6974
        -0.000          -0.000
  -4121095.297 9  -2817437.10346  23182322.743    23182322.7614   23182333.2804
        -0.000          -0.000
  -2513303.191 9  -1942065.59245  24557828.258    24557827.4194   24557839.1674
        -0.000          -0.000
 -18894691.225 9 -14450841.89648  21888895.509    21888895.1334   21888903.2094
        -0.000          -0.000
 -25059718.666 9 -19487861.58349  20841659.135    20841658.5804   20841665.8534
        -0.000          -0.000
  -8341737.708 9  -6488913.70746  23688943.262    23688943.1664   23688955.9254
        -0.000          -0.000
 -22772866.199 9 -17720076.26349  20844732.799    20844732.3824   20844739.3794
        -0.000          -0.000
 99  4 12  2 40  0.0000000  0  7  3  6 22 21 17 29 23                0.000000046
 -14045575.377 9 -10925991.53247  22617668.662    22617668.2844   22617677.6314
        -0.000          -0.000
  -4014119.427 9  -2734079.35546  23202679.782    23202679.7794   23202690.2884
        -0.000          -0.000
  -2450971.195 8  -1893495.34345  24569689.820    24569688.9584   24569701.0534
        -0.000          -0.000
 -18937493.153 9 -14484193.98748  21880750.674    21880750.2624   21880758.1534
        -0.000          -0.000
 -25045442.464 9 -19476737.27649  20844375.759    20844375.2594   20844382.5994
        -0.000          -0.000
  -8448166.728 9  -6571845.07446  23668690.513    23668690.2274   23668702.6834
        -0.000          -0.000
 -22752033.255 9 -17703842.78849  20848697.249    20848696.8174   20848703.8154
        -0.000          -0.000
 99  4 12  2 40 30.0000000  0  7  3  6 22 21 17 29 23                0.000000033
 -14122275.919 9 -10985758.11747  22603072.941    22603072.6094   22603081.8194
        -0.000          -0.000
  -3906965.984 9  -2650583.23946  23223070.166    23223070.1934   23223081.0494
        -0.000          -0.000
  -2388542.499 8  -1844849.73545  24581569.684    24581568.7544   24581581.3844
        -0.000          -0.000
 -18980069.475 9 -14517370.28348  21872648.746    21872648.2414   21872656.0904
        -0.000          -0.000
 -25030894.291 9 -19465401.02749  20847144.184    20847143.6434   20847151.0504
        -0.000          -0.000
  -8554527.211 9  -6654723.04346  23648450.742    23648450.3394   23648462.6104
        -0.000          -0.000
 -22730992.168 9 -17687447.11549  20852701.268    20852700.7964   20852707.7704
        -0.000          -0.000
 99  4 12  2 41  0.0000000  0  7  3  6 22 21 17 29 23                0.000000006
 -14198601.691 9 -11045232.68247  22588548.518    22588548.2044   22588557.3754
        -0.000          -0.000
  -3799617.658 9  -2566935.26946  23243497.781    23243497.7724   23243508.7424
        -0.000          -0.000
  -2326035.109 8  -1796142.85245  24593464.147    24593463.3394   24593476.4314
        -0.000          -0.000
 -19022409.950 9 -14550362.81248  21864591.273    21864590.8994   21864598.9924
        -0.000          -0.000
 -25016088.709 9 -19453864.19949  20849961.551    20849961.0624   20849968.4694
        -0.000          -0.000
  -8660834.283 9  -6737559.42646  23628220.841    23628220.4744   23628232.6594
        -0.000          -0.000
 -22709730.808 9 -17670879.80749  20856747.043    20856746.5854   20856753.6384
        -0.000          -0.000
 99  4 12  2 41 30.0000000  0  7  3  6 22 21 17 29 23               -0.000000017
 -14274520.652 9 -11104390.23447  22574101.604    22574101.2154   22574110.3204
        -0.000          -0.000
  -3692014.708 9  -2483088.88046  23263973.934    23263973.9264   23263984.8674
        -0.000          -0.000
  -2263425.808 8  -1747356.49845  24605378.319    24605377.5814   24605390.8494
        -0.000          -0.000
 -19064477.365 9 -14583142.55748  21856585.922    21856585.6314   21856593.8924
        -0.000          -0.000
 -25001004.051 9 -19442109.92049  20852832.104    20852831.5554   20852839.0254
        -0.000          -0.000
  -8767057.166 9  -6820330.21446  23608006.676    23608006.5684   23608019.0194
        -0.000          -0.000
 -22688214.561 9 -17654113.89149  20860841.286    20860840.8614   20860847.9684
        -0.000          -0.000
 99  4 12  2 42  0.0000000  0  7  3  6 22 21 17 29 23               -0.000000030
 -14350018.015 9 -11163219.28147  22559734.883    22559734.4614   22559743.4064
        -0.000          -0.000
  -3584149.436 9  -2399038.10146  23284500.030    23284500.1064   23284510.9364
        -0.000          -0.000
  -2200695.385 8  -1698475.81445  24617315.857    24617315.0464   24617328.3104
        -0.000          -0.000
 -19106273.261 9 -14615710.72148  21848632.440    21848632.1374   21848640.4624
        -0.000          -0.000
 -24985644.460 9 -19430141.40249  20855754.872    20855754.3324   20855761.8014
        -0.000          -0.000
  -8873160.886 9  -6903008.15146  23587815.381    23587815.2364   23587827.6654
        -0.000          -0.000
 -22666408.273 9 -17637121.96149  20864990.807    20864990.3984   20864997.5614
        -0.000          -0.000
 99  4 12  2 42 30.0000000  0  7  3  6 22 21 17 29 23               -0.000000044
 -14425106.152 9 -11221729.46147  22545445.630    22545445.4534   22545454.2414
        -0.000          -0.000
  -3476045.224 9  -2314801.15446  23305071.741    23305071.7744   23305082.4524
        -0.000          -0.000
  -2137842.913 9  -1649500.01445  24629276.843    24629276.1154   24629289.1064
        -0.000          -0.000
 -19147815.646 9 -14648081.35748  21840727.144    21840726.7994   21840735.0914
        -0.000          -0.000
 -24970029.111 9 -19417973.57348  20858726.331    20858725.8254   20858733.3034
        -0.000          -0.000
  -8979124.283 9  -6985576.73346  23567650.923    23567650.7454   23567663.1454
        -0.000          -0.000
 -22644319.304 9 -17619909.76649  20869194.175    20869193.7784   20869200.9994
        -0.000          -0.000
 99  4 12  2 43  0.0000000  0  7  3  6 22 21 17 29 23               -0.000000058
 -14499792.075 9 -11279926.20747  22531233.181    22531233.0824   22531241.6834
        -0.000          -0.000
  -3367733.627 9  -2230402.58146  23325682.884    23325682.8854   23325693.5204
        -0.000          -0.000
  -2074869.478 8  -1600429.94245  24641260.545    24641259.7414   24641272.8744
        -0.000          -0.000
 -19189122.096 9 -14680268.13848  21832866.801    21832866.4814   21832874.6494
        -0.000          -0.000
 -24954167.003 9 -19405613.47249  20861744.791    20861744.3254   20861751.8594
        -0.000          -0.000
  -9084954.377 9  -7068041.46246  23547511.501    23547511.4684   23547523.9084
        -0.000          -0.000
 -22621966.017 9 -17602491.61749  20873447.832    20873447.4434   20873454.7204
        -0.000          -0.000
 99  4 12  2 43 30.0000000  0  7  3  6 22 21 17 29 23               -0.000000051
 -14574049.032 9 -11337788.70647  22517102.764    22517102.4144   22517110.8274
        -0.000          -0.000
  -3259232.973 9  -2145856.69846  23346330.110    23346330.0814   23346340.6554
        -0.000          -0.000
  -2011746.304 8  -1551243.19145  24653272.061    24653271.4864   24653284.9604
        -0.000          -0.000
 -19230181.734 9 -14712262.59948  21825053.477    21825052.9814   21825061.2274
        -0.000          -0.000
 -24938022.841 9 -19393033.59949  20864816.989    20864816.4884   20864824.0224
        -0.000          -0.000
  -9190628.457 9  -7150384.65446  23527401.987    23527402.0494   23527414.2084
        -0.000          -0.000
 -22599335.982 9 -17584857.80449  20877754.203    20877753.8124   20877761.1074
        -0.000          -0.000
 99  4 12  2 44  0.0000000  0  7  3  6 22 21 17 29 23               -0.000000046
 -14647894.738 9 -11395330.74147  22503050.366    22503050.0124   22503058.2234
        -0.000          -0.000
  -3150600.771 9  -2061208.33046  23367002.033    23367001.9724   23367012.7684
        -0.000          -0.000
  -1948489.408 9  -1501952.23745  24665308.996    24665308.5034   24665322.3664
        -0.000          -0.000
 -19271011.707 9 -14744078.10148  21817283.528    21817283.1104   21817291.4904
        -0.000          -0.000
 -24921604.144 9 -19380239.80348  20867941.344    20867940.8354   20867948.2894
        -0.000          -0.000
  -9296157.516 9  -7232614.81946  23507320.316    23507320.3724   23507332.1404
        -0.000          -0.000
 -22576450.650 9 -17567025.06049  20882109.194    20882108.7874   20882116.0724
        -0.000          -0.000
 99  4 12  2 44 30.0000000  0  7  3  6 22 21 17 29 23               -0.000000023
 -14721320.039 9 -11452545.20147  22489078.007    22489077.5864   22489085.7324
        -0.000          -0.000
  -3041830.231 9  -1976452.13346  23387700.150    23387700.2524   23387711.4454
        -0.000          -0.000
  -1885084.374 9  -1452545.89845  24677374.489    24677374.0494   24677387.9304
        -0.000          -0.000
 -19311598.911 9 -14775704.42248  21809559.832    21809559.5864   21809567.9454
        -0.000          -0.000
 -24904891.793 9 -19367217.17948  20871121.552    20871121.0634   20871128.3804
        -0.000          -0.000
  -9401554.981 9  -7314742.47646  23487263.526    23487263.7364   23487275.0314
        -0.000          -0.000
 -22553332.351 9 -17549010.77749  20886508.497    20886508.0614   20886515.3034
        -0.000          -0.000
 99  4 12  2 45  0.0000000  0  7  3  6 22 21 17 29 23               -0.000000013
 -14794362.321 9 -11509461.22047  22475178.336    22475178.0384   22475186.1294
        -0.000          -0.000
  -2932962.087 9  -1891619.88446  23408417.265    23408417.2904   23408428.6524
        -0.000          -0.000
  -1821574.876 9  -1403058.18346  24689460.281    24689459.6524   24689473.3854
        -0.000          -0.000
 -19351966.952 9 -14807159.95048  21801878.204    21801877.8444   21801886.0494
        -0.000          -0.000
 -24887921.444 9 -19353993.51948  20874350.867    20874350.3984   20874357.6544
        -0.000          -0.000
  -9506872.168 9  -7396807.56246  23467221.935    23467222.3514   23467233.4594
        -0.000          -0.000
 -22530026.486 9 -17530850.34049  20890943.501    20890943.0714   20890950.1524
        -0.000          -0.000
 99  4 12  2 45 30.0000000  0  7  3  6 22 21 17 29 23               -0.000000019
 -14867013.868 9 -11566072.76047  22461353.307    22461352.9284   22461361.0924
        -0.000          -0.000
  -2823974.919 9  -1806694.93446  23429157.072    23429157.0814   23429168.3034
        -0.000          -0.000
  -1757964.332 9  -1353491.71246  24701565.335    24701564.7914   24701577.9984
        -0.000          -0.000
 -19392099.840 9 -14838432.26848  21794241.135    21794240.7714   21794248.8964
        -0.000          -0.000
 -24870682.740 9 -19340560.75048  20877631.245    20877630.7674   20877638.0474
        -0.000          -0.000
  -9612078.621 9  -7478786.38046  23447201.545    23447201.7314   23447213.0004
        -0.000          -0.000
 -22506523.156 9 -17512536.04449  20895415.965    20895415.5654   20895422.5694
        -0.000          -0.000
 99  4 12  2 46  0.0000000  0  7  3  6 22 21 17 29 23               -0.000000018
 -14939232.380 9 -11622346.85547  22447610.565    22447610.1234   22447618.4544
        -0.000          -0.000
  -2714812.588 9  -1721633.47146  23449930.344    23449930.3704   23449941.1944
        -0.000          -0.000
  -1694218.100 9  -1303819.48246  24713696.492    24713695.8144   24713708.2254
        -0.000          -0.000
 -19431957.718 9 -14869490.28948  21786656.384    21786656.0124   21786664.1304
        -0.000          -0.000
 -24853151.900 9 -19326900.34148  20880967.211    20880966.6984   20880974.0114
        -0.000          -0.000
  -9717124.737 8  -7560640.28346  23427211.537    23427211.7394   23427223.0734
        -0.000          -0.000
 -22482785.830 9 -17494039.41149  20899932.992    20899932.6284   20899939.6404
        -0.000          -0.000
 99  4 12  2 46 30.0000000  0  7  3  6 22 21 17 29 23               -0.000000013
 -15011031.785 9 -11678294.38347  22433947.565    22433947.1424   22433955.6054
        -0.000          -0.000
  -2605474.167 9  -1636434.80046  23470737.037    23470737.0174   23470747.5354
        -0.000          -0.000
  -1630365.972 9  -1254064.75245  24725847.112    24725846.5434   24725859.1604
        -0.000          -0.000
 -19471565.339 9 -14900353.30248  21779119.308    21779118.9004   21779127.0384
        -0.000          -0.000
 -24835345.891 9 -19313025.51148  20884355.543    20884355.0724   20884362.3004
        -0.000          -0.000
  -9822031.190 9  -7642385.30346  23407248.200    23407248.4504   23407260.0524
        -0.000          -0.000
 -22458831.528 9 -17475373.71449  20904491.400    20904491.0024   20904498.0084
        -0.000          -0.000
 99  4 12  2 47  0.0000000  0  7  3  6 22 21 17 29 23               -0.000000032
 -15082436.843 9 -11733934.63847  22420359.629    22420359.2284   22420367.5954
        -0.000          -0.000
  -2495980.843 9  -1551115.42346  23491573.039    23491573.1224   23491583.5294
        -0.000          -0.000
  -1566439.689 9  -1204252.22745  24738011.839    24738011.4014   24738024.1134
        -0.000          -0.000
 -19510943.313 9 -14931037.37548  21771625.796    21771625.4184   21771633.4654
        -0.000          -0.000
 -24817286.442 9 -19298953.20348  20887792.123    20887791.6734   20887798.8784
        -0.000          -0.000
  -9926807.836 9  -7724029.19246  23387309.864    23387310.2814   23387321.8604
        -0.000          -0.000
 -22434663.773 9 -17456541.67749  20909090.434    20909089.9884   20909096.9204
        -0.000          -0.000
